GFSSE_prec_cloud_003.txt.gz
Cloud_Cover
84 2 14 100 95 0 0 0 0 0 0 4 5 5 5 91 49 11 0 0 0 0 0 0 0 2 100 95 48 40 79 27 0 0 0 0 0 0 0 85 4 0 14
39 34 3 8 35 28 0 0 0 0 3 5 47 100 99 87 96 89 3 46 30 2 0 0 0 0 16 100 72 39 32 22 0 0 0 0 0 0 2 0 37 36 26
5 5 32 56 98 28 17 9 0 3 0 0 47 100 57 9 4 63 98 5 5 5 0 0 0 0 0 0 0 0 0 1 3 0 0 0 0 0 1 0 11 16 0
77 68 8 100 68 33 28 25 0 0 3 0 0 1 3 88 100 100 94 5 3 2 5 2 0 0 0 0 0 0 0 0 0 0 0 0 0 0 0 0 0 58 25
100 99 56 71 99 27 25 22 19 11 0 0 0 97 98 99 56 65 68 92 89 46 54 5 5 4 5 9 9 4 0 1 0 0 0 0 0 0 0 0 1 1 39
100 100 100 100 100 83 80 11 29 16 0 0 0 2 99 100 100 34 3 47 100 76 23 100 9 0 0 1 1 76 96 99 26 0 0 0 2 2 0 0 0 0 11
100 100 100 100 100 100 100 100 74 3 2 0 0 0 100 100 100 43 10 5 91 100 93 3 5 7 8 0 0 3 0 0 0 0 0 0 0 0 5 22 5 2 6
100 100 100 100 100 100 100 100 99 9 5 0 5 1 39 92 89 80 52 17 63 83 92 69 96 15 8 11 12 0 0 0 0 0 0 1 2 0 20 100 100 60 0
100 100 100 100 100 100 100 100 99 98 20 5 5 5 5 5 64 5 6 42 93 100 100 100 52 21 10 10 12 13 0 0 0 0 0 0 0 0 98 100 29 3 1
100 100 100 100 100 100 100 100 100 100 100 93 19 5 5 16 7 1 100 98 82 75 100 95 37 5 3 0 16 0 0 0 0 0 0 0 0 0 0 2 2 0 13
93 98 100 100 100 100 100 100 100 100 100 100 100 100 100 100 100 100 100 48 71 18 5 16 20 5 5 5 0 0 0 3 0 0 0 0 1 0 2 23 8 7 14
86 93 100 98 100 100 100 100 100 100 100 100 100 100 100 100 36 35 86 69 50 94 60 74 15 7 5 0 0 0 0 2 4 0 2 0 2 2 4 0 9 75 28
2 89 100 100 100 90 100 100 100 100 100 100 100 100 100 87 8 16 68 99 99 93 98 50 48 18 5 0 1 0 0 0 0 2 0 2 0 3 6 9 95 13 62
0 0 70 100 100 100 100 50 34 79 76 37 14 22 89 100 99 72 82 27 21 64 63 9 5 5 5 5 3 0 0 0 0 2 5 2 0 2 1 51 1 2 5
0 0 2 78 100 100 98 81 44 78 49 27 5 13 75 71 96 70 99 100 71 17 5 5 5 5 5 6 5 0 0 0 0 0 2 4 0 0 0 0 0 0 12
0 0 0 60 100 100 97 98 65 97 88 66 75 5 22 83 100 100 100 100 56 66 13 5 6 5 2 7 5 0 0 0 0 0 0 0 0 0 0 0 0 0 0
0 0 0 0 75 76 62 46 46 27 71 8 32 85 100 100 100 100 69 30 96 55 84 6 5 5 2 5 0 5 0 0 0 0 0 0 0 0 0 0 0 0 0
2 0 0 0 40 65 52 59 58 27 79 100 100 100 100 100 100 100 100 96 100 100 91 38 62 5 5 2 5 4 0 0 0 0 0 0 0 0 0 0 0 0 0
2 5 0 0 57 83 67 65 46 96 100 100 100 100 100 100 98 100 100 100 100 100 100 100 51 17 6 5 5 0 0 0 0 0 0 0 0 0 0 0 0 0 0
0 2 0 13 93 93 81 85 100 100 100 100 99 100 100 100 100 100 100 100 100 100 100 83 52 24 98 6 0 0 0 0 0 0 0 0 0 0 0 0 0 0 0
0 0 0 96 100 70 100 96 52 100 100 100 100 100 100 100 97 100 100 100 100 100 98 76 89 98 5 0 0 0 0 0 0 0 0 0 0 0 0 0 0 0 0
0 1 96 100 92 50 60 40 0 6 100 100 100 100 100 99 96 99 100 100 100 100 100 13 5 4 5 0 0 0 0 0 0 0 0 0 0 0 0 0 0 0 0
0 25 100 98 70 69 71 33 0 78 100 100 100 100 100 99 98 84 84 91 51 100 94 5 32 54 5 2 0 0 0 0 0 0 0 0 0 1 4 3 0 0 0
0 43 100 97 60 99 94 5 0 80 71 100 100 100 51 62 60 63 100 14 77 94 6 5 93 56 9 0 0 0 0 0 0 2 0 0 0 5 0 0 2 1 1
0 22 100 100 99 97 100 5 0 100 100 100 100 100 0 5 55 10 5 11 99 78 5 8 51 48 0 0 0 0 0 0 0 0 2 1 4 2 2 0 1 4 4
2 0 21 60 89 100 100 96 30 100 100 100 97 36 0 5 5 5 5 75 75 31 31 26 5 1 0 0 0 0 0 0 0 0 0 0 0 0 0 1 1 2 4

GFSSE_prec_cloud_006.txt.gz
Cloud_Cover
5 5 5 91 5 4 0 0 0 0 0 0 0 0 0 2 0 2 4 7 0 0 0 8 3 26 51 96 86 30 9 5 0 0 0 0 0 0 0 11 0 13 2
5 5 5 100 58 5 4 5 0 0 0 0 1 0 0 33 36 86 47 0 0 0 59 7 4 0 99 100 98 89 100 40 0 0 0 0 0 0 2 0 0 58 0
8 54 6 97 97 12 5 1 5 0 0 6 52 1 0 2 14 84 11 5 3 5 5 5 4 1 0 1 0 0 0 0 0 0 0 0 0 0 0 0 0 0 0
98 66 86 88 100 67 10 11 12 6 4 2 6 0 0 17 65 0 1 4 5 4 32 26 36 38 25 37 5 5 0 0 0 0 0 0 0 0 0 0 0 1 1
14 84 52 87 100 63 16 19 16 11 5 5 5 2 14 0 0 0 0 0 0 0 5 35 97 100 96 10 1 79 50 15 0 0 0 0 0 0 0 0 1 28 19
98 83 59 72 94 35 35 90 49 36 5 5 5 5 2 39 1 4 0 0 2 0 0 0 4 6 5 5 4 5 22 5 0 0 0 0 0 0 0 0 0 0 0
95 100 93 100 97 92 100 100 100 89 26 5 5 5 2 29 34 94 7 4 5 4 3 1 5 18 5 69 51 11 9 1 0 1 0 0 1 0 0 62 51 0 4
63 79 100 100 100 100 100 100 100 100 100 66 16 5 5 5 5 5 28 0 2 19 16 5 7 37 100 100 100 36 5 5 9 26 15 7 2 0 11 97 33 18 6
6 5 88 100 100 100 100 100 100 100 100 100 88 38 5 0 1 5 36 31 14 42 84 97 100 90 23 27 24 4 3 5 5 2 0 0 0 0 1 77 97 23 58
5 4 4 54 100 100 100 100 100 100 100 100 100 100 87 50 48 7 5 3 6 13 10 100 100 100 88 7 71 32 6 40 5 5 0 0 0 0 0 0 0 8 7
5 0 4 86 30 94 100 100 100 100 100 100 100 100 100 94 100 55 56 100 100 59 75 100 100 94 79 95 78 45 18 6 5 0 0 1 0 0 0 0 0 0 0
0 1 7 21 92 82 90 94 100 98 100 100 100 100 100 100 100 100 100 100 100 100 89 6 5 12 22 67 84 75 15 5 5 1 0 0 0 0 3 3 0 0 0
0 0 15 41 73 61 75 76 100 100 100 100 100 100 100 100 100 100 100 100 100 100 97 73 66 32 11 6 29 28 5 5 0 2 0 0 0 0 3 5 0 0 0
0 0 0 76 58 74 97 99 100 99 98 100 100 100 100 100 100 100 99 42 12 67 80 100 97 72 57 55 7 5 5 4 0 1 0 0 0 0 4 4 5 0 2
0 0 0 4 99 86 90 85 100 87 100 85 46 42 41 53 22 23 6 5 5 20 85 67 24 72 9 31 47 43 5 4 0 0 0 0 0 0 0 0 0 0 0
2 0 0 0 65 98 100 79 79 84 73 94 22 5 18 41 25 83 88 92 73 10 59 63 31 32 21 10 62 5 5 5 2 0 0 1 0 0 0 0 0 0 0
3 4 0 0 0 100 100 93 77 58 61 92 58 50 39 5 37 76 98 98 10 20 29 72 80 98 35 50 99 61 57 13 5 3 5 5 0 0 0 0 0 0 0
0 5 4 2 0 92 100 97 69 76 71 79 63 36 12 36 89 100 100 88 14 99 99 93 95 100 100 100 100 94 24 74 5 5 5 4 0 0 0 0 0 0 0
0 0 1 4 0 1 97 100 83 85 75 29 100 85 100 100 100 77 56 12 24 100 100 100 100 100 100 100 100 100 86 30 16 8 5 0 0 0 0 0 0 0 0
0 0 0 0 0 0 100 100 100 90 43 80 100 100 87 100 100 5 5 5 19 76 100 100 100 100 100 100 100 98 49 87 6 5 0 0 0 0 0 0 0 0 0
0 0 0 0 0 76 100 100 73 87 85 82 100 100 100 100 100 7 5 100 100 24 12 56 51 100 100 64 9 39 5 5 4 0 0 0 0 0 0 0 0 0 0
0 0 0 0 8 97 99 99 58 100 90 58 37 100 100 100 100 26 21 67 80 57 79 69 99 100 100 67 5 5 5 12 4 0 0 0 0 0 0 0 0 0 0
0 0 0 0 13 36 100 100 84 40 84 100 100 100 100 100 100 2 65 78 98 60 80 91 80 65 99 100 6 5 45 29 1 0 0 0 0 0 0 0 0 0 0
0 0 0 2 0 96 100 100 2 0 42 100 100 99 100 100 86 4 83 100 84 41 67 99 34 47 93 50 5 6 8 3 0 0 0 0 0 0 0 0 0 0 0
0 0 0 54 6 73 100 100 24 0 0 11 99 100 100 100 9 0 5 6 35 58 22 5 6 100 81 7 5 25 0 0 0 0 0 0 0 0 0 1 5 5 0
0 0 11 58 32 20 76 100 52 5 4 4 100 100 100 88 0 0 0 4 4 5 5 5 21 23 5 5 2 0 0 0 0 0 0 0 0 2 5 5 5 5 0

GFSSE_prec_cloud_009.txt.gz
Cloud_Cover
22 12 5 5 41 0 5 5 5 0 1 0 0 0 0 3 8 21 16 0 0 0 0 0 1 29 99 80 100 100 85 30 0 0 0 0 0 0 0 9 0 43 59
5 14 5 6 5 5 10 1 1 5 3 0 2 0 5 1 0 4 1 0 0 0 0 0 0 3 90 100 58 32 100 33 2 0 0 0 0 0 2 0 0 46 98
5 8 2 5 71 5 5 5 0 0 7 24 2 0 0 0 0 0 0 0 0 0 0 0 0 0 1 5 5 8 5 1 2 2 0 0 0 0 0 0 0 0 0
12 8 11 5 86 6 8 4 7 0 4 0 0 0 0 0 0 0 0 0 0 0 0 0 0 2 21 5 65 99 97 10 0 0 0 0 0 0 0 0 1 14 0
68 14 8 5 34 6 5 0 5 0 1 0 0 4 4 0 0 0 0 0 0 0 0 0 0 0 1 0 3 7 9 23 0 0 0 0 1 0 0 0 0 11 0
5 5 6 76 13 20 80 5 5 5 0 4 4 5 5 5 5 5 3 2 0 0 0 2 5 0 0 0 1 0 4 3 5 19 5 5 2 0 0 2 0 0 0
60 43 16 93 76 100 96 52 8 5 5 5 5 7 6 89 36 45 7 6 5 0 1 5 1 0 4 7 25 14 3 5 24 31 20 23 26 2 0 28 98 20 0
72 16 8 78 81 100 100 100 97 27 86 8 5 81 70 44 100 99 48 35 5 10 6 3 7 6 20 19 14 57 63 5 6 32 24 24 5 5 5 95 0 6 12
44 15 79 17 35 23 99 100 100 99 98 86 92 24 43 96 52 28 90 58 12 22 4 14 83 44 7 8 18 82 100 100 100 99 71 18 12 5 3 1 0 5 30
5 5 16 98 56 33 23 100 100 100 100 100 100 100 100 100 100 100 100 68 44 67 74 100 8 30 100 100 98 100 62 63 5 8 35 80 5 3 2 0 0 0 0
5 5 5 9 18 93 62 84 100 100 100 100 100 100 100 100 100 100 100 100 100 99 94 71 12 100 100 100 91 5 58 17 5 5 5 5 5 0 0 0 0 0 0
0 0 0 5 11 91 69 12 90 21 92 100 100 100 100 98 100 100 97 96 100 100 100 100 100 100 100 100 100 100 32 5 5 5 5 5 5 2 3 0 0 1 0
0 0 0 14 21 78 100 93 29 49 94 86 100 100 100 100 100 100 100 100 100 100 100 100 100 100 100 100 89 85 72 100 72 5 15 15 5 2 48 56 0 12 25
0 0 1 4 33 35 99 100 100 16 30 69 98 34 100 100 100 100 100 100 100 100 100 100 100 100 71 6 5 5 5 48 72 53 9 22 5 8 5 0 11 0 0
0 0 0 1 34 24 40 100 100 47 21 17 76 81 96 60 27 100 100 100 100 100 80 38 79 84 48 57 31 18 5 67 44 75 9 77 43 5 5 5 4 4 0
0 0 0 0 20 100 76 100 100 54 60 96 97 65 31 71 100 35 42 19 35 7 5 24 23 77 37 15 56 60 29 8 39 69 100 100 99 57 5 5 5 5 0
0 0 0 0 1 82 100 76 100 31 88 93 100 73 68 97 40 14 5 5 5 5 3 5 5 5 5 5 5 9 37 23 52 100 100 100 100 56 5 56 9 5 1
0 0 0 0 0 26 100 67 100 100 100 100 100 100 100 35 5 3 4 32 5 2 5 5 5 4 25 88 81 83 76 69 100 100 100 100 100 24 30 15 5 3 0
0 0 0 0 0 0 100 44 100 100 100 100 100 98 11 5 5 18 90 36 0 4 5 5 5 5 36 82 100 96 100 100 100 100 100 100 81 5 51 31 5 0 0
0 0 0 0 0 0 16 41 100 100 100 100 28 2 51 23 10 100 5 3 0 3 5 5 38 43 5 17 24 99 100 94 97 58 39 20 5 5 1 0 0 0 0
0 0 0 0 0 0 3 17 99 100 100 91 1 0 30 34 100 100 6 0 0 0 5 100 100 95 40 5 5 33 19 7 9 5 5 5 9 2 0 0 0 0 0
0 0 0 0 0 0 5 40 63 100 100 59 25 2 69 100 100 100 33 0 0 0 27 69 70 48 32 5 11 5 8 66 91 14 5 2 0 0 0 0 0 0 0
0 0 0 0 0 0 62 56 99 100 98 97 77 19 52 95 100 100 28 3 0 0 7 6 11 87 54 94 90 88 15 5 22 10 5 5 0 0 0 0 0 0 0
5 1 0 0 0 4 64 96 87 0 70 50 12 27 100 100 100 100 72 5 0 0 5 5 18 71 33 5 18 19 4 5 5 5 5 0 0 0 0 0 0 0 0
5 2 0 0 0 20 39 100 100 6 62 47 39 88 100 100 100 100 54 5 2 5 3 3 5 5 5 5 1 3 5 5 5 2 0 0 0 0 0 0 0 0 0
1 5 1 0 0 16 87 100 27 3 1 8 66 89 100 100 100 100 5 5 2 4 3 5 5 5 5 5 5 6 11 5 2 0 0 0 0 0 0 0 0 0 0

GFSSE_prec_cloud_012.txt.gz
Cloud_Cover
6 6 4 29 98 50 7 5 5 9 5 3 0 0 5 4 10 12 5 0 0 0 0 0 66 87 92 100 100 100 100 43 0 0 0 0 0 0 0 1 72 73 85
4 5 5 2 40 72 91 87 5 0 0 5 5 3 0 0 0 0 0 0 0 0 0 0 0 2 99 100 78 31 8 0 0 5 3 0 0 0 2 0 0 46 100
4 5 2 4 1 5 23 5 56 6 4 1 0 5 5 4 1 0 0 0 0 0 0 0 0 3 0 0 0 0 0 0 0 7 11 5 5 0 0 0 0 0 0
5 5 0 0 0 2 5 3 2 6 5 5 0 0 0 5 0 2 0 0 0 0 0 0 0 0 0 0 0 0 0 0 0 0 0 0 0 0 0 4 5 1 1
5 5 1 0 0 4 1 2 0 0 0 0 0 0 0 0 0 0 0 0 0 0 0 0 0 0 0 0 0 0 0 0 0 0 1 0 0 0 3 5 1 0 0
5 5 5 5 99 78 0 1 12 2 0 0 5 5 0 0 1 0 0 3 2 5 5 7 8 9 0 0 11 0 0 0 0 2 4 1 10 7 5 2 5 5 3
8 5 5 5 22 5 0 0 5 5 5 2 5 5 5 5 2 4 4 4 46 12 4 6 10 5 6 15 18 3 5 3 0 44 100 72 100 98 48 74 89 5 5
5 7 5 13 53 55 0 1 5 5 46 11 54 8 5 98 86 20 5 23 38 97 100 50 16 10 11 11 5 2 3 9 3 30 90 100 33 11 10 87 9 29 100
4 10 10 5 5 60 1 0 5 47 98 100 92 99 75 14 77 73 69 18 20 6 64 34 50 5 14 5 34 11 5 4 100 100 88 59 14 5 5 9 5 4 5
6 0 0 0 0 5 5 1 5 5 5 44 99 100 100 100 100 100 100 100 100 98 100 100 100 100 100 26 76 32 8 100 67 100 89 29 56 5 7 30 5 5 5
7 12 0 0 2 37 5 0 5 5 5 3 22 43 87 96 97 100 100 100 100 100 100 100 100 100 100 100 100 100 100 100 99 100 100 100 100 100 88 48 6 5 5
0 2 14 10 39 61 99 0 4 5 5 5 5 40 99 72 96 99 100 100 100 98 100 100 100 100 100 100 100 100 100 100 100 100 100 100 47 43 31 68 7 31 47
0 0 0 46 93 27 90 11 6 5 5 5 5 5 5 19 100 98 100 100 100 100 100 100 100 100 100 100 94 100 100 100 100 95 23 74 5 18 84 78 39 10 28
0 0 0 72 100 12 86 100 98 100 5 28 8 5 5 13 5 2 20 81 59 99 98 100 100 100 100 100 100 100 100 100 83 32 5 5 13 7 34 26 69 95 12
0 0 0 1 73 39 0 100 100 23 4 5 9 70 6 56 5 5 68 31 7 35 55 5 99 100 100 96 100 86 41 5 19 32 14 5 5 16 24 100 100 100 100
0 0 0 0 0 16 87 100 100 60 81 8 98 58 10 67 5 24 4 0 1 64 10 6 5 42 99 78 61 18 23 43 5 5 5 5 21 38 87 100 100 100 100
0 0 0 0 0 0 10 94 100 100 76 64 100 100 6 76 94 5 2 5 5 0 0 0 1 5 1 5 5 0 0 2 6 68 70 93 96 97 100 100 100 100 100
0 0 0 0 0 0 55 97 100 100 100 55 97 100 78 100 62 5 5 5 5 2 0 5 0 0 5 5 5 5 5 1 5 68 89 100 100 100 100 100 100 98 97
0 0 0 0 0 0 0 80 64 100 99 100 92 100 100 60 24 0 3 10 5 3 5 5 0 0 5 5 26 70 54 41 5 6 28 94 95 100 62 56 17 27 23
0 0 0 0 0 0 0 9 25 100 100 100 100 100 90 35 0 0 1 5 5 5 1 0 0 0 5 5 5 97 100 92 59 59 96 98 100 75 5 5 5 5 10
14 1 0 0 0 0 0 0 0 0 58 100 100 100 34 5 5 0 6 11 0 0 0 0 0 0 5 56 66 100 100 96 74 47 7 5 24 77 5 5 4 0 0
99 78 3 0 0 0 0 0 17 0 96 100 100 100 21 97 99 95 100 98 0 0 0 0 0 0 2 5 42 81 83 81 42 58 65 28 5 5 3 4 0 0 0
41 100 98 22 0 0 0 6 58 22 100 98 100 87 14 16 75 100 100 96 26 3 1 4 5 0 0 5 5 5 5 5 5 5 16 4 0 1 1 0 0 0 0
5 66 100 90 8 3 4 6 6 1 18 75 100 76 57 71 77 28 90 26 90 5 5 5 5 4 2 3 5 5 4 0 0 5 5 5 4 5 0 0 0 0 0
1 18 27 98 96 100 46 12 64 16 35 67 100 100 100 100 98 70 50 86 100 5 57 56 19 5 5 3 5 5 5 5 5 5 5 5 0 0 0 0 0 0 0
0 0 5 26 40 5 20 77 92 18 82 98 100 100 100 100 99 100 100 100 100 57 98 43 52 57 6 8 5 5 5 5 5 5 3 0 0 0 0 0 0 0 0

GFSSE_prec_cloud_015.txt.gz
Cloud_Cover
24 12 15 7 17 51 5 33 5 5 5 6 5 4 0 3 6 5 0 0 0 1 0 1 98 88 71 96 90 52 6 0 0 0 0 0 0 0 0 0 47 58 75
5 6 85 5 5 8 5 5 19 15 5 21 68 14 5 0 10 0 0 0 0 0 0 0 17 26 64 100 51 0 0 0 0 0 0 0 0 0 0 0 0 0 33
7 19 5 5 5 5 1 1 5 5 5 5 10 50 5 2 0 0 0 0 0 0 0 0 0 0 0 0 0 0 0 0 0 0 0 0 0 0 0 0 0 0 0
5 15 2 0 0 0 0 0 9 2 5 0 0 3 2 1 0 0 0 0 0 0 0 0 0 0 0 0 0 0 0 0 0 0 0 0 0 0 0 0 0 0 1
5 5 1 0 0 0 0 0 0 0 0 0 0 0 0 0 0 0 0 0 0 0 1 0 0 0 0 0 4 0 0 4 0 0 0 0 0 0 0 0 0 24 97
4 5 4 5 5 4 0 0 0 0 0 0 0 0 0 0 0 0 5 4 2 3 0 18 1 2 5 20 3 0 0 2 0 2 7 0 5 0 3 5 98 100 53
0 3 1 5 5 5 5 4 0 0 0 0 0 4 3 4 11 4 3 5 5 5 5 11 7 10 58 15 5 12 19 3 4 4 3 6 5 5 62 100 97 97 44
4 5 5 5 5 5 5 2 0 0 0 0 0 1 3 5 5 5 5 19 16 60 54 20 10 15 9 50 100 78 30 15 5 3 0 5 37 19 100 33 45 37 71
3 3 5 5 5 43 5 5 0 0 3 2 0 0 0 0 6 24 16 88 17 16 100 94 18 4 59 62 18 12 46 87 95 81 40 36 96 100 92 91 77 100 87
0 0 3 5 0 0 0 5 4 4 5 5 3 0 0 0 4 11 98 100 100 100 100 100 100 100 82 99 100 100 100 100 100 98 100 99 100 95 98 100 100 100 100
0 0 0 0 0 0 2 2 0 0 2 5 4 2 5 0 0 5 7 87 96 100 100 100 98 100 100 96 92 64 53 98 100 100 95 100 100 100 100 100 100 100 36
0 0 0 0 0 0 1 3 1 0 0 5 5 5 5 3 0 0 4 100 18 73 100 100 100 100 100 100 100 100 100 100 100 100 79 20 100 100 100 100 98 41 55
0 0 0 12 0 0 5 5 4 4 5 0 5 5 5 7 5 4 27 8 9 53 100 98 96 85 77 100 56 100 100 100 100 100 100 100 100 100 100 100 43 54 76
0 0 0 4 11 0 0 5 0 0 0 0 2 5 5 46 42 5 23 11 2 0 0 9 65 100 44 23 67 99 96 90 99 100 100 100 100 100 40 5 5 5 5
2 0 0 0 1 0 0 28 36 45 0 0 0 2 5 5 5 5 5 62 0 0 0 0 0 5 11 5 5 5 5 8 43 47 88 14 5 6 5 5 5 5 7
1 1 0 0 0 0 0 0 2 100 2 0 0 0 5 4 5 5 17 22 5 0 0 0 0 1 5 2 2 1 0 0 0 2 0 7 13 17 5 26 82 100 59
0 0 0 0 0 0 0 0 36 100 0 13 38 34 0 0 5 5 5 5 5 0 0 0 0 0 0 0 0 0 0 2 0 0 4 0 0 0 7 36 14 100 100
0 0 0 0 0 0 0 0 90 100 0 65 100 100 81 1 4 5 5 5 5 0 2 5 0 0 0 0 0 0 0 5 5 5 12 7 5 10 65 100 100 100 100
0 0 0 0 0 0 0 0 0 100 0 82 100 86 0 2 71 43 1 0 0 0 0 0 0 0 0 0 0 0 1 5 5 52 35 55 94 100 88 12 61 100 99
0 0 0 0 0 0 0 0 0 100 2 100 100 99 2 81 62 8 6 4 0 0 0 0 0 0 0 0 0 0 1 5 5 29 46 94 87 80 86 82 80 80 99
5 0 0 0 5 62 5 0 2 0 100 100 100 79 4 94 85 42 0 5 4 5 5 1 0 0 0 0 0 0 0 5 5 5 5 76 74 34 8 92 100 40 30
20 5 5 2 5 5 20 8 4 5 49 100 100 100 100 98 100 22 0 1 40 9 6 6 1 0 0 0 1 1 0 1 5 5 5 5 5 5 5 5 78 40 5
24 17 6 1 0 3 5 30 83 21 59 98 99 100 100 100 100 0 0 0 77 22 5 0 4 0 1 5 5 5 0 0 0 5 5 5 4 3 5 5 23 9 5
36 100 99 43 3 0 5 7 55 62 8 3 4 7 99 100 100 19 4 23 100 18 0 9 5 5 22 95 91 5 4 5 0 0 4 5 5 5 5 5 1 0 0
5 5 5 5 5 0 0 4 5 5 92 98 4 18 100 100 100 92 94 94 100 1 7 46 5 5 47 93 100 99 100 30 5 7 9 5 5 5 0 3 0 0 0
5 5 5 5 5 5 3 5 5 5 72 20 5 28 1 100 100 100 100 100 45 86 74 99 5 6 6 5 15 63 37 23 5 7 39 89 69 41 4 0 0 0 0

GFSSE_prec_cloud_018.txt.gz
Cloud_Cover
39 4 41 5 5 8 5 5 6 29 35 5 5 5 14 15 14 5 5 5 5 5 2 100 61 58 74 95 11 3 0 0 0 0 0 0 0 0 0 2 0 0 1
12 5 5 5 5 5 5 5 5 5 22 57 6 5 5 6 8 4 0 0 0 0 4 100 94 87 61 17 4 0 4 0 0 0 0 0 0 0 0 0 0 0 0
13 5 3 2 5 5 5 5 5 25 80 5 4 5 5 5 10 0 0 0 0 0 2 97 42 15 5 0 0 0 0 0 0 0 0 0 0 0 0 0 0 0 0
5 5 5 4 0 2 5 5 5 5 5 9 7 6 6 4 2 0 0 0 0 0 0 1 1 0 0 0 0 0 0 0 0 0 1 0 0 0 0 0 0 0 0
21 5 5 5 0 0 0 40 4 5 0 0 0 0 0 0 0 0 0 0 0 0 0 0 0 0 0 0 0 0 0 0 5 1 3 0 0 0 0 0 0 0 0
30 5 5 5 0 5 5 5 5 0 0 0 0 0 0 0 0 0 0 0 0 13 12 8 0 0 0 0 0 0 0 1 3 1 0 0 2 7 0 0 0 0 0
5 3 5 5 5 5 5 5 1 0 0 0 0 0 5 0 0 0 1 2 5 21 19 6 6 6 19 5 5 1 0 1 0 4 5 26 5 6 6 6 88 73 76
2 0 3 5 5 5 13 54 4 0 0 0 0 3 2 0 6 5 0 0 2 5 5 8 46 36 5 5 18 66 39 2 2 3 5 23 65 68 64 30 64 35 100
0 0 4 5 5 5 15 14 5 0 0 0 2 0 0 0 0 1 0 4 0 4 3 17 8 16 66 49 13 10 92 100 83 100 53 57 47 82 92 93 77 95 98
1 0 5 5 5 5 5 0 0 5 0 0 0 3 0 1 0 0 0 0 0 9 0 0 4 26 35 76 100 86 93 100 97 77 64 37 66 50 8 52 49 95 35
12 2 0 0 0 2 0 0 2 5 1 0 0 2 5 5 6 0 0 0 0 4 5 5 52 86 31 52 79 100 100 100 99 97 95 94 85 96 68 44 54 66 35
28 42 6 4 3 11 0 3 5 0 0 0 0 0 5 5 5 3 0 0 0 0 3 4 0 28 65 89 47 100 100 100 92 51 52 79 100 98 100 100 100 98 98
4 6 7 5 0 0 1 2 14 21 14 14 4 2 4 5 7 23 30 15 7 0 0 0 7 43 96 66 47 11 35 55 53 100 98 78 100 82 100 100 78 86 86
0 0 0 0 5 0 4 11 1 1 9 18 5 1 5 5 9 23 33 25 7 0 0 0 4 5 5 5 5 5 21 5 5 13 34 6 5 15 9 81 11 2 3
0 0 0 0 0 0 0 0 0 3 0 0 0 0 0 1 5 12 16 24 7 3 0 0 0 0 0 0 0 0 2 4 5 48 27 5 0 0 1 0 0 5 5
1 3 5 3 1 4 0 0 0 0 0 0 0 0 0 0 0 5 3 5 5 3 3 5 0 0 0 0 0 0 0 0 0 0 0 0 0 0 0 1 0 0 4
5 5 5 5 13 20 5 0 0 0 0 0 0 0 0 0 0 0 0 3 5 5 5 2 0 0 0 0 0 0 0 0 0 0 0 5 4 5 5 5 5 5 5
4 24 7 5 5 5 20 2 0 0 0 0 0 0 0 0 0 0 1 3 6 5 2 0 0 0 0 0 0 0 0 0 0 0 2 5 5 6 36 48 100 100 100
3 4 24 2 2 3 5 1 2 3 3 0 0 0 24 7 0 0 0 0 0 0 0 0 0 0 0 0 0 0 0 0 0 0 1 5 5 71 13 7 17 20 17
0 0 4 5 2 1 5 82 18 30 5 21 58 14 93 43 20 1 53 22 2 0 0 0 0 0 3 2 0 0 0 0 0 0 0 5 5 19 34 61 68 63 5
5 0 0 5 5 1 12 36 6 5 5 12 64 94 100 25 98 57 100 88 10 0 0 0 3 1 0 5 0 0 0 0 0 0 0 1 5 18 12 10 5 5 5
8 5 2 4 5 5 4 0 8 59 64 40 9 98 100 100 100 98 100 100 8 0 0 0 0 3 14 4 0 0 0 1 5 5 5 0 0 4 5 5 5 5 5
100 100 54 5 4 5 5 11 49 68 100 100 100 84 100 100 100 100 100 99 18 11 3 1 0 0 0 0 3 4 1 5 5 5 5 5 4 2 2 5 5 5 37
100 100 100 90 87 43 5 28 58 8 17 100 31 17 41 99 100 100 100 94 32 33 51 26 26 8 0 1 4 5 5 0 4 5 28 98 96 50 31 16 7 7 8
45 77 99 100 100 84 5 5 5 95 26 6 77 69 24 47 100 100 100 100 72 97 46 98 23 46 25 0 0 0 2 5 5 8 16 78 100 87 100 100 100 80 87
4 5 5 5 5 5 33 32 5 5 95 6 17 61 28 17 6 71 100 100 100 100 100 100 88 96 100 8 0 4 5 5 5 5 13 54 100 100 86 61 57 75 93

GFSSE_prec_cloud_021.txt.gz
Cloud_Cover
47 6 40 46 53 65 10 71 50 90 41 16 6 28 30 15 5 4 4 5 5 3 11 7 17 48 69 25 5 0 0 0 0 0 0 0 0 0 2 2 0 0 0
9 11 12 83 94 71 13 89 5 12 38 7 5 16 40 64 5 5 5 5 5 2 87 100 99 96 79 5 0 0 0 0 0 0 0 0 0 0 0 0 0 0 0
7 14 5 40 77 19 21 11 5 5 5 5 5 13 6 12 17 5 5 5 0 4 100 100 100 76 15 0 0 0 0 0 0 0 0 0 0 0 0 0 0 0 0
5 5 35 23 7 1 3 0 0 2 5 5 5 13 12 6 0 2 2 3 0 24 100 68 30 10 0 0 0 0 0 0 0 0 0 0 0 0 0 0 0 0 1
60 5 5 28 5 3 0 5 4 5 4 36 6 4 4 3 2 0 0 0 3 0 0 0 0 0 0 0 0 0 0 0 0 0 0 0 0 8 2 0 0 0 1
54 5 5 82 5 0 5 76 5 5 6 15 0 0 0 0 0 0 0 0 0 4 1 2 0 0 0 0 0 0 2 0 0 0 0 0 0 0 0 0 0 5 5
45 5 6 4 5 3 0 5 5 5 6 7 4 1 0 0 0 0 0 0 0 1 7 16 14 16 19 5 0 2 1 1 5 5 2 2 2 8 6 8 76 93 73
43 32 16 5 5 5 5 6 12 5 1 0 0 2 0 3 0 0 0 0 0 0 3 2 16 15 2 0 0 5 5 1 17 9 12 5 5 7 70 48 29 40 99
28 28 9 5 5 5 5 5 36 15 0 0 0 0 0 0 2 0 0 2 0 0 0 78 3 4 0 0 0 0 2 5 5 1 40 25 28 81 26 86 32 5 27
24 17 7 5 5 5 5 5 44 0 5 0 0 0 0 1 48 0 0 0 0 0 0 0 0 0 0 2 5 5 3 21 5 5 5 34 98 96 91 98 99 98 92
16 20 23 21 14 59 6 0 4 4 1 5 6 0 1 2 0 5 0 0 0 0 0 0 0 0 0 0 0 4 1 13 5 12 77 65 93 97 60 87 72 62 84
62 37 31 36 31 22 5 6 5 5 5 1 5 2 0 4 5 5 5 5 5 0 0 0 0 0 0 2 5 2 2 34 63 84 19 5 10 26 72 100 100 100 94
24 35 34 45 36 22 5 10 25 24 21 18 3 2 0 16 24 36 30 27 17 5 0 0 0 0 0 0 2 17 58 35 8 4 5 3 9 11 100 100 78 51 45
43 20 5 30 45 30 5 21 10 7 19 36 24 2 3 23 33 42 41 28 20 5 3 0 0 0 0 0 0 5 5 2 0 0 0 0 14 14 6 5 5 46 49
64 38 17 21 47 36 20 31 21 6 10 81 27 18 10 4 31 29 28 31 18 5 5 5 0 0 0 0 0 0 0 0 0 0 0 0 0 0 0 0 0 0 4
9 29 9 38 28 29 30 43 9 0 4 5 6 7 0 0 9 21 27 30 4 5 5 5 5 5 3 0 0 0 0 0 0 0 0 0 0 0 0 0 0 0 0
39 8 6 20 8 21 33 33 6 5 5 3 2 0 0 0 0 10 16 0 0 5 0 5 5 1 0 0 0 0 0 0 0 0 0 0 0 0 0 5 5 5 5
5 5 5 5 19 27 47 30 29 5 8 4 1 0 0 0 0 0 0 0 3 5 4 4 0 0 0 0 0 0 0 0 0 0 0 0 0 0 3 5 5 20 100
5 5 6 5 5 16 62 27 6 5 4 5 5 4 0 3 0 2 1 0 0 0 13 0 0 0 0 0 0 0 0 0 0 0 0 0 0 0 0 5 5 18 99
9 4 2 5 5 5 44 56 58 54 99 85 100 22 32 77 8 5 5 5 5 5 2 0 0 0 0 0 0 0 0 0 0 0 0 0 0 0 0 0 4 16 5
92 18 5 5 7 6 86 100 100 81 6 5 3 6 13 82 50 16 77 18 78 81 16 5 3 0 0 0 0 0 0 0 0 0 0 0 0 1 5 5 4 2 0
100 97 52 25 5 46 19 24 5 7 5 5 4 43 100 100 96 95 100 100 96 100 69 11 5 1 0 0 0 0 0 0 0 0 0 0 0 3 5 5 5 10 15
100 100 96 80 35 24 62 44 59 46 50 94 28 24 99 35 98 100 100 100 100 100 90 23 5 4 3 0 0 0 0 0 0 0 0 0 0 5 5 36 41 72 100
100 100 100 100 100 100 100 100 100 100 15 7 5 5 41 75 94 100 100 100 100 100 100 53 5 5 1 1 5 3 0 0 0 0 0 0 0 4 1 4 20 65 97
67 99 100 100 100 94 100 65 56 26 20 8 25 11 76 40 15 96 100 100 100 100 100 100 22 8 6 5 5 5 0 0 0 0 2 4 5 5 5 0 0 4 5
59 11 11 38 75 73 73 75 53 36 68 44 78 6 80 58 92 41 99 100 100 100 79 100 100 40 99 66 57 49 48 0 0 5 5 5 5 5 5 2 0 0 3

GFSSE_prec_cloud_024.txt.gz
Cloud_Cover
38 12 100 38 42 100 95 95 43 6 5 34 55 95 100 37 5 5 5 5 5 5 5 5 97 40 14 82 38 0 0 0 0 0 0 0 0 0 0 0 0 0 18
5 6 60 54 100 100 100 100 25 4 19 5 8 24 91 21 5 5 5 5 5 5 91 82 86 94 23 18 0 0 0 0 0 0 0 0 0 0 0 0 0 0 0
7 5 39 93 100 100 81 69 37 81 80 10 91 18 45 19 5 4 5 5 5 51 10 39 97 22 0 0 0 0 0 0 0 0 0 0 0 0 0 0 0 0 0
8 5 65 100 63 23 18 4 44 48 93 35 11 13 7 12 1 2 0 0 0 88 42 87 34 5 0 0 0 0 0 0 0 0 0 0 0 4 0 0 0 0 0
17 10 31 68 42 9 14 22 5 7 6 18 5 10 8 1 0 0 0 0 0 4 0 0 0 0 0 0 0 0 0 0 0 0 0 0 0 15 0 0 0 0 0
40 5 75 10 82 12 5 5 5 5 1 50 19 4 5 5 4 0 0 0 0 0 0 0 0 3 8 11 0 0 0 0 0 0 0 0 0 7 0 1 5 3 0
45 6 4 10 87 5 5 5 5 27 100 21 0 0 0 0 0 0 0 0 13 3 2 6 5 1 6 3 0 0 0 0 0 0 0 0 3 6 0 2 8 18 18
44 15 6 40 38 5 5 5 5 5 12 34 0 0 0 0 0 0 0 0 0 9 8 12 22 12 0 0 0 0 0 0 0 0 0 0 0 0 0 2 5 5 19
74 50 6 5 5 5 6 5 5 5 18 0 9 0 0 0 0 0 0 0 0 3 0 0 12 0 0 0 0 0 0 0 0 4 3 0 0 17 3 1 5 14 70
73 36 55 65 47 49 5 5 5 63 5 5 0 62 0 1 0 0 0 0 0 6 0 0 0 0 0 0 0 0 0 0 0 0 0 1 0 3 3 3 26 59 64
100 65 50 39 25 6 6 5 23 13 5 5 13 8 0 0 32 5 5 1 0 13 0 0 0 0 0 0 0 0 0 0 0 1 0 0 2 9 19 17 46 92 64
100 98 63 50 52 34 5 5 33 5 4 5 5 5 3 2 0 5 5 5 5 1 0 0 0 0 0 0 0 0 0 0 0 2 5 5 5 14 66 67 87 95 100
100 100 100 99 48 40 43 22 27 28 22 19 6 5 5 26 24 21 27 26 18 5 4 5 0 0 0 0 0 0 0 0 0 0 0 0 1 0 100 92 98 58 0
53 66 65 96 67 51 17 25 13 18 24 28 26 56 39 45 48 94 71 39 26 4 5 5 5 0 0 0 0 0 0 0 0 0 0 0 0 0 0 0 0 0 0
43 67 26 74 96 83 31 36 21 9 18 10 24 14 5 30 50 89 60 41 28 4 5 5 3 5 5 5 0 0 0 0 0 0 0 0 0 0 0 0 0 0 0
7 28 46 47 100 93 59 56 31 15 3 12 27 22 7 5 29 42 47 38 30 0 1 3 0 2 5 3 0 0 0 0 0 0 0 0 0 0 0 0 0 0 0
34 5 18 28 55 89 81 50 38 11 5 3 6 15 12 1 4 20 34 38 8 0 0 0 0 4 5 0 0 0 0 0 0 0 0 0 0 0 0 0 0 0 0
44 17 5 20 68 74 85 73 56 23 6 5 5 5 15 4 4 14 24 17 0 0 0 0 5 1 0 0 0 0 0 0 0 0 0 0 0 0 0 0 0 0 0
99 82 55 21 24 66 99 75 70 42 24 6 5 8 69 50 8 86 14 5 2 0 0 4 1 1 0 0 0 0 0 0 0 0 0 0 0 0 0 0 0 0 0
100 100 100 96 43 33 54 100 100 99 58 42 5 14 50 5 10 10 5 5 4 0 0 5 1 4 5 2 4 0 0 0 0 0 0 0 0 0 0 0 0 0 0
100 100 100 100 100 92 100 100 100 100 100 84 19 5 6 12 16 5 0 0 4 5 5 62 6 5 5 5 5 5 0 0 0 0 0 0 0 0 0 0 0 0 1
100 100 100 100 75 29 73 100 100 76 100 96 100 100 5 5 5 5 26 4 51 68 100 100 70 5 5 2 1 0 3 3 0 0 0 0 0 0 0 0 0 0 0
100 100 100 100 100 100 100 100 100 100 100 100 89 58 54 19 14 6 46 37 83 100 100 100 100 19 5 35 5 8 3 0 0 0 0 0 0 0 0 0 0 0 0
66 100 100 100 100 100 100 100 100 100 100 100 100 94 98 58 44 52 16 78 100 100 100 100 100 63 50 51 27 5 5 5 5 5 5 0 0 0 0 0 0 0 0
70 92 100 100 100 100 100 99 94 100 100 100 100 99 77 100 96 100 73 98 98 100 100 100 100 100 100 97 31 13 8 5 5 5 5 5 5 0 0 0 0 1 0
21 55 82 99 99 100 100 87 86 90 100 100 100 100 98 56 83 95 99 90 96 100 100 100 100 100 100 100 100 83 100 20 5 5 5 5 5 5 5 2 4 5 5

GFSSE_prec_cloud_027.txt.gz
Cloud_Cover
2 3 77 100 100 100 22 9 6 7 5 6 73 100 95 27 6 0 3 5 2 1 1 30 55 62 92 93 4 1 0 10 1 11 10 0 5 1 2 0 0 0 0
3 0 100 100 99 84 83 17 5 5 16 5 6 7 100 54 5 5 6 2 0 4 98 86 30 10 65 3 0 0 0 0 0 0 0 0 0 0 0 0 0 0 19
2 5 39 78 100 100 100 98 28 11 6 3 16 13 100 22 5 5 5 0 1 8 16 97 100 34 1 0 0 0 0 0 0 0 0 0 0 0 0 0 0 0 0
11 2 2 100 100 100 92 39 88 92 95 27 14 22 24 16 0 0 0 0 0 1 0 0 7 0 0 0 0 0 0 0 0 0 0 0 0 2 0 0 0 0 0
13 0 4 100 100 98 10 40 97 100 79 97 8 1 21 0 5 4 2 0 2 0 0 1 0 0 0 0 1 0 0 0 0 0 0 0 3 14 1 0 0 0 0
34 5 6 90 9 5 5 5 7 53 25 5 5 5 5 5 1 5 5 5 4 5 0 0 0 0 7 6 2 0 0 0 0 0 0 0 0 0 0 0 0 0 6
32 5 3 42 88 6 5 1 4 5 100 62 11 0 2 1 2 0 0 2 1 0 0 0 2 7 8 0 0 0 0 0 0 0 0 0 0 9 2 1 4 1 11
46 14 5 22 2 5 5 5 2 22 100 100 0 3 5 5 1 0 0 9 19 1 4 10 28 1 0 0 0 0 0 0 0 0 0 0 0 0 0 0 0 0 12
66 51 33 50 76 5 5 5 5 10 15 17 3 0 2 1 5 0 0 2 2 0 1 38 3 0 0 0 0 0 0 0 0 0 0 0 0 0 0 0 0 4 7
80 48 30 11 5 10 6 5 5 5 5 25 98 4 0 0 0 0 0 0 0 3 4 0 0 0 0 0 0 0 0 0 0 0 0 0 0 7 23 91 27 90 98
100 90 69 40 7 21 13 5 5 5 5 5 9 43 10 2 13 0 5 4 2 12 0 0 0 0 0 0 0 0 0 0 0 0 0 0 79 20 25 74 56 65 61
100 100 100 59 53 43 40 39 50 5 11 24 5 20 29 4 14 12 1 5 5 3 1 3 0 0 0 0 0 0 0 0 0 0 0 4 3 1 0 5 1 3 9
100 100 100 100 100 56 46 40 8 14 97 60 5 5 5 5 6 49 32 47 34 2 5 4 5 4 0 0 0 0 0 0 0 0 0 0 0 2 0 1 0 0 0
100 100 100 100 100 70 40 8 5 7 28 9 9 6 5 5 36 58 47 60 51 0 3 4 1 0 4 4 4 0 0 0 0 0 0 0 0 0 0 0 0 0 0
97 100 100 100 100 100 58 62 5 5 5 5 6 11 2 5 83 48 100 82 48 0 0 4 4 0 3 2 5 5 0 0 0 0 0 0 0 0 0 0 0 0 0
6 24 79 79 100 100 92 63 42 9 5 8 3 5 5 4 36 55 100 97 53 2 0 0 1 0 0 0 1 4 0 0 0 0 0 0 0 0 0 0 0 0 0
5 1 21 47 91 100 100 84 45 4 3 7 6 5 4 3 5 56 73 90 44 5 4 0 0 0 0 0 2 0 0 0 0 0 0 0 0 0 0 0 0 0 0
5 5 5 23 92 100 100 100 100 56 36 67 80 58 11 5 6 28 53 63 17 5 5 0 0 0 0 0 1 0 0 0 0 0 2 0 0 0 0 0 0 0 0
24 36 17 74 47 92 100 100 100 100 72 36 92 100 57 46 30 17 70 62 16 5 0 1 2 5 0 0 0 0 3 0 0 0 0 0 0 0 0 0 0 0 0
100 100 98 31 65 16 88 100 100 100 100 98 67 54 34 44 23 85 85 21 5 5 5 5 5 5 1 0 0 5 5 5 0 0 0 1 0 0 0 0 0 0 0
98 100 100 100 100 65 67 96 100 100 100 100 100 45 15 48 99 39 5 6 19 20 5 5 5 10 1 4 5 5 5 5 5 5 2 4 0 0 0 0 0 0 0
100 100 100 100 100 100 100 100 100 100 100 100 100 99 60 52 17 6 37 80 38 48 24 17 6 99 5 5 12 40 5 5 5 5 5 3 0 0 4 3 0 0 0
94 100 100 100 100 100 100 100 100 100 100 100 100 100 99 81 89 20 6 21 14 44 68 100 100 100 80 26 100 99 69 31 8 37 11 5 5 5 5 5 5 4 4
33 98 100 100 100 100 100 100 100 100 100 100 100 97 100 100 100 84 94 85 99 74 100 100 100 100 100 100 100 100 100 100 61 100 98 100 56 29 5 5 5 5 4
33 74 70 99 100 100 100 100 99 100 100 100 100 100 100 100 100 100 100 100 100 99 100 100 100 100 100 100 100 100 100 100 100 100 100 98 91 100 17 5 5 5 5
6 6 52 70 78 35 42 38 54 41 64 97 100 100 100 100 100 100 100 100 100 100 100 100 100 100 100 100 100 100 100 100 100 100 100 100 100 100 84 71 5 5 5

GFSSE_prec_cloud_030.txt.gz
Cloud_Cover
5 5 19 64 100 13 9 6 5 4 9 42 15 17 40 19 16 17 5 5 5 7 6 63 43 32 42 6 2 5 66 89 13 4 1 9 2 0 0 0 0 0 0
0 3 11 56 100 87 1 5 13 5 54 5 56 75 100 48 16 22 4 0 0 2 43 40 8 1 1 0 0 0 0 0 0 0 0 0 0 0 0 0 0 0 14
0 0 60 100 81 95 88 0 2 0 80 19 13 6 25 56 21 16 0 0 3 52 28 76 22 0 0 0 0 0 0 0 0 0 0 0 0 0 0 0 0 0 0
0 0 5 100 100 92 78 29 36 28 49 2 15 56 98 20 9 0 0 0 18 22 28 91 7 0 0 0 0 0 0 0 0 0 0 0 0 0 0 0 0 0 0
0 0 8 100 100 100 33 97 99 12 45 41 10 26 20 5 4 1 2 31 19 1 0 0 0 0 0 0 2 4 4 0 0 0 0 1 6 0 0 0 0 0 0
0 0 4 100 100 99 5 100 100 33 100 98 0 5 5 5 5 6 4 4 2 2 2 4 5 5 5 5 5 0 0 0 0 0 0 0 0 0 0 9 13 1 48
4 3 10 100 59 44 5 35 99 100 86 14 1 0 0 5 5 4 1 4 4 5 5 5 10 2 0 0 0 0 0 0 0 0 0 0 0 0 0 0 0 15 18
30 5 14 88 4 5 5 5 15 30 49 26 2 2 3 2 3 1 0 0 0 2 6 25 13 0 0 0 0 0 0 0 0 0 0 0 0 0 0 0 0 14 18
15 91 5 6 5 51 95 5 5 0 100 99 5 0 0 1 5 0 8 17 7 1 15 21 0 0 0 0 0 0 0 0 0 0 0 0 0 0 0 0 7 17 8
35 21 5 5 5 57 64 8 5 27 97 96 5 4 4 0 0 0 0 2 0 7 12 0 0 0 0 0 0 0 0 0 0 0 0 0 1 51 74 44 70 67 86
99 45 16 5 5 5 9 8 5 5 70 96 98 5 1 0 0 0 0 0 0 0 0 0 0 0 0 0 0 0 0 0 0 0 0 17 64 15 57 84 90 85 66
100 100 100 47 13 10 50 19 6 5 5 5 72 37 5 38 38 5 4 0 0 0 0 1 0 0 0 0 0 0 0 0 0 0 6 42 11 17 10 6 9 0 0
100 100 100 47 48 47 50 47 9 41 45 25 49 89 87 80 70 29 69 6 4 11 0 0 0 0 3 0 0 0 0 0 0 0 1 0 2 33 0 0 0 0 0
100 100 100 100 69 83 100 100 100 100 98 92 66 74 58 53 100 95 72 79 88 30 4 0 0 2 5 1 0 0 0 0 0 0 5 0 0 0 0 0 0 0 0
79 100 100 100 100 92 82 95 100 98 98 82 6 21 30 20 24 59 100 86 100 94 2 0 0 0 0 5 0 0 0 0 0 0 0 0 0 0 0 0 0 0 0
100 55 57 100 100 93 100 89 43 25 22 28 23 28 16 29 6 20 100 42 94 82 29 0 0 0 0 1 0 0 0 4 0 0 0 0 0 0 0 0 0 0 0
9 2 2 38 71 64 62 15 71 70 38 0 0 0 5 5 4 5 78 77 99 96 27 2 0 0 1 0 0 0 0 0 0 0 0 0 0 0 0 0 0 0 0
5 5 5 5 8 63 100 100 68 60 43 30 5 10 11 5 5 5 22 100 95 91 5 5 5 5 5 5 5 5 3 0 2 5 0 0 0 0 0 0 0 0 0
5 5 5 5 5 5 80 100 100 97 49 12 24 11 16 16 5 9 34 60 98 73 17 7 7 5 5 11 6 5 8 21 4 0 0 0 0 0 0 0 0 0 0
50 5 5 5 5 3 8 100 100 100 100 38 28 22 34 34 44 55 99 100 84 67 59 36 57 49 16 98 97 36 6 14 5 5 5 5 5 3 4 0 0 0 0
100 100 100 92 98 7 5 60 100 100 100 100 100 100 100 100 81 92 65 48 69 63 47 36 44 93 61 96 72 14 17 98 24 6 6 6 5 5 5 5 5 4 5
68 91 100 100 100 100 99 100 75 92 99 100 100 100 100 100 74 64 64 78 100 88 10 15 17 76 71 9 59 99 91 100 100 94 100 52 50 35 46 30 64 14 3
7 26 74 79 99 100 100 100 100 100 100 63 90 100 100 86 53 87 100 100 100 68 27 14 64 66 42 70 99 93 100 100 100 100 100 94 72 100 100 100 74 20 23
68 99 99 100 100 100 100 100 100 100 100 100 98 72 76 100 100 100 100 100 100 100 100 100 100 100 100 100 100 100 100 100 100 100 100 100 100 100 100 100 100 100 100
38 5 7 71 100 100 100 100 77 72 91 90 84 72 46 100 100 100 100 100 100 100 100 100 100 100 100 100 100 100 100 100 100 100 100 100 100 100 100 100 100 100 100
5 5 13 39 52 87 86 53 74 45 41 60 100 100 100 100 100 100 100 100 100 100 100 100 100 100 100 100 100 100 100 100 100 100 100 100 100 100 100 100 100 100 100

GFSSE_prec_cloud_033.txt.gz
Cloud_Cover
5 5 5 5 3 2 2 8 8 3 4 5 46 13 18 17 5 5 5 5 20 5 6 12 5 9 2 0 1 30 0 16 44 52 17 0 8 1 0 0 0 4 0
4 0 0 9 22 0 39 4 5 5 17 62 85 66 34 8 16 0 2 4 5 6 49 7 6 0 0 0 0 1 0 0 0 0 0 0 0 0 0 0 0 0 0
4 5 1 46 99 8 3 15 0 8 7 13 81 5 0 59 16 0 0 0 54 8 61 24 14 0 0 0 0 0 0 0 0 0 0 0 0 0 0 0 0 0 0
2 2 5 38 97 100 0 16 97 100 100 83 0 14 100 24 2 0 0 1 54 90 66 43 0 0 0 0 0 0 0 0 0 0 0 2 14 0 0 0 0 0 0
5 5 5 4 99 100 69 11 19 85 1 15 0 30 17 2 0 0 16 32 23 0 0 0 0 0 0 0 0 1 2 1 0 2 14 9 69 0 0 10 14 1 0
5 5 5 100 100 100 85 100 100 100 58 100 0 0 0 0 0 1 8 0 0 0 0 0 0 0 0 4 0 0 0 0 0 23 30 0 5 0 6 7 0 17 19
0 8 5 100 100 98 100 100 100 100 100 88 0 0 0 5 0 11 15 0 0 0 0 1 7 0 0 0 0 1 0 0 9 20 27 2 0 0 0 0 5 9 37
2 14 24 100 80 8 7 39 86 100 100 35 0 0 0 0 0 0 0 0 0 0 7 19 0 0 0 0 0 0 0 0 5 2 0 0 0 0 0 0 6 24 16
27 5 6 8 7 41 5 10 41 87 98 55 1 0 0 0 0 0 0 1 7 0 27 0 0 0 0 0 0 0 0 0 0 0 0 0 0 0 0 0 27 18 17
44 28 36 32 5 5 5 5 5 5 62 100 2 0 0 0 0 0 0 3 9 9 13 0 0 0 0 0 0 0 0 0 0 0 0 0 2 10 14 21 76 60 59
14 52 46 13 5 4 6 8 5 33 100 100 90 0 0 2 0 0 0 0 0 1 0 0 0 0 0 0 0 0 0 4 0 0 0 0 4 76 75 88 95 30 80
98 47 8 8 5 7 15 8 5 12 29 100 100 11 4 5 5 0 5 5 5 2 5 2 3 0 0 0 3 0 2 0 0 0 0 0 3 92 66 5 3 4 0
100 100 55 16 14 10 12 10 2 5 5 11 43 97 7 21 46 78 28 6 15 13 2 4 5 5 5 5 7 4 0 0 0 0 0 1 9 30 0 0 0 0 0
97 100 100 6 14 14 6 18 38 22 21 90 100 100 100 99 100 100 73 47 7 5 10 5 5 5 2 0 0 0 0 0 0 0 0 0 0 0 0 0 0 0 0
66 88 100 100 60 21 11 40 78 58 88 52 67 51 68 77 99 100 100 100 100 78 27 4 0 0 0 0 0 0 0 0 0 0 0 0 0 0 0 0 0 0 0
100 100 94 100 100 91 97 93 92 98 100 98 74 50 86 89 48 46 87 100 100 100 84 7 5 1 0 0 0 0 0 0 0 0 0 0 0 0 4 0 0 0 0
100 100 100 100 100 100 100 100 99 70 46 33 62 70 48 42 51 30 6 76 100 82 100 52 5 5 2 0 2 0 5 26 5 5 5 5 5 5 2 0 0 0 0
81 64 82 91 89 31 33 31 59 8 40 25 7 20 41 8 2 1 0 5 68 57 94 82 5 5 5 8 9 7 5 27 5 5 7 20 5 4 3 0 0 0 0
100 99 86 53 15 8 7 84 91 16 40 19 34 26 12 39 37 13 6 42 20 98 41 53 5 5 28 69 76 63 96 100 72 69 14 7 5 5 5 5 4 0 0
40 12 9 5 5 5 12 12 99 100 93 8 8 5 33 41 32 44 65 63 56 46 85 14 5 6 94 97 54 70 20 68 100 94 45 6 39 93 86 35 6 5 5
6 5 5 5 5 36 95 100 100 39 100 100 31 5 56 54 70 66 35 44 64 98 100 43 53 44 66 60 96 18 44 49 66 45 89 98 100 100 100 100 91 62 10
100 98 100 100 97 31 5 5 5 5 50 100 100 96 40 20 16 99 79 68 97 91 100 77 44 91 98 100 74 86 63 18 42 5 51 100 100 100 100 100 100 100 100
100 100 100 100 28 16 6 5 5 4 5 5 36 100 100 100 55 99 100 98 88 82 100 91 70 32 47 74 48 33 45 100 99 95 99 100 100 100 100 100 100 100 100
100 100 96 100 93 84 62 7 6 29 41 78 100 100 93 93 100 42 100 100 100 100 100 100 100 100 100 97 100 100 100 100 100 100 100 100 100 100 100 100 100 100 100
100 98 58 92 98 92 99 99 99 70 98 100 100 100 100 100 100 100 100 100 100 100 100 100 100 100 100 100 100 100 100 100 100 100 100 100 100 100 100 100 100 100 100
87 46 13 55 69 90 59 89 100 100 100 94 88 67 93 100 94 100 100 100 100 100 100 76 50 52 72 94 100 100 100 100 100 100 100 100 100 100 100 100 100 100 100

GFSSE_prec_cloud_036.txt.gz
Cloud_Cover
0 0 0 0 1 5 5 5 5 5 56 12 13 25 11 4 0 0 0 0 5 5 13 5 14 5 1 0 0 0 0 71 93 54 29 0 0 0 0 0 0 0 0
0 0 0 3 3 5 5 5 5 5 10 16 47 63 6 6 5 0 3 0 1 45 8 2 0 0 0 0 0 0 0 0 0 0 0 0 0 0 0 0 0 0 0
0 0 0 3 5 5 59 5 1 4 91 64 96 5 0 20 0 0 0 2 7 6 15 12 0 0 0 0 0 0 0 0 0 0 0 0 0 0 0 0 0 0 0
0 0 0 93 67 2 1 5 11 98 97 55 35 5 52 14 0 0 3 44 74 65 38 0 0 0 0 0 0 0 0 0 0 7 98 100 0 0 0 6 0 0 0
0 0 3 57 100 97 0 22 94 94 100 80 0 0 9 0 0 0 33 36 6 0 0 0 0 0 0 0 0 0 0 0 0 4 0 39 0 0 1 1 1 2 2
0 0 11 5 40 100 4 25 30 100 94 99 0 0 0 3 0 12 23 0 0 0 0 0 0 0 0 0 0 0 0 0 0 76 0 0 0 4 7 0 0 64 88
5 56 21 53 100 55 7 5 78 96 64 61 0 0 0 1 4 6 7 0 0 0 0 0 0 0 0 0 0 0 0 0 0 4 0 0 0 0 0 0 3 14 82
6 75 100 90 100 83 38 5 55 43 99 97 0 0 1 5 0 8 1 0 0 0 5 1 0 0 0 0 0 0 0 0 0 0 0 0 0 0 0 0 10 17 87
18 82 97 86 49 13 79 32 96 97 100 97 0 3 0 1 2 5 1 0 0 13 15 0 0 0 0 0 0 0 0 0 0 0 0 0 0 0 1 0 10 27 12
5 5 100 100 95 48 18 5 89 100 100 98 5 4 0 4 5 5 0 0 2 1 0 0 0 0 0 0 0 0 0 0 0 0 0 1 0 16 8 9 35 44 50
5 25 5 5 5 58 23 19 5 16 100 100 10 4 0 0 4 1 0 3 2 0 0 0 5 5 5 1 0 0 0 5 3 0 0 0 21 100 98 95 100 90 4
19 9 48 5 5 5 8 14 23 5 79 99 100 5 5 5 3 0 0 4 5 5 5 5 5 5 5 5 5 5 5 5 0 0 0 0 0 93 77 91 49 21 0
5 5 5 13 12 33 5 0 5 5 5 8 7 5 4 5 5 5 5 10 7 9 86 84 33 16 5 5 5 5 3 0 0 0 0 0 8 43 16 0 0 0 0
95 95 5 28 50 16 6 6 5 5 5 7 5 8 5 16 6 5 5 8 5 5 7 6 29 23 38 39 5 4 0 0 0 0 0 0 1 0 0 0 0 2 2
100 100 100 96 94 45 20 66 62 86 55 5 13 5 5 26 92 69 77 54 91 45 14 5 5 5 4 2 0 0 0 0 0 5 1 5 5 5 5 5 3 5 5
100 100 98 100 83 82 62 66 67 76 40 7 20 62 99 100 87 79 57 44 5 18 92 31 5 5 4 1 5 4 0 2 3 5 7 8 5 5 5 5 4 5 5
100 100 100 100 100 99 86 64 53 5 67 99 100 100 100 100 76 13 5 7 0 1 99 100 55 5 5 5 5 5 4 6 5 28 98 17 12 5 17 10 6 5 5
100 100 100 100 100 100 100 100 100 100 100 100 100 98 42 5 19 2 0 0 0 0 100 96 100 18 5 5 20 30 6 5 12 14 57 100 28 5 92 100 100 22 31
100 100 100 100 100 100 100 100 100 100 75 85 47 19 5 45 39 5 0 4 0 2 8 62 71 94 97 100 100 99 96 80 5 6 65 36 94 16 98 90 86 100 100
100 79 100 100 100 100 74 74 58 6 6 5 37 62 100 100 17 0 0 0 1 4 5 5 25 100 14 68 60 74 100 81 47 82 100 92 64 84 23 14 52 100 100
38 7 5 23 8 7 5 15 9 5 5 59 100 59 42 63 22 5 1 3 0 5 5 16 70 58 65 82 100 100 79 100 100 100 99 79 15 5 72 66 55 100 100
100 97 72 51 29 50 10 5 23 94 55 18 5 4 1 3 72 92 25 7 29 13 92 99 100 100 34 5 15 16 37 56 56 14 14 41 73 83 84 100 100 100 100
100 99 94 48 29 98 55 5 13 40 65 65 3 0 0 0 0 0 65 93 75 98 100 100 100 100 97 76 80 84 87 100 100 100 100 100 100 100 100 100 100 100 100
100 100 100 100 96 25 7 92 86 44 11 7 5 18 36 6 5 3 4 28 5 90 100 100 41 100 100 100 88 100 100 100 100 100 100 100 100 100 100 100 100 100 100
100 100 100 100 100 100 100 100 68 5 5 5 5 5 81 100 98 49 47 25 63 100 100 100 100 98 100 100 100 99 100 87 90 98 98 100 100 100 100 100 100 100 100
100 100 100 100 100 98 81 67 49 5 5 5 5 5 18 19 90 98 99 100 100 100 100 100 100 100 100 100 70 40 91 95 64 77 100 100 100 100 100 100 100 100 100

GFSSE_prec_cloud_039.txt.gz
Cloud_Cover
48 1 35 16 5 2 5 5 5 5 3 14 42 5 29 4 0 0 0 0 4 2 2 46 3 0 0 0 0 0 0 12 3 0 0 0 0 1 4 0 0 0 0
11 4 2 0 0 1 1 5 4 4 3 0 10 33 2 0 0 0 0 0 4 19 0 0 1 0 1 0 0 0 0 0 0 0 0 0 0 0 0 0 0 0 0
4 0 0 0 0 0 0 0 0 5 5 10 43 0 18 3 0 0 4 0 13 30 75 0 0 0 0 0 0 0 0 0 0 0 0 0 0 0 0 0 0 0 0
0 0 0 0 5 0 0 1 5 5 5 5 0 0 11 0 0 6 34 36 65 33 0 0 0 0 0 0 0 0 0 0 0 4 0 0 0 1 13 0 0 2 0
0 0 0 1 2 0 5 5 52 92 46 12 0 0 0 0 0 89 68 89 8 0 0 0 0 0 0 0 0 0 0 0 0 0 0 0 0 1 6 17 5 38 60
0 2 51 100 48 2 0 22 81 88 96 0 0 0 0 0 1 58 42 0 0 0 0 0 0 0 0 0 0 0 0 0 0 0 0 0 0 1 16 22 99 9 28
0 5 5 12 58 2 5 27 16 11 12 1 1 5 5 0 0 8 1 0 0 3 0 0 0 0 0 0 0 0 0 0 0 0 0 0 0 0 0 1 16 82 92
0 4 5 16 94 10 5 72 62 5 39 5 5 0 2 1 23 12 0 1 0 2 2 0 0 0 0 0 3 4 5 2 0 0 0 0 0 0 5 0 10 36 100
2 3 0 5 12 93 69 51 88 16 17 5 0 0 1 4 0 11 3 2 4 9 0 0 0 0 4 5 4 5 1 0 0 0 3 5 5 5 0 2 14 93 9
0 5 21 6 5 44 78 30 91 100 91 7 4 3 0 0 2 4 1 3 0 97 0 3 5 0 0 5 5 5 5 5 5 5 5 5 5 3 15 34 44 59 7
1 5 5 17 57 55 99 94 100 100 99 91 87 100 93 6 5 2 2 0 0 1 0 0 0 0 5 5 5 5 8 5 5 2 2 0 1 17 95 65 100 100 16
5 5 5 5 5 63 86 100 100 93 6 16 72 61 80 40 6 5 1 0 3 5 4 0 0 4 5 5 5 5 5 3 0 0 0 0 2 74 24 95 100 56 0
33 5 0 5 5 5 43 11 12 22 30 5 5 5 5 4 5 5 11 23 17 5 4 5 5 11 5 5 5 4 0 0 0 0 0 0 0 52 60 5 3 12 1
75 98 45 5 5 5 5 5 5 5 53 55 5 5 5 5 5 6 26 26 24 8 7 5 5 5 5 5 0 0 0 0 0 0 0 0 0 5 10 7 4 0 5
12 5 5 5 5 5 5 5 5 16 5 5 5 3 5 59 67 9 30 5 18 13 43 58 28 26 6 5 5 3 1 2 5 6 6 5 5 5 7 5 5 5 12
5 5 10 39 61 30 59 90 61 82 60 39 38 91 67 25 54 73 81 100 100 100 100 85 13 7 0 0 4 2 5 5 5 12 50 51 5 7 69 84 53 40 78
5 5 5 86 100 100 100 100 100 100 64 34 63 95 96 100 100 100 100 100 100 99 22 5 90 69 1 5 5 5 5 5 6 100 88 55 69 48 91 100 98 100 100
95 60 9 45 100 100 100 100 94 39 99 100 100 100 100 100 100 100 100 100 88 20 6 4 38 100 42 0 4 3 5 5 5 100 86 100 100 84 81 99 55 97 100
100 100 100 100 100 100 100 100 100 100 100 100 100 100 100 100 100 100 64 66 91 5 0 0 0 67 94 2 5 3 4 5 7 17 100 100 100 100 34 10 29 88 100
100 100 100 100 100 100 100 100 100 100 100 100 100 100 100 84 29 5 9 5 5 5 0 0 0 0 9 5 55 28 5 5 5 5 39 100 100 100 87 37 66 83 17
100 100 100 100 100 100 100 100 100 100 100 100 96 72 5 5 7 52 21 37 5 4 0 0 0 12 5 5 100 90 90 97 89 100 91 46 100 99 51 98 94 99 95
100 100 100 100 100 100 100 100 100 100 79 38 5 5 8 41 100 100 97 54 2 1 0 1 5 37 100 100 100 100 100 100 100 100 100 100 100 100 100 100 100 100 100
100 100 100 91 100 100 88 98 100 86 99 100 14 5 11 2 0 2 0 1 40 97 72 5 5 6 71 100 97 62 5 5 14 19 99 99 100 98 100 100 100 100 100
100 100 100 100 100 100 100 100 100 83 16 62 100 100 76 5 0 0 0 2 12 7 38 5 5 39 98 88 100 98 47 92 98 53 85 94 89 100 100 100 100 100 100
100 100 100 100 100 100 100 63 13 9 16 88 46 32 23 60 2 1 0 0 8 12 6 99 82 45 81 100 100 100 92 42 46 19 77 100 100 100 82 100 100 100 100
100 100 100 100 100 100 100 84 83 100 82 88 7 5 5 25 5 5 82 14 5 92 94 23 44 55 72 100 100 100 98 38 26 99 100 52 90 100 100 100 100 100 100

GFSSE_prec_cloud_042.txt.gz
Cloud_Cover
50 12 4 0 2 4 5 5 0 0 2 8 39 11 24 0 0 0 0 3 3 26 41 1 0 8 0 0 0 0 0 0 0 0 0 0 0 0 0 0 0 0 0
46 26 0 0 1 0 5 4 3 5 0 17 19 58 11 0 0 0 0 2 17 0 0 0 0 0 0 0 0 0 0 0 0 0 0 0 0 0 0 0 0 0 0
35 17 0 0 2 8 15 4 1 0 0 0 15 17 0 0 0 0 0 20 18 13 1 0 0 0 0 0 0 0 0 0 0 0 0 0 0 0 0 0 0 0 0
9 6 1 0 34 60 5 3 0 0 6 0 1 11 0 0 18 11 4 44 99 3 0 0 0 0 0 0 0 0 0 0 0 0 0 0 0 16 2 0 4 1 21
9 9 10 0 4 5 0 0 0 0 0 0 0 0 5 4 88 100 90 90 1 0 0 0 0 0 0 0 0 0 0 0 0 0 0 0 0 12 7 17 13 71 91
0 0 0 0 6 0 0 0 0 0 3 0 0 0 0 0 87 73 14 0 0 0 0 0 0 0 0 0 0 0 0 0 0 0 0 0 0 15 67 42 9 24 4
0 0 80 81 0 0 7 0 0 0 27 0 0 0 0 0 16 28 0 0 0 0 0 0 0 0 0 0 0 0 0 0 0 0 0 0 0 1 20 8 61 31 99
4 5 8 86 3 0 0 0 2 2 12 62 25 5 5 88 93 48 1 2 4 0 0 0 0 0 0 0 5 1 0 0 0 0 0 0 0 0 3 4 11 68 100
5 5 1 0 0 0 0 5 7 68 66 75 38 42 13 5 4 67 18 10 1 11 0 0 0 0 0 0 0 0 0 0 0 0 0 0 0 0 1 1 12 100 75
5 5 5 5 5 1 5 11 59 62 8 5 7 6 5 5 10 29 2 2 0 3 0 0 0 0 2 0 0 0 0 0 1 4 0 0 0 10 28 14 14 11 47
8 5 5 5 5 5 5 6 53 11 92 93 47 16 22 6 5 5 5 5 4 35 0 2 2 2 5 5 0 0 4 2 5 0 0 0 0 8 73 65 89 100 86
49 78 68 7 5 5 5 5 5 5 6 54 60 62 80 63 23 5 5 5 5 5 5 5 5 5 5 4 5 5 5 9 5 0 0 0 0 13 5 100 100 100 30
62 9 5 5 5 5 5 10 34 22 8 6 66 97 80 34 8 10 8 5 6 5 5 5 5 5 5 5 21 5 11 42 4 3 4 5 5 2 47 79 38 27 82
82 99 80 10 56 50 37 44 8 19 35 41 5 5 5 5 5 4 25 25 35 17 5 5 9 6 12 24 27 10 99 6 5 5 5 0 0 4 2 11 99 88 71
34 38 32 48 87 88 90 31 5 6 7 5 5 5 5 6 6 64 73 30 36 28 13 76 35 79 10 34 47 46 26 5 5 5 5 0 1 1 2 11 12 34 82
42 48 55 49 82 100 100 82 91 57 23 18 5 5 5 32 55 55 20 9 79 95 100 81 99 100 81 7 5 10 7 4 5 5 5 5 5 2 42 96 97 90 100
5 71 100 90 57 75 90 39 16 10 11 63 86 86 54 52 66 75 95 97 100 100 100 100 100 74 40 5 5 4 5 4 5 5 5 5 5 8 95 100 54 23 72
96 58 29 92 100 97 56 26 58 78 32 100 86 82 80 48 98 100 100 100 100 100 100 100 92 14 4 5 0 0 0 0 0 5 5 10 39 12 60 100 11 67 100
100 84 90 95 44 76 82 72 97 98 100 98 86 83 95 100 100 100 100 100 100 100 100 75 5 8 5 4 8 12 1 5 5 10 95 100 82 72 67 100 100 35 41
100 100 100 100 100 100 100 100 100 100 100 100 100 100 100 100 100 100 100 100 100 98 53 25 5 4 0 0 40 100 88 9 69 95 100 100 90 100 98 100 100 100 100
100 100 100 100 100 100 100 100 100 100 100 100 100 100 100 100 100 100 100 100 100 100 26 5 5 5 0 2 5 52 73 59 69 91 10 79 87 56 100 100 100 100 100
100 100 100 100 100 100 100 100 100 100 100 100 100 100 100 100 100 100 92 100 91 89 36 5 13 5 4 23 9 48 80 23 5 5 5 4 15 60 92 100 100 100 100
100 100 100 100 100 100 100 100 100 100 100 100 100 100 96 85 100 55 62 89 31 5 5 0 0 22 16 4 5 2 20 10 4 5 5 19 65 100 100 100 100 100 100
100 100 100 100 100 100 100 100 100 100 100 100 100 100 100 82 33 5 5 6 7 10 3 7 8 25 57 64 18 1 5 7 66 34 35 12 5 6 55 53 80 100 100
100 22 53 75 98 100 100 100 100 100 100 100 100 100 100 100 85 74 4 2 12 32 20 8 17 54 65 86 66 85 75 70 78 99 80 64 8 31 43 99 100 100 100
100 100 88 48 58 75 56 59 62 84 73 94 95 77 64 90 58 14 6 12 3 14 18 21 22 77 50 68 99 100 100 100 100 100 100 94 100 100 100 100 100 100 100

GFSSE_prec_cloud_045.txt.gz
Cloud_Cover
26 4 2 5 3 2 0 2 1 3 4 42 14 2 0 0 0 0 8 5 22 5 1 0 15 31 0 1 2 2 0 0 0 0 0 0 1 0 0 0 0 0 0
3 8 0 0 0 5 0 5 7 5 5 59 14 13 0 0 0 0 37 6 0 0 0 0 7 0 0 0 0 0 0 0 0 0 0 0 0 0 0 0 0 0 0
57 2 0 0 0 1 95 5 4 5 2 1 11 9 0 0 0 0 22 25 15 13 0 0 0 0 0 0 0 0 0 0 0 0 0 0 7 0 0 0 0 0 0
24 15 0 0 0 0 1 5 19 5 11 8 16 0 0 2 1 0 16 47 17 1 0 0 0 0 0 0 0 0 0 0 0 0 0 0 3 14 0 0 3 7 12
20 2 0 0 0 0 4 5 5 7 16 14 3 0 0 7 95 62 47 86 0 0 0 0 0 0 0 0 0 0 0 0 0 0 0 0 0 25 7 16 17 52 18
49 11 0 0 3 0 5 26 5 5 3 0 0 0 0 35 34 96 86 0 0 0 0 0 0 0 0 0 0 0 0 0 0 0 0 0 5 20 55 12 27 17 1
51 18 2 8 0 2 4 5 5 0 0 0 0 0 1 79 88 40 0 0 0 0 0 0 0 0 0 0 0 0 0 0 0 0 0 0 0 10 14 5 71 11 86
6 8 0 99 1 0 0 0 8 0 0 0 0 4 9 38 100 96 14 1 0 2 0 2 4 5 0 0 0 0 0 0 0 0 0 0 3 5 22 24 5 11 100
5 5 6 4 0 0 71 2 0 2 5 0 2 4 15 5 76 77 22 5 4 7 5 2 0 0 0 0 0 0 0 0 0 0 2 5 5 63 22 15 5 87 78
5 5 5 2 0 0 30 86 100 100 0 5 5 5 5 5 35 19 5 5 5 3 5 2 0 0 2 5 0 5 0 0 0 5 8 8 7 25 23 13 5 17 85
35 5 5 5 0 3 5 22 100 19 0 0 5 5 5 55 25 6 23 6 22 5 5 5 5 5 5 5 2 4 1 2 5 26 7 56 19 96 100 92 84 100 100
64 38 5 5 5 8 60 11 34 24 0 0 0 5 4 5 73 45 54 89 84 84 39 16 7 5 5 5 5 5 5 5 5 29 35 60 15 98 7 94 100 100 86
29 44 11 5 28 12 15 5 25 23 10 4 1 5 1 5 6 10 17 18 13 6 5 5 12 5 23 17 5 27 37 38 84 18 15 7 5 13 40 76 91 24 24
78 100 82 77 79 95 43 12 11 31 20 17 3 5 11 43 18 15 26 20 22 30 6 5 9 5 5 21 32 65 71 97 48 32 9 5 6 5 13 1 15 19 9
33 44 65 82 99 75 58 8 6 26 25 7 6 24 60 8 5 11 16 23 30 31 20 6 5 26 61 27 68 5 40 59 80 29 37 5 5 5 5 8 37 50 11
6 7 42 58 75 54 46 47 74 51 58 69 70 53 39 30 10 19 8 18 31 36 43 28 88 100 100 71 5 35 71 63 65 67 8 1 3 5 5 5 14 27 23
8 5 5 53 100 66 85 98 99 100 100 88 77 97 66 53 72 95 80 13 15 97 100 100 100 100 84 25 5 5 5 54 39 4 0 1 3 5 5 5 5 5 28
5 5 5 12 41 40 69 100 100 100 100 100 100 100 100 97 89 100 92 100 100 100 100 100 100 96 13 5 5 5 91 82 5 1 0 2 2 5 5 5 5 5 99
37 23 6 5 5 5 10 51 86 100 100 100 100 100 87 100 99 100 100 100 100 100 100 100 100 51 34 5 5 13 9 68 60 4 5 5 5 5 6 5 16 88 86
100 100 100 95 42 5 5 8 12 67 90 100 100 100 100 100 100 100 100 100 100 100 100 86 59 82 11 5 13 22 6 53 56 5 5 5 5 5 5 5 5 56 86
100 100 100 100 100 100 100 100 100 100 100 100 100 100 100 100 100 100 100 100 100 100 100 100 100 44 49 59 45 9 5 5 2 5 5 5 5 5 5 5 5 50 76
100 100 100 100 100 100 100 100 100 100 100 100 100 100 96 96 100 100 100 100 100 100 100 50 34 71 59 97 90 83 23 5 5 0 0 5 5 5 5 5 48 92 97
100 100 100 100 100 100 100 100 100 100 100 100 100 100 100 100 100 100 100 99 96 98 56 13 5 37 42 29 32 96 100 51 15 5 6 4 4 5 5 50 10 83 99
100 100 100 100 100 100 100 100 100 100 100 100 100 100 100 100 100 81 84 81 56 37 24 18 10 14 50 100 72 70 82 100 100 94 77 68 65 89 10 100 97 100 100
100 100 100 100 100 100 100 100 100 100 100 100 100 100 90 85 22 65 22 29 28 29 19 55 36 50 63 99 100 99 100 100 97 100 100 80 100 22 86 70 89 50 100
100 100 100 100 100 100 100 100 100 100 100 100 100 100 100 100 98 59 74 75 24 30 29 24 43 51 81 99 100 95 97 92 100 100 89 84 99 54 81 53 25 89 100

GFSSE_prec_cloud_048.txt.gz
Cloud_Cover
81 42 5 1 6 1 2 4 8 8 92 100 14 0 0 1 2 4 1 10 3 13 6 61 100 28 10 16 21 2 0 0 0 0 0 0 0 0 0 0 0 0 0
14 5 1 0 5 4 5 2 1 5 0 99 23 0 0 0 0 13 2 3 5 0 0 3 14 0 0 0 2 0 0 0 0 0 0 0 0 0 0 0 0 0 16
5 4 5 0 2 4 5 5 5 5 2 0 4 5 0 0 0 20 8 13 9 1 0 0 1 0 0 0 0 0 0 0 0 0 0 2 58 0 0 0 0 0 2
13 1 6 0 0 0 0 5 5 5 8 10 13 5 1 0 1 11 18 23 14 0 0 0 0 0 0 0 0 0 0 0 0 0 0 0 36 0 0 10 25 2 5
24 18 8 0 0 0 0 0 4 15 5 7 8 3 2 4 4 7 15 30 0 0 0 0 0 0 0 0 0 0 0 0 0 0 0 0 6 20 8 16 37 34 23
55 8 14 0 0 0 0 0 2 10 5 8 5 5 0 0 4 59 76 0 0 0 0 0 0 0 0 0 0 0 0 0 0 0 0 0 3 13 9 10 74 71 90
57 3 6 8 0 0 0 39 0 5 5 31 17 5 31 27 95 71 7 0 0 0 2 0 0 0 0 0 1 0 0 0 5 1 0 0 0 27 22 14 97 56 11
49 16 0 0 0 0 1 72 0 5 43 64 6 4 3 100 100 97 2 4 4 2 0 0 2 0 2 0 0 0 0 0 0 0 0 0 3 5 14 47 71 39 72
22 9 0 82 3 0 10 5 17 21 18 27 5 0 0 2 75 100 16 2 5 5 5 5 5 5 5 5 1 5 1 5 0 0 0 0 5 5 62 5 20 60 86
5 0 0 17 0 0 100 71 76 1 0 0 0 0 0 0 0 5 0 5 5 57 5 86 72 6 45 5 5 0 5 0 0 0 0 3 5 9 57 8 47 19 94
6 5 4 5 0 2 34 98 100 99 0 0 0 0 0 0 0 5 5 5 31 26 74 43 44 45 5 5 1 5 5 5 5 5 4 5 5 47 20 96 99 97 99
39 8 5 5 5 5 6 7 75 100 0 4 5 5 5 5 5 5 5 5 54 5 18 15 6 5 5 4 5 5 5 5 6 5 5 5 5 28 28 66 100 100 100
10 5 5 5 5 5 5 8 28 22 16 8 5 5 5 5 8 16 16 17 6 7 72 69 5 5 5 5 5 5 5 6 30 59 32 5 5 7 16 47 7 1 6
6 35 58 92 50 17 5 8 26 27 14 16 5 5 7 16 17 24 28 15 24 32 18 9 11 5 5 5 6 48 18 5 5 5 5 5 5 5 5 5 5 2 5
54 52 42 56 41 5 5 7 16 31 25 22 13 13 6 69 33 17 17 22 40 28 36 39 5 5 5 13 31 34 57 5 6 5 13 5 5 6 10 5 17 90 100
5 25 81 46 38 18 5 3 13 19 22 18 62 53 39 8 60 77 70 64 67 90 99 52 19 6 41 44 77 89 68 5 21 5 2 5 5 5 2 2 3 9 62
12 5 5 5 5 5 5 5 5 33 47 83 99 90 51 95 100 87 60 57 99 100 99 72 97 98 17 77 100 14 5 69 5 5 5 6 5 2 5 5 0 2 8
59 5 5 5 5 6 31 62 35 57 51 55 100 100 99 100 100 100 100 100 100 94 100 100 84 96 52 59 5 5 5 5 5 5 5 5 5 5 5 5 5 5 5
18 5 5 5 5 5 11 42 79 88 91 58 86 89 68 91 100 100 100 75 72 98 100 100 100 92 13 10 21 12 20 35 90 8 5 5 5 5 6 64 70 7 5
86 34 5 5 18 5 82 88 72 62 79 77 44 37 68 98 100 100 100 99 100 100 100 100 100 81 24 9 6 12 5 5 6 5 5 5 5 5 59 19 6 5 5
96 100 100 95 78 65 57 62 39 59 88 90 80 92 100 100 100 91 100 100 100 83 64 85 55 33 46 34 95 100 65 5 15 5 5 5 5 11 15 11 30 20 10
100 100 100 100 100 100 100 89 45 68 95 100 100 100 100 100 96 100 97 61 50 87 98 47 46 96 99 98 100 100 100 72 16 5 5 5 30 44 62 38 9 6 5
100 100 100 100 100 100 100 100 100 100 100 100 92 88 92 97 98 94 62 81 96 98 90 99 100 100 100 100 81 100 100 100 88 46 14 100 40 81 65 5 16 73 64
100 100 100 100 100 100 100 100 100 100 100 100 100 100 100 100 100 100 100 100 100 100 100 100 100 100 100 100 100 99 81 90 100 100 100 81 100 64 81 25 82 52 74
100 100 100 100 100 100 100 100 100 100 100 100 100 100 100 100 100 100 100 100 100 100 100 97 100 99 77 99 100 100 100 99 100 99 100 60 87 97 5 99 79 66 22
100 100 100 100 100 100 100 100 100 100 100 100 100 100 100 100 100 100 100 97 100 67 80 82 79 100 100 98 95 100 76 12 26 100 100 88 100 75 5 6 90 56 68

GFSSE_prec_cloud_051.txt.gz
Cloud_Cover
5 5 5 22 39 9 5 92 97 100 100 100 9 2 4 5 9 1 35 8 1 40 99 84 86 79 100 86 0 0 0 0 0 5 0 0 0 0 0 0 0 27 5
8 9 5 5 6 0 4 0 0 23 51 98 11 0 2 4 6 1 0 0 0 0 17 100 13 3 10 2 0 0 0 0 0 0 0 0 0 0 0 0 0 23 82
5 5 4 4 1 0 0 5 1 0 0 0 5 2 3 5 24 0 5 3 0 0 2 7 2 6 2 2 1 0 0 0 0 0 0 6 0 0 0 0 0 4 5
5 5 2 2 0 0 0 0 1 5 2 5 5 5 5 5 24 14 17 5 0 0 0 0 0 0 1 0 0 0 0 0 0 0 0 41 10 3 7 100 4 13 24
35 5 13 2 0 0 0 0 0 0 5 5 5 6 5 6 16 21 3 0 0 0 0 0 0 0 0 0 0 0 0 0 0 0 0 35 46 29 35 15 91 37 22
14 0 4 22 0 0 0 0 0 0 2 5 5 5 5 5 12 88 26 0 0 0 0 0 0 0 0 0 0 0 0 0 0 0 0 0 62 26 30 10 6 28 5
26 11 8 27 0 0 0 6 0 0 0 4 5 6 67 86 99 98 7 0 0 0 0 3 5 2 0 5 5 0 0 1 0 0 0 0 0 27 21 6 64 10 3
28 46 17 21 0 0 0 21 0 0 0 4 5 5 88 99 100 37 4 0 0 0 4 5 2 4 5 5 4 5 5 5 2 0 0 0 0 6 22 5 5 4 18
28 37 28 19 0 1 9 82 5 4 5 5 5 32 72 94 90 7 2 0 0 1 1 0 1 5 5 5 5 5 5 5 0 0 0 0 0 5 9 5 5 10 58
48 6 5 22 1 0 40 100 25 83 5 5 5 96 100 8 11 100 0 0 0 0 3 5 5 6 5 5 5 62 16 3 0 0 0 0 5 5 82 79 19 0 2
33 5 6 54 42 2 100 100 100 98 0 1 5 11 23 14 4 0 4 0 0 0 3 3 4 5 5 5 5 17 7 5 5 5 5 5 5 38 91 57 18 5 5
39 7 9 29 21 4 79 98 100 100 0 0 0 0 0 0 0 0 3 5 14 5 5 5 5 5 5 5 5 5 5 2 5 5 5 5 5 8 52 4 12 5 5
100 25 5 5 5 12 26 40 10 7 5 2 3 0 0 0 1 6 5 5 5 12 5 5 5 5 5 5 5 5 5 5 5 5 5 5 3 5 34 5 5 5 5
100 95 38 51 8 5 41 45 8 5 5 2 5 5 0 0 5 6 6 29 74 53 39 42 23 17 14 10 11 5 16 8 5 21 5 1 4 5 5 5 5 5 3
100 100 43 60 5 5 5 5 5 5 5 5 5 5 5 5 5 14 55 55 85 84 69 98 34 5 32 16 19 79 51 11 51 17 5 5 5 5 5 5 10 0 69
100 100 54 6 12 5 5 5 5 5 5 5 5 5 5 5 6 36 16 18 50 98 100 79 96 22 25 62 29 86 98 61 29 5 5 5 5 5 5 5 5 1 6
100 100 100 79 28 37 5 5 5 5 5 31 16 5 29 6 5 28 60 84 92 97 100 80 100 99 100 100 79 100 66 72 12 27 5 5 5 5 5 5 4 5 5
100 100 100 100 62 16 5 5 5 10 5 8 65 34 27 55 88 64 37 50 63 89 78 100 100 100 100 58 71 43 7 5 5 5 5 5 5 5 5 5 5 5 5
100 100 100 100 100 58 11 5 9 24 5 24 17 56 63 8 46 57 51 48 80 73 53 100 100 100 100 38 5 12 5 13 30 5 5 5 33 5 5 5 5 5 36
100 100 100 100 100 93 65 93 30 87 14 62 16 14 58 41 72 74 39 31 36 85 100 67 100 100 42 5 52 9 43 7 5 6 66 67 10 5 5 5 5 5 5
100 100 99 79 95 100 95 100 100 65 7 22 73 75 27 29 63 99 100 99 100 100 100 71 23 30 98 97 98 84 38 5 52 100 75 100 10 5 5 5 5 5 5
100 100 100 100 100 100 100 81 100 100 100 98 97 62 52 96 100 100 100 100 100 100 100 55 70 89 100 100 100 100 85 100 100 70 98 20 5 5 5 15 12 16 5
100 100 100 100 100 100 100 100 100 100 100 100 100 100 100 100 100 100 100 100 100 100 100 86 100 100 100 100 100 97 98 100 100 100 60 12 14 47 63 30 45 15 34
100 100 100 100 100 100 100 100 100 100 100 100 100 100 100 100 56 64 59 91 100 100 100 100 93 100 100 100 100 100 70 100 100 94 85 48 36 97 100 18 7 5 0
100 100 100 100 100 100 100 100 100 100 100 100 100 100 100 74 33 57 99 100 100 100 100 100 100 100 100 100 99 100 100 100 76 94 96 31 93 58 5 5 5 1 20
100 100 100 100 100 100 100 100 100 100 100 100 100 100 100 100 100 100 100 100 100 100 100 100 100 100 100 100 100 100 100 66 62 100 100 100 100 65 5 5 1 0 0

GFSSE_prec_cloud_054.txt.gz
Cloud_Cover
0 4 0 0 0 3 5 5 4 34 100 100 18 8 5 23 11 13 10 13 98 87 2 68 67 89 33 1 0 3 4 0 0 0 0 0 0 0 0 0 99 48 8
3 0 4 5 5 5 4 9 0 30 98 48 18 6 0 6 4 0 3 1 0 3 100 100 100 91 5 0 0 0 0 0 0 0 0 0 0 0 0 0 1 40 14
3 4 5 5 5 2 1 4 11 44 44 10 16 0 8 27 0 1 0 0 0 23 94 59 98 98 6 7 0 0 0 0 0 2 0 0 0 0 40 3 5 2 17
40 5 32 50 61 5 3 0 0 0 0 1 0 0 4 27 18 37 6 5 5 0 2 16 4 0 0 0 0 0 0 0 0 0 0 22 16 18 33 8 32 78 90
7 6 69 92 38 2 0 0 0 0 0 0 5 4 2 24 24 21 5 5 5 2 3 0 0 0 0 0 0 0 0 0 4 1 6 92 100 34 17 23 44 16 18
5 5 42 100 8 0 0 0 0 0 0 0 0 6 5 24 22 5 5 5 9 5 5 3 0 0 0 0 0 0 5 3 5 5 0 7 41 30 16 8 5 5 5
5 11 99 100 7 1 0 0 0 0 0 0 0 2 90 96 32 5 33 6 85 5 5 3 0 0 0 1 0 0 5 5 5 5 16 34 16 44 9 5 5 5 7
4 7 90 54 5 0 16 0 0 0 0 0 0 84 100 100 99 77 15 79 56 37 5 2 0 0 0 0 0 4 5 5 5 7 15 5 5 42 5 4 5 5 12
40 23 92 40 3 10 0 52 0 0 0 0 0 0 4 34 24 46 33 74 60 44 5 0 0 0 0 0 0 4 5 5 5 5 5 5 5 5 5 5 5 2 0
83 99 100 99 21 39 6 100 14 1 0 0 0 5 0 5 5 88 49 57 48 5 5 0 0 0 2 5 5 5 5 5 5 5 5 5 5 5 6 5 4 1 4
45 100 100 99 41 63 48 100 100 85 0 0 0 2 5 5 42 66 74 16 5 5 2 0 5 5 5 7 5 5 5 5 5 5 5 5 5 12 10 2 5 5 5
84 58 100 96 94 75 27 100 100 99 33 23 0 0 0 5 5 5 5 5 5 1 1 5 5 5 5 8 5 21 44 9 5 5 5 5 5 5 57 5 5 5 5
100 100 100 100 70 94 54 100 100 100 41 49 17 5 5 5 4 0 0 0 0 10 6 5 23 27 6 21 56 17 8 5 5 5 5 5 5 5 5 5 5 5 5
100 100 95 100 52 38 100 78 100 42 16 35 25 5 5 5 5 5 5 5 4 3 5 16 10 29 32 63 41 19 5 5 38 7 8 5 12 38 72 9 5 11 6
100 100 100 70 53 58 47 100 100 69 11 12 15 5 5 8 8 5 5 5 5 5 5 5 5 24 49 32 49 21 8 80 17 73 21 5 6 31 5 40 16 23 24
100 100 100 85 80 92 84 61 80 54 13 2 1 5 5 16 48 6 14 87 63 11 5 5 6 73 91 39 15 14 56 100 37 37 5 5 59 8 24 12 59 5 6
100 100 100 100 100 100 100 100 48 42 5 5 3 5 5 5 18 18 12 17 14 5 8 39 76 68 5 6 5 28 100 100 11 5 6 40 5 10 6 5 5 2 4
100 100 100 100 100 100 100 100 100 100 63 8 5 15 9 65 48 36 21 59 67 64 70 85 16 19 23 17 83 48 52 41 24 37 26 16 5 10 8 5 5 5 0
100 100 100 100 100 100 100 100 97 69 100 100 72 47 58 25 12 10 18 57 74 61 28 26 39 48 46 79 100 100 53 60 96 99 41 17 50 5 5 5 5 4 3
100 100 100 100 100 100 100 100 100 100 68 20 75 72 64 32 5 11 37 53 84 73 46 41 64 96 100 100 100 88 78 99 100 100 100 33 5 5 5 5 5 1 0
100 92 100 100 100 100 100 100 100 100 100 84 100 100 100 100 100 83 50 34 60 55 65 94 100 100 100 100 100 100 100 100 100 95 66 5 24 5 5 5 5 5 0
100 100 100 100 100 100 100 100 100 100 100 100 100 100 100 100 97 100 100 100 100 100 100 100 100 100 100 100 100 100 100 95 100 78 23 12 21 81 20 5 3 3 0
100 100 100 100 100 100 100 100 100 100 100 99 100 100 100 100 100 100 100 100 100 100 100 100 100 100 100 100 100 100 83 93 99 100 100 97 55 14 5 5 1 2 5
100 100 100 100 100 100 100 100 100 100 100 100 99 100 100 100 100 100 100 100 100 100 100 100 100 100 100 100 100 100 100 100 99 100 100 89 48 5 5 5 5 5 3
100 100 100 100 100 100 100 100 100 100 100 100 100 100 100 100 100 100 100 100 100 100 100 100 100 100 100 100 100 100 100 100 100 100 100 100 29 5 5 5 52 10 13
100 100 100 100 100 100 100 100 100 100 100 100 100 100 100 100 100 100 100 100 100 100 100 100 100 100 100 100 100 100 100 100 100 96 94 100 100 46 5 20 5 66 32

GFSSE_prec_cloud_057.txt.gz
Cloud_Cover
0 12 1 0 0 0 0 50 29 0 77 34 9 0 24 26 7 14 5 76 68 22 9 34 16 9 3 0 0 0 0 0 0 0 0 0 0 0 3 36 96 31 5
0 3 0 0 0 0 0 0 0 0 28 0 0 2 9 12 5 5 5 0 0 93 100 100 100 32 0 0 0 0 0 0 0 0 0 0 0 1 0 5 6 5 22
0 7 1 0 0 0 0 0 16 74 18 0 4 11 4 0 5 4 4 4 55 100 100 100 100 39 0 0 0 0 0 0 0 0 1 2 0 10 5 6 28 62 42
5 0 3 0 0 0 0 0 0 0 0 5 0 11 40 42 66 2 0 5 5 6 38 57 30 2 1 0 0 0 0 0 0 5 35 78 12 11 16 22 94 18 5
5 5 5 2 0 0 0 4 4 1 0 0 0 0 47 20 26 1 1 5 5 5 7 3 0 3 5 0 0 0 0 0 0 0 59 66 99 30 9 96 79 15 15
5 5 7 4 4 0 5 5 4 0 0 0 0 0 10 33 26 5 5 5 12 5 5 5 5 5 5 0 0 0 0 0 0 0 5 4 97 59 47 99 25 5 5
5 12 1 5 8 3 2 4 5 0 0 0 0 0 23 28 15 22 51 38 25 5 5 5 5 5 5 0 0 0 0 0 0 2 5 4 10 21 29 20 5 7 5
50 16 5 10 6 5 13 66 5 0 0 0 7 56 82 66 0 11 100 18 7 5 5 5 10 5 4 0 0 0 0 5 5 5 2 5 5 16 5 5 25 42 5
100 70 82 50 18 5 14 45 2 0 0 0 1 12 41 21 0 0 53 8 5 5 5 5 5 5 5 3 0 0 0 4 5 5 5 5 5 75 5 53 61 33 20
100 100 96 57 46 36 9 92 1 0 0 0 0 0 0 0 0 0 1 5 5 5 16 25 5 5 5 3 0 5 5 9 6 5 5 5 30 6 30 64 99 63 8
100 100 100 100 21 94 85 100 95 2 0 0 0 0 12 0 0 6 6 5 5 5 34 32 5 5 5 1 5 5 5 5 5 5 5 5 53 8 32 100 91 65 5
68 100 100 100 34 50 93 95 78 71 22 6 0 0 0 0 0 5 3 5 5 5 5 5 5 5 0 0 5 5 5 5 5 5 5 5 5 8 27 78 5 5 18
98 100 100 100 91 55 83 36 95 90 84 39 21 0 0 0 0 0 0 0 3 13 5 5 1 0 0 0 2 3 5 0 5 29 9 5 5 5 22 6 5 5 5
70 99 100 100 100 100 99 16 98 21 12 26 22 11 0 0 0 0 0 3 5 5 5 7 5 5 5 3 0 0 5 5 34 6 2 4 5 39 95 32 10 20 5
100 100 100 100 100 100 100 96 100 91 6 5 13 21 0 0 0 0 5 3 5 5 5 5 6 11 10 19 5 5 5 5 5 2 5 8 5 5 5 5 19 28 16
100 100 100 100 100 100 100 100 100 100 28 7 13 5 14 4 5 3 5 5 5 5 5 5 21 22 25 22 15 23 12 6 5 56 50 5 5 5 6 22 70 95 13
100 100 100 100 100 100 100 100 100 100 67 12 15 65 8 54 61 20 52 27 7 5 5 5 58 40 17 20 16 28 28 52 82 98 98 38 5 22 99 100 99 7 5
100 100 100 99 100 100 100 100 100 100 100 100 28 25 82 98 70 44 48 40 50 43 19 18 52 32 20 46 97 48 100 100 100 99 45 30 93 100 100 45 5 5 5
100 100 100 100 98 99 100 100 100 100 100 100 60 25 84 76 100 94 85 96 100 78 56 67 90 100 99 83 29 46 100 100 100 100 100 98 91 38 5 5 5 5 5
100 100 100 100 100 98 100 100 100 100 100 100 99 35 52 84 99 100 99 88 100 100 100 100 100 27 87 98 68 100 100 100 92 78 76 27 11 8 5 5 5 20 4
100 100 100 100 100 100 100 100 100 100 100 100 100 100 100 100 87 98 100 100 100 100 100 99 86 100 83 100 100 100 100 100 100 100 100 66 40 5 60 40 6 5 5
100 100 100 100 100 100 100 100 100 100 100 100 100 100 100 100 100 100 100 100 100 100 100 100 100 100 100 100 100 100 100 100 100 100 100 41 94 68 92 10 32 8 0
100 100 100 100 100 100 100 100 100 100 100 100 100 100 100 100 100 100 98 100 100 100 100 100 100 100 100 100 100 100 89 98 100 100 100 100 100 100 34 39 5 0 0
100 100 100 100 100 100 100 100 100 100 100 100 100 100 100 100 99 72 64 99 100 100 100 100 100 100 100 98 100 100 100 100 100 100 100 100 100 92 79 68 32 0 0
100 100 100 100 100 100 100 100 100 100 100 100 100 100 100 100 100 100 94 100 100 100 100 100 100 100 100 100 100 100 100 100 100 100 100 100 98 82 11 78 17 2 0
100 100 100 100 100 100 100 100 100 100 100 100 100 100 100 100 100 100 100 100 100 100 100 100 100 100 100 100 100 100 100 100 100 100 100 100 100 100 11 92 57 0 0

GFSSE_prec_cloud_060.txt.gz
Cloud_Cover
23 11 0 0 5 5 4 0 0 0 16 1 0 1 24 5 5 5 5 2 2 11 58 100 11 3 0 0 0 0 0 0 0 0 0 0 0 0 0 0 5 26 7
0 4 0 0 0 5 5 0 0 0 0 0 14 55 6 0 0 0 0 0 71 42 61 100 60 0 0 0 0 0 0 0 0 0 0 0 0 0 0 3 23 46 98
0 3 0 3 2 1 1 0 0 0 0 0 33 1 0 32 4 0 2 98 100 100 100 100 39 0 0 0 0 0 0 0 0 3 93 12 0 2 20 0 37 90 100
4 5 3 0 0 0 0 0 0 0 0 0 17 8 71 14 0 0 0 10 86 100 98 3 6 5 0 0 0 0 0 0 0 75 80 5 13 38 16 51 93 45 13
5 5 0 0 0 0 0 0 0 0 0 0 10 2 20 19 0 0 0 0 3 17 8 5 5 5 4 2 0 0 0 0 0 6 98 93 44 10 8 5 6 6 5
16 5 5 0 4 0 0 0 0 0 5 5 0 10 28 17 0 0 0 5 5 5 5 5 5 5 5 5 5 1 0 0 0 0 0 19 0 51 5 5 5 5 31
97 22 5 3 4 0 0 0 4 1 5 0 0 23 62 11 0 0 0 0 60 82 32 58 33 10 5 5 5 5 2 0 0 0 0 1 5 18 1 5 5 13 6
52 99 29 5 3 0 0 5 4 0 3 21 3 96 8 0 0 0 0 0 1 100 98 56 7 5 5 5 5 5 5 5 0 0 0 1 0 4 0 5 5 5 7
100 100 100 94 14 5 5 5 5 1 5 93 3 43 0 0 0 0 0 0 0 53 91 44 5 5 11 41 5 5 5 1 0 0 0 0 0 12 3 6 5 5 5
100 100 100 100 54 5 5 6 5 5 5 5 5 0 0 0 0 0 0 0 0 0 2 5 5 5 5 5 5 5 5 0 0 0 0 0 0 0 30 20 5 5 5
99 100 74 100 100 96 75 92 10 5 5 5 1 0 0 0 0 0 0 0 0 0 0 0 3 5 56 50 6 5 0 0 0 0 0 0 1 0 21 8 5 6 100
100 100 100 100 100 100 100 96 70 22 5 5 0 0 0 0 0 0 0 0 0 0 0 1 5 5 6 7 5 1 0 0 0 1 4 5 0 0 12 27 50 5 5
100 80 100 79 100 100 100 100 99 42 5 18 5 5 2 0 0 0 0 0 0 13 0 0 0 0 0 0 0 0 4 5 5 5 1 4 0 4 5 9 17 5 5
100 100 100 100 100 99 80 78 100 100 79 78 78 5 5 2 4 0 0 0 0 0 0 0 0 0 0 0 0 1 5 0 0 5 5 0 4 5 5 5 5 5 5
100 100 100 100 100 92 84 100 100 100 100 92 94 50 5 7 5 5 5 3 0 0 4 1 1 0 0 0 2 5 5 5 5 5 5 5 5 7 55 69 5 7 57
100 100 100 76 100 100 100 100 100 100 100 100 100 100 64 42 64 6 4 14 23 5 5 5 5 7 11 29 45 5 6 5 5 5 5 5 85 74 78 29 5 9 5
100 100 100 100 100 99 100 100 100 100 100 100 100 100 100 100 83 31 5 60 37 18 14 17 12 5 5 5 5 5 47 76 80 8 27 92 89 92 6 5 5 5 5
100 100 100 100 100 100 100 100 100 100 100 100 100 100 100 100 100 100 44 18 61 50 50 89 100 100 100 99 96 100 100 100 97 77 93 52 58 85 73 7 11 5 5
100 100 100 100 100 80 91 100 100 100 100 100 100 100 100 100 100 100 52 16 31 68 75 92 100 99 100 100 100 100 100 99 65 73 68 7 5 48 100 100 26 8 5
100 100 100 100 100 100 99 100 99 100 100 100 100 100 100 100 100 94 96 100 100 100 100 100 100 100 100 77 100 100 100 100 59 82 45 36 17 61 65 93 92 48 9
100 100 100 100 100 100 100 100 99 100 100 100 100 100 100 100 100 100 98 99 100 100 100 100 100 100 77 100 100 100 100 98 51 98 100 93 96 92 88 61 99 100 29
100 100 100 100 100 100 100 100 100 100 100 100 100 100 100 100 100 100 100 100 100 100 100 100 100 100 100 100 100 100 100 100 100 100 100 100 92 98 100 60 20 25 22
100 100 100 100 100 100 100 100 100 100 100 100 100 100 100 100 100 100 100 100 100 100 100 99 100 100 100 100 100 100 100 100 100 100 100 100 100 98 100 100 15 36 5
100 100 100 100 100 100 100 100 100 100 100 100 100 100 100 100 100 100 100 100 100 100 100 100 98 100 100 100 100 100 100 100 100 97 71 64 91 77 88 100 85 92 45
100 100 100 100 100 100 100 100 100 100 100 100 100 100 100 100 100 100 100 100 100 100 100 100 100 100 100 100 100 100 100 100 100 100 100 100 100 100 100 100 100 77 6
100 100 100 100 100 100 100 100 100 100 100 100 100 100 100 100 100 100 100 100 100 100 100 100 100 100 100 100 100 100 100 100 100 100 100 100 100 97 100 100 88 66 5

GFSSE_prec_cloud_063.txt.gz
Cloud_Cover
49 18 0 0 0 0 1 2 4 0 0 0 23 34 7 8 2 0 15 8 6 85 98 10 0 0 0 0 0 0 0 0 0 0 0 0 0 0 0 0 61 29 5
37 5 5 0 0 0 0 4 5 5 4 0 50 1 0 0 0 0 1 92 23 77 100 28 0 0 0 0 0 0 0 0 0 0 0 0 0 11 21 0 94 100 45
32 1 0 5 4 0 0 1 3 5 4 6 0 0 0 0 0 4 100 100 44 9 29 0 0 0 0 1 3 0 0 0 13 0 0 0 15 4 3 89 100 25 85
15 5 2 5 5 1 0 0 0 0 0 0 0 37 0 0 0 39 100 100 100 12 1 2 3 5 4 5 5 5 1 1 3 0 0 0 39 15 2 0 0 2 0
6 5 5 5 5 4 0 0 0 0 0 5 0 1 2 0 0 0 0 79 36 9 5 5 11 10 65 42 8 5 5 5 3 0 0 0 0 0 0 0 0 0 0
5 5 5 5 5 5 0 0 0 0 0 0 0 5 7 0 0 0 0 6 2 4 7 51 18 56 64 7 5 5 5 5 5 4 2 0 0 3 0 0 0 0 1
20 15 5 5 5 3 4 0 0 0 0 0 31 7 6 0 0 0 0 0 1 5 0 9 52 29 14 5 5 5 5 5 4 0 0 0 0 2 0 0 0 0 0
41 34 11 5 5 5 4 1 0 0 0 0 10 18 0 22 0 0 0 0 0 0 0 0 4 95 8 5 5 5 5 5 0 0 0 0 0 7 0 0 0 0 0
9 34 50 42 80 89 56 4 0 4 6 2 6 0 0 6 4 0 0 0 0 0 0 0 0 10 5 5 5 5 5 5 3 0 0 0 0 17 0 0 0 0 0
26 46 57 60 43 100 100 100 49 5 5 3 12 3 11 5 5 0 0 0 0 0 0 0 0 0 0 0 0 5 5 5 5 2 0 0 0 0 16 58 5 5 5
98 70 45 44 20 98 99 100 100 89 5 5 5 36 5 5 3 0 0 0 0 0 0 0 0 0 0 0 3 0 0 0 0 0 0 0 4 4 9 9 4 5 5
100 76 48 63 91 80 93 100 100 100 41 5 40 66 14 9 5 5 0 0 0 0 0 0 0 0 0 0 0 0 0 0 0 0 0 0 5 5 5 18 7 6 5
100 100 100 99 98 79 99 100 100 100 68 100 100 100 50 53 26 33 14 4 3 5 0 0 0 0 0 0 4 2 1 0 0 0 0 4 5 5 5 5 5 5 5
100 100 100 100 93 63 84 100 100 100 72 100 100 100 100 100 67 67 7 4 5 5 5 5 4 5 4 0 5 5 5 5 4 5 5 5 3 2 6 5 12 5 5
100 100 100 100 100 90 71 79 100 100 100 100 100 100 100 100 100 26 22 6 5 5 5 5 4 0 4 5 5 24 27 23 26 33 52 20 42 5 5 5 5 12 16
100 100 100 100 100 100 93 70 85 100 100 100 71 61 80 100 100 100 93 90 16 19 5 5 5 5 5 3 5 12 35 23 5 12 62 53 8 10 5 5 5 5 5
100 100 100 100 100 100 55 72 100 100 100 100 100 100 100 100 100 100 100 100 93 5 7 90 97 5 5 5 5 5 49 99 100 99 95 84 93 100 100 100 16 5 5
100 100 100 100 100 100 99 96 100 100 100 100 98 100 100 100 100 100 100 100 100 100 18 32 94 100 91 100 73 100 100 100 93 52 29 28 42 98 63 100 100 60 5
100 100 100 100 100 100 100 100 79 100 100 100 100 100 100 100 100 100 100 100 100 94 95 99 99 100 98 100 100 100 91 54 5 11 48 24 5 37 68 60 60 5 26
100 100 100 100 100 100 100 100 96 87 100 100 100 100 100 100 100 100 100 100 100 100 100 100 100 100 100 78 100 100 100 100 100 94 82 8 33 100 20 5 25 6 6
100 100 100 100 100 100 100 100 98 100 100 100 100 100 100 100 100 100 100 100 100 100 100 100 100 100 76 99 100 100 100 100 81 82 100 89 98 63 83 98 5 5 12
100 100 100 100 100 100 100 100 100 100 100 100 100 100 100 100 100 100 100 100 100 100 100 100 100 100 98 92 93 55 76 100 100 100 100 100 99 100 100 67 16 24 94
100 100 100 100 100 100 100 100 100 100 100 100 100 100 100 100 100 100 100 100 100 100 100 100 100 100 99 100 96 61 81 98 100 100 100 100 100 100 100 100 97 42 46
100 100 100 100 100 100 100 100 100 100 100 100 100 100 100 100 100 100 100 100 100 100 96 85 91 70 82 98 96 100 96 61 99 100 100 100 100 100 100 100 100 100 100
100 100 100 100 100 100 100 100 100 100 100 100 100 100 100 100 100 100 100 100 100 100 100 100 100 100 96 80 87 54 97 100 100 100 100 100 100 100 100 100 100 100 100
100 100 100 100 100 100 100 100 100 100 100 100 100 100 100 100 100 100 100 100 100 100 100 100 100 100 100 100 100 100 100 100 100 100 100 100 100 100 100 100 100 100 100

GFSSE_prec_cloud_066.txt.gz
Cloud_Cover
31 15 0 4 15 0 5 7 26 1 0 20 59 64 0 0 10 0 30 20 99 98 6 0 0 0 0 0 0 0 0 24 10 0 0 0 11 69 6 0 59 0 5
52 28 0 0 10 1 0 2 0 0 1 91 2 0 0 0 15 33 14 46 100 45 6 0 0 4 0 0 0 0 0 0 0 0 0 0 0 9 10 53 88 93 12
37 22 0 0 0 0 4 0 0 4 9 0 0 0 0 0 6 16 99 4 42 17 0 0 0 0 0 4 2 1 5 5 5 5 5 5 0 10 0 1 3 8 22
21 9 8 0 0 0 3 4 0 23 0 5 0 0 0 1 15 100 100 53 7 0 0 0 0 0 4 5 5 5 5 5 5 5 5 5 0 0 0 0 0 0 0
39 5 9 0 0 5 2 0 4 16 0 0 0 0 0 0 46 100 90 0 1 0 0 0 0 5 5 5 5 5 5 5 6 5 5 3 0 0 0 0 0 0 0
31 21 1 3 0 2 5 0 5 21 4 15 1 0 0 0 0 0 18 0 0 0 0 0 0 0 5 20 9 5 5 5 5 5 5 4 0 0 0 0 0 0 0
61 32 6 5 0 0 5 4 0 24 15 26 26 2 0 0 0 0 5 3 0 3 1 0 0 0 0 3 25 10 5 5 0 0 1 5 0 0 0 0 0 4 5
85 40 10 5 5 3 5 5 3 4 18 18 0 1 0 0 0 0 2 5 5 0 2 0 0 0 0 0 3 5 5 0 0 0 0 0 0 0 0 0 0 4 0
61 33 56 32 10 5 5 5 5 5 5 59 0 0 0 0 2 0 3 0 0 0 0 0 0 0 0 0 0 0 0 0 0 0 0 0 0 22 0 0 0 0 0
92 72 93 66 46 8 5 9 7 100 94 64 6 2 0 1 4 5 11 5 1 5 0 0 0 0 0 0 0 0 0 0 0 0 0 0 0 2 8 56 4 5 1
100 100 100 100 64 20 48 5 82 23 100 100 100 27 15 5 5 5 6 15 5 5 5 4 5 4 0 0 0 2 0 0 1 5 0 0 5 5 5 5 5 5 5
100 100 100 100 100 32 29 75 58 100 97 80 97 100 98 100 96 67 29 15 5 2 1 5 0 5 5 3 3 3 5 2 5 5 5 5 5 4 5 12 6 3 0
100 100 99 100 100 100 97 99 87 96 100 90 91 62 72 87 100 100 43 91 26 6 51 5 5 5 5 5 5 5 5 5 3 5 5 5 5 6 5 5 7 5 0
100 100 100 100 100 100 100 100 100 82 75 96 35 34 84 100 100 100 100 100 79 11 50 29 22 5 5 5 5 5 5 5 5 18 5 7 5 5 5 5 5 6 5
100 100 100 100 100 100 100 100 100 99 75 86 100 16 81 100 100 100 100 98 96 88 18 63 44 25 5 5 25 100 86 62 98 13 5 48 32 6 5 5 5 7 8
100 100 100 100 100 100 100 100 100 100 99 84 79 30 62 100 100 100 93 71 99 100 99 31 40 5 5 5 5 64 81 83 16 70 86 65 28 99 89 95 97 26 81
100 100 100 100 100 100 100 100 100 100 100 100 98 99 70 73 100 100 100 100 100 100 100 100 97 98 10 56 57 48 29 63 84 100 100 94 55 10 100 100 43 100 100
100 100 100 100 100 100 100 100 92 100 100 100 100 24 89 94 100 100 100 100 100 100 100 100 100 88 90 100 100 100 100 100 100 86 55 29 50 100 100 100 99 100 56
100 100 100 100 100 100 100 100 88 100 88 100 100 90 71 74 96 100 100 100 100 100 100 100 100 100 100 100 100 100 100 100 74 56 56 58 47 54 58 69 96 100 100
100 100 100 100 100 100 97 100 99 100 100 100 100 100 93 83 100 100 100 100 100 100 100 100 100 100 100 100 100 100 100 100 100 40 82 53 27 44 30 76 75 95 100
100 100 100 100 100 100 100 100 100 100 94 100 100 100 98 82 100 100 100 100 100 100 100 100 100 100 100 100 100 100 100 90 72 94 24 17 5 31 70 100 98 100 100
100 100 100 100 100 100 100 100 100 100 100 100 100 100 100 100 100 100 100 100 100 100 100 100 100 100 100 100 97 100 100 100 62 49 26 7 11 100 100 100 100 100 100
100 100 100 100 100 100 100 100 100 100 100 100 100 97 100 100 100 100 100 100 100 100 100 100 100 100 100 100 100 98 100 100 100 100 100 100 89 100 100 100 100 100 100
100 100 100 100 100 100 97 100 100 100 100 100 100 100 100 100 100 100 100 100 100 100 100 100 100 100 100 100 100 100 80 100 100 100 100 100 100 100 100 100 100 100 100
100 100 100 100 100 100 100 100 100 100 100 100 100 100 100 100 100 100 100 100 100 100 100 100 100 100 100 100 99 87 91 96 100 100 100 100 100 100 100 100 100 100 100
100 100 100 100 100 100 100 100 100 100 100 100 100 100 100 100 100 100 100 100 85 99 100 99 92 100 99 100 100 100 100 100 100 100 100 100 100 100 100 100 100 100 100

GFSSE_prec_cloud_069.txt.gz
Cloud_Cover
51 4 0 0 2 4 1 83 21 0 22 0 4 18 8 13 40 11 18 72 98 15 0 0 0 0 0 5 15 53 100 3 0 0 2 6 62 36 14 63 2 14 75
43 6 0 0 2 10 7 5 0 0 1 44 7 7 39 26 33 40 36 100 59 2 0 0 0 0 0 0 4 3 6 4 1 4 5 5 5 0 1 0 21 13 98
54 22 3 5 3 11 2 0 2 12 0 0 0 1 28 31 18 8 86 89 43 0 0 0 2 0 0 0 0 5 5 5 5 5 5 5 0 3 0 0 6 30 57
35 24 5 2 7 6 5 0 18 0 0 0 0 0 8 22 76 46 26 43 2 0 0 0 0 0 0 0 0 5 5 5 5 5 5 2 0 0 0 0 0 0 0
36 20 5 5 3 0 7 7 10 5 2 0 0 0 0 4 96 83 10 2 2 3 0 0 0 0 0 0 0 2 5 5 5 5 5 5 0 0 0 0 0 0 0
38 5 5 5 5 4 0 0 5 5 6 0 0 0 4 100 91 17 82 89 3 8 3 0 0 0 0 0 0 0 0 5 5 5 5 0 0 0 0 0 0 0 0
81 15 8 5 53 77 9 4 5 5 10 1 0 0 0 2 69 2 100 3 2 0 3 0 0 0 0 0 0 0 0 0 4 0 0 0 0 0 0 0 0 0 4
100 78 34 69 26 84 73 21 5 4 4 11 0 0 0 0 2 5 40 4 2 5 2 0 0 0 0 0 0 0 0 0 0 0 0 0 0 0 0 0 0 0 0
73 92 21 85 94 6 31 5 5 12 5 0 0 0 1 1 0 0 0 2 11 13 1 0 5 3 0 5 4 0 0 0 0 2 0 0 0 0 0 0 0 0 0
62 58 76 59 71 72 67 69 31 5 29 5 5 4 8 9 5 5 0 4 2 3 5 5 4 5 2 3 2 5 5 5 5 20 5 5 4 6 4 51 0 0 4
100 100 100 100 80 96 100 78 52 5 38 31 5 5 5 66 93 56 34 24 6 7 5 5 5 5 14 22 5 5 5 5 5 5 5 5 5 5 5 5 5 4 5
100 100 100 100 100 100 100 100 98 40 86 84 75 70 100 53 16 62 18 62 100 96 93 88 41 5 5 5 55 5 5 5 5 67 52 40 49 6 5 6 6 5 5
100 100 100 100 100 100 87 100 100 100 41 44 56 78 48 74 82 59 31 76 82 100 100 100 76 28 12 5 5 5 5 5 8 100 7 24 6 5 5 5 5 5 5
100 100 100 100 100 100 100 100 100 100 100 100 100 29 19 25 58 59 50 97 100 100 100 92 98 25 7 5 5 16 5 5 12 5 5 5 5 5 6 14 5 5 5
100 100 100 100 100 100 100 100 100 100 100 100 99 100 96 82 40 78 62 94 92 89 99 62 66 100 99 80 69 19 22 16 40 98 24 8 41 34 96 59 20 45 5
100 100 100 100 100 100 100 100 100 100 100 100 69 100 100 100 93 100 53 54 79 100 98 92 64 93 100 100 100 100 96 97 96 100 97 100 100 100 89 73 100 98 9
100 100 100 100 100 100 100 100 100 100 100 100 100 100 100 100 100 84 87 93 42 65 100 60 88 100 100 100 100 100 99 97 100 100 100 100 100 91 99 88 100 78 17
100 100 100 100 100 100 100 100 100 100 82 94 100 100 100 80 82 100 90 88 73 58 90 100 100 100 100 100 100 100 97 100 100 100 100 88 100 97 89 44 50 8 11
100 100 100 100 100 100 100 100 100 100 100 98 55 100 100 100 100 100 89 85 56 91 98 100 100 100 100 100 100 100 100 100 100 100 100 100 100 100 100 100 100 95 94
100 100 100 100 100 100 100 100 100 100 100 100 98 100 100 100 100 100 100 96 69 45 81 97 100 100 100 100 100 100 100 100 100 100 57 100 100 100 99 54 51 9 32
100 100 100 100 100 100 100 100 100 100 100 100 100 100 100 100 100 100 100 100 84 82 89 100 100 100 100 100 100 100 100 100 100 100 100 100 86 100 97 96 76 100 100
100 100 100 100 100 100 100 100 100 100 100 100 100 100 100 100 100 100 100 100 100 100 100 100 100 100 100 100 99 100 100 100 100 98 86 69 77 97 95 100 100 100 98
100 100 100 100 100 100 100 100 100 100 100 91 99 100 100 100 100 100 100 100 100 100 100 100 100 100 100 100 100 78 100 100 100 100 100 94 78 57 84 100 100 100 100
100 100 100 100 100 100 100 100 100 100 100 100 100 100 100 100 100 100 100 100 100 100 100 100 100 100 100 100 94 70 66 100 100 99 100 100 100 100 100 100 100 100 100
100 100 100 100 100 100 100 100 100 100 100 100 100 100 100 100 100 100 100 100 100 100 100 100 97 100 98 100 100 100 91 96 58 98 100 100 100 100 100 100 100 100 100
100 100 100 100 100 100 100 100 100 100 100 100 100 100 100 100 100 100 100 100 100 100 100 100 100 58 68 30 38 63 98 69 84 85 98 100 100 100 100 100 100 100 100

GFSSE_prec_cloud_072.txt.gz
Cloud_Cover
50 5 5 5 0 10 96 4 0 1 0 12 12 1 2 0 35 2 25 20 5 1 0 0 0 6 72 100 97 0 0 0 46 4 0 4 3 5 0 9 0 90 18
73 5 5 5 6 4 21 4 0 0 0 7 19 3 31 28 36 25 16 16 2 0 0 0 0 76 31 4 3 0 0 4 2 5 5 5 0 0 0 0 0 30 99
51 8 27 38 5 5 5 5 2 0 0 5 23 10 30 33 18 96 100 11 0 0 0 0 0 3 0 0 0 0 6 1 0 0 0 0 0 0 0 0 0 0 0
48 21 5 5 8 9 8 5 20 0 0 0 8 22 26 23 44 100 90 0 0 0 0 9 1 0 0 0 6 0 3 1 0 0 0 1 1 0 0 0 0 0 1
53 14 5 5 5 7 5 13 30 0 0 0 0 2 22 49 32 75 39 0 1 0 5 0 0 0 0 0 0 0 0 0 0 0 0 5 0 0 0 0 0 0 1
90 86 5 5 5 5 5 5 10 1 4 4 4 5 21 100 100 56 32 6 8 4 0 0 0 0 0 0 0 0 0 0 0 0 0 0 0 6 0 0 0 5 5
61 71 6 28 29 5 5 14 5 31 5 5 5 16 6 8 52 100 19 41 12 4 0 0 0 0 0 0 0 2 1 0 3 2 0 0 0 8 8 14 5 5 5
16 99 29 17 6 5 36 29 15 24 5 28 5 97 100 85 22 80 11 25 2 0 0 0 0 0 0 0 0 0 5 3 4 5 5 4 5 10 10 5 7 5 5
68 30 87 35 100 22 66 99 12 20 12 5 10 5 8 97 23 0 0 8 5 0 0 0 5 3 5 5 4 5 1 5 5 0 0 5 4 16 2 5 5 2 5
65 70 100 82 86 36 100 100 100 8 5 5 5 5 5 5 0 34 5 5 17 6 5 5 5 5 5 5 7 5 5 5 5 5 5 0 5 7 3 45 1 5 5
100 94 87 89 100 99 100 100 62 78 5 5 5 5 5 5 5 5 5 5 5 16 18 61 50 72 26 68 8 5 5 5 5 5 5 0 5 2 0 0 5 5 5
100 100 100 100 100 100 100 100 94 92 100 28 19 34 52 29 8 5 5 5 5 46 58 81 93 100 100 100 12 8 5 5 5 5 5 3 2 4 5 4 5 5 5
100 100 100 100 100 100 100 100 100 100 100 100 100 100 96 67 42 21 13 5 5 5 5 63 97 100 100 100 47 73 30 5 5 5 5 14 5 5 10 92 8 19 35
100 100 100 100 100 100 100 100 100 100 100 100 100 100 100 100 100 45 22 5 5 5 5 45 53 32 5 15 85 75 89 100 95 100 67 99 16 7 99 100 100 38 48
100 100 100 100 100 100 100 100 100 100 100 100 100 100 94 59 52 82 98 70 12 5 5 5 37 21 49 8 7 35 86 100 100 100 65 100 91 50 100 100 60 87 100
100 100 100 100 100 100 100 100 100 100 100 100 100 59 33 47 30 23 26 59 52 80 81 30 63 78 56 62 100 100 100 100 100 100 95 100 100 100 100 100 100 99 98
100 100 100 100 100 100 100 100 100 64 91 88 82 64 77 89 83 75 93 55 78 75 49 39 83 58 49 81 78 64 100 100 100 100 99 51 100 100 100 100 100 100 100
100 100 100 100 100 100 100 100 100 100 94 100 78 97 100 94 100 89 99 100 25 28 62 63 68 86 47 34 36 100 100 100 100 100 100 83 85 74 100 100 99 100 86
100 100 100 100 100 100 100 100 100 100 100 100 100 94 93 84 98 52 82 99 60 20 100 100 100 100 46 85 76 100 100 100 85 82 14 93 100 100 100 90 97 64 100
100 100 100 100 100 100 100 100 100 100 100 100 100 99 87 91 89 100 100 67 100 98 100 99 100 86 100 100 100 99 51 49 37 40 99 100 100 100 99 96 85 100 82
100 100 100 100 100 100 100 100 100 100 100 100 100 100 100 100 100 100 100 100 100 100 100 100 100 100 100 100 100 33 5 38 100 45 55 47 99 100 89 72 94 100 100
100 100 100 100 100 100 100 100 100 100 100 100 100 95 100 100 100 100 100 100 100 100 100 100 100 100 98 100 100 95 28 14 5 11 57 12 48 84 89 54 5 87 100
100 100 100 100 100 100 100 100 100 100 100 100 100 100 100 100 100 100 100 100 100 100 100 100 100 100 100 100 74 87 100 95 98 70 38 40 30 5 4 5 92 99 100
100 100 100 100 100 100 100 100 100 100 100 100 100 100 100 100 100 100 100 100 100 100 100 100 100 100 100 100 75 48 60 67 29 29 84 96 73 93 100 26 75 100 100
92 100 92 100 100 100 100 100 100 100 100 100 100 100 100 100 100 100 100 100 100 100 100 100 100 100 88 98 63 77 12 56 100 100 100 81 100 100 100 100 100 100 100
100 100 100 100 100 100 100 100 100 100 100 100 100 100 100 100 100 100 100 100 100 100 100 100 100 100 100 100 91 51 87 47 100 98 100 100 100 100 100 100 100 68 21

GFSSE_prec_cloud_075.txt.gz
Cloud_Cover
22 5 27 48 3 6 7 0 7 0 0 2 0 0 0 0 0 4 25 1 2 1 3 0 53 98 53 0 0 17 38 61 3 0 0 0 8 16 14 0 34 44 0
11 56 30 6 46 23 1 0 0 0 2 4 0 0 0 2 18 25 24 29 1 0 0 0 99 100 28 0 0 0 36 3 0 0 0 0 0 0 0 0 0 1 77
96 24 6 5 5 5 5 4 0 0 5 0 0 0 8 8 10 42 34 5 0 0 0 20 92 7 1 0 0 2 1 0 0 0 0 0 0 0 0 0 0 3 2
31 71 32 5 5 5 5 13 0 0 4 15 4 18 42 19 95 100 10 0 0 4 49 24 6 0 3 0 3 2 0 0 0 0 0 0 0 2 0 0 0 1 3
60 44 76 35 5 5 5 20 1 5 3 1 0 2 9 21 100 100 1 0 0 15 33 5 0 0 6 0 15 1 6 0 0 0 0 0 0 0 0 0 0 5 5
54 39 23 100 47 10 8 5 12 5 5 4 20 5 2 5 78 100 65 0 0 0 13 0 0 0 0 0 0 2 0 0 0 0 0 0 11 71 51 2 0 5 8
54 21 18 28 87 66 51 7 5 5 5 38 9 38 86 100 100 22 81 70 2 10 0 0 0 0 0 0 1 0 0 0 0 0 0 2 6 41 54 6 4 1 5
20 14 6 5 34 68 40 5 5 48 5 40 37 21 100 79 51 46 10 23 2 0 0 0 3 1 0 0 0 3 5 5 1 2 1 0 1 2 2 0 5 5 6
59 62 11 5 19 48 6 96 32 61 36 11 99 52 80 100 100 99 66 22 6 4 5 2 5 5 5 5 5 5 5 5 5 5 2 2 0 2 4 9 5 4 5
89 19 13 14 34 16 23 68 98 26 25 67 5 86 100 100 97 74 12 12 11 0 3 5 5 5 5 5 7 17 100 21 5 1 5 5 5 7 1 45 0 2 6
100 100 97 68 97 70 37 66 100 100 100 99 40 15 55 70 28 17 6 5 5 5 5 5 5 5 5 16 100 100 100 24 6 33 5 1 0 3 5 5 4 5 40
100 100 100 100 100 100 80 74 89 89 98 100 32 59 20 33 12 14 36 6 48 5 3 5 5 5 5 5 28 41 62 75 42 61 44 68 57 34 5 5 5 5 42
100 100 100 100 100 100 100 100 96 100 100 84 100 91 45 61 94 100 93 33 14 32 5 5 5 5 5 5 5 5 18 5 8 24 91 100 100 96 10 5 10 13 94
100 100 100 100 100 100 100 100 100 100 100 100 100 100 100 89 100 100 100 99 37 8 12 15 5 5 5 5 5 9 66 26 87 75 98 100 100 92 27 85 25 100 100
100 100 100 100 100 100 100 100 100 100 100 100 85 100 100 100 100 100 77 59 55 5 5 6 5 5 44 56 19 33 11 5 61 35 28 100 85 100 97 100 100 91 100
100 100 100 100 100 100 100 100 100 98 100 100 100 100 100 84 62 92 73 26 14 5 5 5 5 70 99 43 75 100 58 5 6 10 94 100 81 77 100 100 100 94 100
100 100 100 100 100 100 100 100 91 100 85 100 100 100 64 67 54 67 13 10 6 10 5 6 86 51 32 32 92 97 86 9 5 5 6 96 79 99 99 100 99 100 78
100 100 100 100 100 100 100 100 100 100 79 89 98 98 100 99 57 50 82 78 14 23 64 68 6 6 5 24 100 57 33 5 1 14 6 49 53 45 32 5 98 21 5
100 100 100 100 100 100 100 100 100 100 59 97 100 100 100 100 97 100 99 91 99 28 57 54 59 49 40 85 11 36 99 11 14 49 6 5 10 99 26 95 13 5 17
100 100 100 100 100 100 100 100 100 100 100 100 100 100 100 100 100 97 85 98 100 84 62 71 6 84 96 100 100 100 8 1 4 0 0 4 54 22 5 5 4 8 7
100 100 100 100 100 100 100 100 100 100 100 100 100 100 100 98 87 100 100 95 100 100 100 97 54 40 100 98 99 43 0 0 3 4 0 5 9 32 5 0 0 0 4
100 100 100 100 100 100 100 100 100 100 100 100 100 100 100 100 100 100 100 100 100 100 99 100 100 72 98 89 96 98 4 34 5 5 5 5 5 4 4 1 0 100 16
100 100 100 100 100 100 100 100 100 100 100 100 100 100 100 100 100 100 100 100 100 100 91 84 92 100 82 88 100 99 59 99 39 18 5 5 5 1 1 4 0 58 93
100 100 100 100 100 100 100 100 100 100 100 100 100 100 100 100 100 100 100 100 100 100 100 92 100 100 100 97 49 10 39 38 32 17 23 5 5 5 45 100 100 20 8
100 100 100 100 100 100 100 100 100 100 100 100 100 100 100 100 100 100 100 100 100 100 100 100 100 100 100 100 100 57 100 69 53 88 15 6 12 100 100 83 49 100 44
100 100 100 100 100 100 100 100 100 100 100 100 100 100 100 100 100 100 100 100 100 100 100 100 100 100 100 100 100 100 100 99 90 100 100 100 100 97 100 19 18 96 100

GFSSE_prec_cloud_078.txt.gz
Cloud_Cover
12 78 83 83 63 8 5 5 6 0 0 0 0 1 0 0 0 12 32 0 0 1 0 7 0 70 100 100 50 51 56 8 0 0 0 0 8 36 0 0 83 45 18
5 53 6 93 52 10 7 3 0 0 2 0 0 0 0 0 4 23 30 0 0 0 22 100 89 0 31 30 4 19 4 0 0 0 0 0 0 0 0 0 1 96 66
29 86 6 45 5 5 33 46 5 5 1 0 0 0 0 2 17 53 35 14 0 0 42 100 92 54 0 11 9 2 0 0 0 0 0 0 0 0 0 0 0 2 18
58 98 51 5 5 5 5 49 62 5 2 0 0 0 0 5 10 47 10 0 1 13 100 62 21 8 0 0 5 0 3 0 0 0 0 0 0 0 0 0 5 5 97
98 100 100 5 5 38 5 11 68 5 4 0 0 74 3 18 70 14 0 1 100 100 63 9 7 1 0 3 7 1 0 0 0 0 0 0 0 4 1 4 5 6 52
95 100 24 5 5 5 23 5 77 34 62 5 5 60 100 84 100 15 1 0 38 31 19 7 2 0 0 0 11 4 2 2 3 0 0 0 12 96 48 3 5 5 20
82 64 19 4 5 5 5 5 67 95 85 53 5 16 5 90 100 47 88 0 4 13 7 0 0 0 1 6 0 1 0 0 0 0 0 0 3 66 27 5 5 5 5
67 39 88 8 5 5 5 6 96 39 90 63 40 34 68 99 100 79 44 70 67 18 0 0 1 0 0 0 0 0 0 3 3 0 0 0 0 10 7 7 68 8 7
88 75 58 39 5 5 5 5 6 84 62 74 100 81 100 100 100 83 99 34 7 6 0 0 0 0 1 2 2 5 5 5 9 66 6 4 0 9 7 7 34 100 100
84 100 100 100 44 27 54 5 11 28 7 84 78 100 100 100 100 100 99 93 10 7 0 0 0 0 5 5 5 6 96 82 76 99 46 6 5 7 6 5 54 97 97
100 100 100 100 100 61 80 35 8 71 79 22 54 100 100 90 35 25 6 81 31 5 5 5 5 0 0 1 5 5 5 5 4 5 5 5 5 100 100 95 98 93 73
100 100 100 100 100 100 51 74 74 33 62 27 100 100 96 100 100 99 64 5 5 5 5 4 5 5 5 4 5 5 5 5 5 5 5 14 100 59 87 100 100 100 98
100 100 100 100 100 100 100 100 98 98 100 100 98 91 41 68 53 66 45 20 52 100 100 94 21 12 5 5 5 48 55 81 7 5 5 93 5 5 94 100 100 100 50
100 100 100 100 100 99 100 100 100 100 100 100 100 100 100 100 100 100 96 42 88 100 100 37 5 5 7 5 5 6 40 25 5 5 5 5 5 49 100 84 100 32 6
100 100 100 100 100 100 100 100 100 100 100 100 100 100 100 100 100 91 100 100 100 100 99 30 32 17 16 5 5 10 9 5 19 7 5 5 5 53 87 5 14 9 5
100 100 100 100 100 100 100 100 100 100 100 100 100 100 100 100 66 91 100 100 99 71 23 83 85 40 5 5 5 5 5 5 24 72 6 19 8 94 7 5 34 63 19
100 100 100 100 100 100 100 100 100 100 100 100 100 100 100 100 100 100 100 78 100 99 19 27 18 24 100 21 51 53 19 58 64 27 64 48 56 100 44 96 100 17 5
100 100 100 100 100 100 100 100 100 100 100 100 100 100 100 100 100 100 80 75 100 79 44 24 67 17 100 79 46 40 27 22 14 10 7 91 62 100 17 4 4 5 18
100 100 100 100 100 100 100 100 100 100 100 100 100 100 100 100 100 100 92 94 100 100 100 81 74 90 77 66 54 78 60 10 15 1 5 6 20 14 4 2 4 5 5
100 100 100 100 100 100 100 100 100 100 100 100 100 100 100 98 84 100 100 100 100 88 87 78 57 69 87 82 27 93 99 32 0 0 2 0 0 0 3 5 6 5 5
100 100 100 100 100 100 100 100 100 100 100 100 100 100 100 100 100 100 100 98 81 82 43 68 71 49 84 30 41 96 77 27 5 2 0 4 4 2 4 5 10 63 8
100 100 100 100 100 100 100 100 100 100 100 100 100 100 100 100 100 100 100 100 100 100 26 48 67 89 22 89 17 5 48 13 5 4 5 5 5 5 5 5 24 13 2
100 100 100 100 100 100 100 100 100 100 100 100 100 100 100 100 100 100 100 100 100 100 100 100 98 99 92 100 66 38 18 31 5 3 5 23 5 5 5 5 5 4 80
100 100 100 100 100 100 100 100 100 100 100 100 100 100 100 100 100 100 100 100 100 100 100 100 100 100 100 100 98 100 94 93 97 54 98 94 56 5 6 13 3 5 7
100 100 100 100 100 100 100 100 100 100 100 100 100 100 100 100 100 100 100 100 100 100 100 100 100 100 100 94 100 100 100 100 100 100 100 55 64 8 5 99 16 51 53
100 100 100 100 100 100 100 100 100 100 100 100 100 100 100 100 100 100 100 100 100 100 100 100 100 100 100 100 100 100 100 100 100 93 98 100 100 98 92 100 93 98 100

GFSSE_prec_cloud_081.txt.gz
Cloud_Cover
28 54 99 83 96 23 8 5 5 5 5 2 53 0 0 0 11 12 19 0 0 1 0 0 80 18 11 58 77 0 0 0 0 1 0 4 22 3 0 18 88 91 58
25 18 43 97 23 29 5 5 5 5 5 5 2 0 0 6 9 22 20 0 0 6 0 0 97 100 98 5 60 0 0 0 0 0 0 0 0 0 0 0 12 82 58
25 50 10 80 35 5 5 5 5 5 5 5 3 0 0 1 12 41 22 0 0 46 100 20 59 99 49 8 0 0 0 0 0 0 0 0 0 0 0 0 5 7 63
66 91 71 5 8 5 5 8 5 10 12 6 4 5 0 3 22 93 15 0 19 100 100 62 100 59 16 8 1 0 0 0 0 0 7 1 0 0 2 0 5 100 98
100 99 100 75 5 5 5 6 5 5 5 63 5 4 0 4 21 77 11 1 99 100 100 67 1 1 1 8 8 0 0 0 0 2 21 31 15 4 0 0 5 80 17
100 100 100 66 62 39 8 5 5 5 5 19 5 4 5 23 88 100 9 93 100 100 2 4 73 1 0 0 4 0 0 0 0 4 6 20 18 100 33 0 5 5 15
100 100 95 1 7 26 9 9 19 5 23 6 13 5 5 54 100 93 64 69 100 38 12 4 0 59 0 3 1 0 0 0 0 5 22 18 29 16 18 5 5 8 68
100 99 45 3 0 5 5 5 5 5 39 9 56 12 98 100 100 94 53 65 73 26 6 3 0 0 0 5 0 0 0 4 5 5 13 8 21 11 5 5 5 80 52
100 100 34 64 6 3 5 5 5 5 5 70 86 51 20 100 100 100 100 98 100 12 5 5 0 0 0 0 0 0 1 21 60 36 7 6 100 27 5 71 96 100 100
100 100 100 38 62 22 50 5 14 5 5 53 100 100 100 100 100 100 98 100 97 5 5 1 5 5 1 0 0 0 0 0 3 5 5 5 5 72 38 100 100 100 53
97 79 100 100 100 100 100 39 5 5 5 74 100 100 100 91 90 77 26 61 19 5 8 49 5 2 5 2 0 0 1 3 5 5 5 5 35 100 92 32 86 97 49
100 100 100 100 100 99 84 64 5 5 5 5 82 100 89 10 6 44 100 100 100 82 33 5 5 24 5 4 3 15 3 3 5 5 5 21 53 16 6 18 95 100 42
100 100 100 100 100 100 100 100 100 83 5 14 25 57 78 44 88 100 58 12 47 43 19 5 85 98 100 100 56 5 5 5 5 1 5 5 5 70 28 5 99 94 14
100 100 100 100 100 100 100 100 100 100 100 90 8 20 100 100 100 93 70 100 100 100 100 95 75 100 72 21 5 5 5 5 5 10 7 5 39 23 51 5 56 94 100
100 100 100 100 100 100 100 100 100 100 100 100 100 100 100 100 100 100 100 100 100 100 100 100 100 100 45 9 5 5 18 20 49 43 53 75 64 61 57 90 50 100 100
100 100 100 100 100 100 100 99 100 100 100 100 100 100 100 100 100 100 100 100 100 100 100 100 100 98 88 38 5 12 28 15 6 41 78 52 23 91 77 97 100 93 34
100 100 100 100 100 100 100 100 100 100 100 100 100 100 100 99 100 100 100 100 100 100 100 100 95 100 90 38 28 28 19 23 42 24 6 26 6 11 70 33 16 4 3
100 100 100 100 100 100 100 100 100 100 100 100 100 100 100 100 100 100 100 100 100 100 100 81 72 95 94 69 33 15 68 14 14 11 49 34 15 5 9 4 5 0 2
100 100 100 100 100 100 100 100 100 100 100 100 100 100 100 100 100 100 100 100 100 100 100 87 86 79 100 100 89 75 100 98 8 24 10 12 14 8 5 5 4 4 2
100 100 100 100 100 100 100 100 100 100 100 100 100 100 100 100 100 100 100 100 100 100 100 86 69 94 100 100 97 100 100 14 36 6 8 4 5 15 7 5 5 2 0
100 100 100 100 100 100 100 100 100 100 100 100 100 100 100 100 100 100 100 100 100 100 100 100 100 100 100 93 100 90 7 5 8 23 0 1 3 5 5 5 10 24 0
100 100 100 100 100 100 100 100 100 100 100 100 100 100 100 100 100 100 100 100 100 100 100 100 100 100 100 89 64 21 38 71 3 5 5 3 5 4 4 5 5 84 66
100 100 100 100 100 100 100 100 100 100 100 100 100 100 100 100 100 100 100 100 100 100 100 100 100 100 100 98 100 82 36 7 73 5 6 5 5 2 1 5 5 5 10
100 100 100 100 100 100 100 100 100 100 100 100 100 100 100 100 100 100 100 100 100 100 100 100 100 100 100 100 99 100 70 80 38 58 91 78 7 5 5 47 5 5 3
100 100 100 100 100 100 100 100 100 100 100 100 100 100 100 100 100 100 100 100 100 100 100 100 100 100 100 100 100 100 100 100 100 100 99 88 99 89 19 49 5 82 99
100 100 100 100 100 100 100 100 100 100 100 100 100 100 100 100 100 100 100 100 100 100 100 100 100 100 100 100 100 100 100 100 100 100 100 100 93 89 95 80 96 100 35

GFSSE_prec_cloud_084.txt.gz
Cloud_Cover
6 1 5 3 5 14 5 5 5 49 5 18 8 1 0 0 3 22 18 0 0 0 0 4 13 24 86 17 0 0 0 0 0 0 2 15 39 75 9 19 14 19 100
28 5 2 5 5 6 5 5 5 5 19 26 60 5 4 0 12 18 25 0 0 0 5 100 50 17 35 7 0 0 0 0 0 0 0 0 0 0 0 0 69 100 100
96 10 5 0 5 5 5 5 47 17 18 5 26 5 5 3 15 87 12 0 0 3 100 100 94 100 7 0 0 0 0 0 0 0 0 0 0 0 0 0 5 5 16
90 86 5 14 1 5 5 5 5 9 17 5 5 5 5 7 19 100 7 0 41 76 15 99 100 38 2 0 0 0 0 0 0 0 0 0 0 0 0 0 1 4 5
74 68 10 33 24 3 5 5 5 9 5 5 5 5 64 5 75 100 3 2 99 100 86 100 76 9 16 0 0 0 0 0 0 0 0 2 0 0 0 0 1 5 6
62 71 10 24 44 0 24 10 12 5 5 2 5 5 5 5 87 100 0 75 100 69 97 0 0 0 0 1 0 0 0 0 0 0 0 0 0 0 0 0 5 16 100
97 21 32 6 3 0 1 40 14 5 2 5 5 2 5 7 90 86 55 100 100 100 19 72 5 0 0 2 0 0 0 0 1 62 11 22 5 6 5 5 7 87 100
6 6 69 20 5 2 0 5 5 5 3 0 5 4 4 22 100 93 95 100 100 21 12 5 10 99 3 8 0 0 0 1 5 58 48 44 10 5 6 57 59 46 91
6 16 84 42 17 5 4 0 3 17 6 52 2 4 65 98 100 100 100 100 100 11 17 5 5 4 4 1 1 0 0 0 3 4 34 22 6 5 14 92 48 81 54
22 44 100 100 76 5 4 5 5 5 77 6 6 39 100 60 100 100 100 100 100 99 32 5 5 5 5 5 5 0 4 0 0 0 0 3 5 5 5 5 17 5 45
9 94 100 100 100 100 60 14 34 45 20 19 89 86 100 100 100 100 100 100 34 5 5 7 9 6 5 5 5 2 4 3 5 4 5 5 5 2 18 5 28 85 92
4 87 100 100 100 100 100 40 42 44 31 93 100 83 100 99 100 78 76 100 91 28 99 100 100 100 74 8 4 45 100 78 1 5 5 5 5 20 85 86 58 64 90
68 100 100 100 100 100 100 100 97 25 13 34 100 100 100 85 42 19 54 78 71 99 100 100 68 51 84 62 86 99 46 8 5 5 5 5 31 95 57 100 97 100 100
12 99 100 100 100 100 100 100 89 29 28 6 5 94 100 27 9 8 62 79 89 100 100 100 100 100 100 100 100 100 15 45 5 9 6 5 24 94 36 100 100 96 98
83 100 100 100 100 100 100 100 97 33 78 86 34 10 99 100 46 7 70 100 100 100 100 100 100 75 100 98 80 100 24 5 5 5 16 49 62 54 16 47 40 96 100
81 100 100 100 100 100 100 100 100 100 95 100 100 100 100 100 100 100 100 100 100 100 100 100 100 98 100 97 83 98 45 5 9 87 100 81 13 5 5 5 15 100 88
44 100 100 100 100 100 100 100 100 100 98 100 100 100 100 100 100 100 100 100 100 100 100 100 100 100 100 100 95 96 79 46 88 81 40 8 22 7 5 7 55 100 5
48 100 100 100 100 100 100 100 100 100 100 96 56 11 50 73 99 100 100 100 100 100 100 100 100 100 100 86 95 89 88 97 96 100 97 100 99 5 3 5 36 54 81
100 100 100 100 100 100 100 100 100 100 100 100 100 70 70 90 100 100 100 100 100 100 100 100 100 100 100 99 99 43 65 100 98 100 25 26 11 1 1 4 32 88 39
100 100 100 100 100 100 100 100 100 100 100 100 100 100 100 100 100 100 100 100 100 100 100 100 100 100 100 100 85 57 99 100 100 100 94 86 8 4 0 5 5 4 4
100 100 100 100 100 100 100 100 100 100 100 100 100 100 100 100 100 100 100 100 100 100 100 100 99 100 100 100 97 100 100 100 100 100 100 19 38 29 4 4 96 5 51
100 100 100 100 100 100 100 100 100 100 100 100 100 100 100 100 100 100 100 100 100 100 100 100 100 100 100 100 99 100 100 100 100 100 100 87 26 5 18 3 4 17 55
100 100 100 100 100 100 100 100 100 100 100 100 100 100 100 100 100 100 100 100 100 100 100 100 100 100 100 100 100 100 100 100 100 100 98 65 5 5 5 5 5 27 26
100 100 100 100 100 100 100 100 100 100 100 100 100 100 100 100 100 100 100 100 100 100 100 100 100 100 100 100 100 100 100 100 100 87 96 55 47 5 17 79 34 5 64
100 100 100 100 100 100 100 100 100 100 100 100 100 100 100 100 100 100 100 100 100 100 100 100 100 100 100 100 100 100 100 100 100 100 100 100 100 100 98 67 100 97 83
100 100 100 100 100 100 100 100 100 100 100 100 100 100 100 100 100 100 100 100 100 100 100 100 100 100 100 100 100 100 100 100 100 100 100 100 100 99 95 93 83 100 96

GFSSE_prec_cloud_087.txt.gz
Cloud_Cover
35 5 5 3 8 74 5 6 5 0 0 5 1 0 2 6 36 24 0 0 0 7 14 7 22 76 0 5 0 2 87 52 1 12 29 44 75 62 3 0 12 95 44
33 7 5 0 0 6 6 5 16 1 0 4 5 5 26 6 13 66 10 0 0 0 2 13 99 60 0 0 0 0 0 0 0 0 0 0 0 0 1 0 99 100 96
5 5 3 1 0 0 4 4 23 10 2 0 5 5 45 5 17 100 7 0 0 6 96 18 14 15 0 0 0 0 0 0 0 0 0 0 0 0 0 0 5 5 10
4 6 4 2 0 0 0 3 5 5 5 5 5 5 5 6 58 100 3 0 0 91 100 96 0 0 0 0 0 0 0 0 0 0 0 0 0 3 0 5 5 5 6
14 11 94 9 0 0 0 0 5 5 5 5 5 9 5 5 82 100 3 0 0 24 100 100 27 0 0 0 0 0 0 0 0 0 0 0 0 0 0 5 5 5 64
4 4 40 100 16 0 0 0 5 8 5 5 5 17 5 5 82 91 5 1 93 98 62 79 1 0 0 0 0 0 0 0 0 0 5 3 5 5 5 5 5 5 6
30 19 1 74 11 5 1 2 0 3 5 5 5 3 5 5 60 35 5 100 92 100 61 8 8 0 0 0 0 0 0 0 0 0 5 32 5 28 7 5 5 6 9
5 57 20 10 5 10 5 5 5 0 20 6 48 2 0 5 29 100 36 100 97 98 39 5 5 2 0 2 0 0 0 0 0 0 0 10 9 5 5 5 4 5 5
97 78 100 93 94 99 7 5 5 1 1 5 20 5 5 5 99 100 69 100 100 76 23 5 9 68 7 5 1 2 5 1 0 0 5 5 5 5 2 4 5 5 30
52 49 98 100 100 98 100 87 8 5 5 56 5 10 6 79 100 81 43 100 100 73 39 8 5 7 5 5 5 5 6 2 0 5 5 5 5 5 5 5 22 39 92
64 56 42 100 100 100 100 99 99 58 6 17 79 78 100 83 100 100 100 100 100 100 33 63 6 5 7 44 5 72 26 34 4 100 100 7 5 5 6 5 60 93 91
6 32 56 87 100 100 100 100 99 100 69 60 100 85 100 100 100 100 100 100 92 100 100 100 98 93 100 66 100 100 100 75 85 29 23 51 10 5 59 9 18 29 96
5 5 5 8 37 100 100 100 100 100 100 44 100 100 100 100 100 100 100 100 46 67 95 94 75 100 100 100 100 100 66 100 74 10 5 16 7 5 66 5 7 31 36
1 0 5 5 5 96 100 100 100 100 100 96 52 100 100 100 100 100 100 50 28 68 98 67 88 100 100 100 100 100 41 98 26 70 5 5 5 5 5 5 10 24 5
58 6 3 19 99 100 100 100 100 100 100 100 66 100 100 100 100 100 100 60 15 30 89 100 67 80 100 100 100 100 100 97 40 88 55 41 20 5 17 5 5 5 5
51 36 4 52 100 100 100 100 100 100 100 100 100 69 61 100 100 100 79 42 35 69 96 97 100 100 100 100 100 100 100 97 100 92 88 100 11 5 5 6 7 10 5
46 62 5 18 100 100 100 100 100 100 100 99 100 97 100 100 100 99 86 100 100 100 100 100 100 100 100 100 98 100 100 93 100 90 64 11 18 98 5 14 90 36 5
100 81 54 5 96 100 100 100 100 100 100 100 100 70 88 89 92 100 100 100 100 100 100 100 100 100 100 100 100 100 100 100 64 84 100 100 100 100 9 7 8 5 2
97 90 89 59 31 98 100 100 100 100 100 100 100 100 100 100 100 100 100 86 87 100 100 100 100 100 100 100 100 100 100 100 88 99 86 78 100 67 48 14 5 25 5
58 96 95 100 100 100 100 100 100 100 100 100 100 100 100 100 100 100 100 98 96 100 100 100 100 100 100 100 100 100 100 100 16 100 100 93 100 81 62 100 56 5 85
96 16 99 100 100 100 100 100 100 100 100 100 100 100 100 100 100 100 100 100 100 100 100 100 100 100 100 100 100 100 100 100 100 84 100 97 100 100 100 68 97 27 47
69 99 100 100 100 100 100 100 100 100 100 100 100 100 100 100 100 100 100 100 100 100 100 100 100 100 100 100 100 100 100 100 100 23 70 100 95 100 100 69 48 5 4
33 100 100 100 100 100 100 100 100 100 100 100 100 100 100 100 100 100 100 100 100 100 100 100 100 100 100 100 100 100 100 100 100 100 100 100 100 100 100 28 5 5 5
98 100 100 100 100 100 100 100 100 100 100 100 100 100 100 100 100 100 100 100 100 100 100 100 100 100 100 100 100 100 100 100 100 100 100 99 99 99 38 11 48 72 5
100 100 100 100 100 100 100 100 100 100 100 100 100 100 100 100 100 100 100 100 100 100 100 100 100 100 100 100 100 100 100 100 100 100 100 100 100 100 100 100 100 57 64
100 100 100 100 100 100 100 100 100 100 100 100 100 100 100 100 100 100 100 100 100 100 100 100 100 100 100 100 100 100 100 100 100 100 100 100 100 100 100 100 100 100 62

GFSSE_prec_cloud_090.txt.gz
Cloud_Cover
36 4 2 13 9 10 91 85 2 0 0 1 0 2 57 26 88 1 0 4 3 0 1 36 43 100 100 76 55 100 13 10 64 51 69 87 58 85 0 0 57 26 65
0 5 1 5 0 9 5 6 21 0 0 0 4 1 89 100 86 0 0 5 12 4 6 66 26 1 0 0 4 21 0 0 0 0 0 0 0 0 0 0 7 62 100
4 1 3 0 2 4 1 0 5 5 5 5 0 72 99 6 93 8 0 1 4 4 40 98 10 0 0 0 0 0 0 0 0 0 0 0 0 0 0 1 5 5 5
1 3 1 4 0 1 0 0 0 2 5 5 5 4 7 6 89 100 4 0 0 37 1 32 1 0 0 0 0 0 0 0 0 0 0 0 0 0 0 2 5 5 4
1 1 0 3 3 2 4 0 0 0 0 5 5 5 5 13 70 100 5 4 0 76 83 2 0 0 0 0 0 0 0 0 0 0 0 0 5 5 5 5 5 5 4
7 1 0 2 5 4 1 1 0 0 0 3 5 5 70 79 39 92 5 11 5 58 100 38 0 0 0 0 0 0 0 0 0 0 0 0 4 5 5 5 5 5 5
4 0 0 2 5 22 5 5 5 13 2 0 0 5 22 33 11 6 6 41 40 62 100 45 2 0 0 0 0 0 0 0 0 0 0 0 0 2 1 5 5 5 5
15 2 23 48 47 43 84 5 15 5 5 0 0 5 5 5 5 5 5 95 67 63 99 60 4 1 0 0 0 0 0 0 0 4 0 0 5 5 5 0 4 5 5
35 5 14 44 95 35 23 19 25 73 5 3 0 0 3 5 5 100 31 100 100 24 5 5 5 5 5 1 3 5 0 2 2 5 1 5 5 73 5 5 5 5 15
98 23 55 44 72 44 36 100 95 5 5 5 1 3 0 4 22 100 48 100 75 98 70 76 17 7 5 5 5 5 4 5 5 98 6 5 61 5 5 5 5 5 5
70 85 10 10 84 34 56 50 35 66 5 5 2 2 5 5 50 100 80 100 82 83 78 27 73 100 66 9 5 5 11 5 99 100 14 12 9 51 25 5 5 5 5
100 83 71 65 30 100 100 56 54 16 98 20 47 14 2 6 75 100 100 100 100 6 5 7 99 100 100 100 78 81 54 62 100 99 48 9 43 5 5 6 6 5 27
30 55 62 34 30 22 52 99 96 100 89 100 56 95 82 34 99 100 100 100 100 96 40 13 12 100 100 96 100 100 46 78 100 100 100 6 10 21 5 5 22 5 6
5 2 32 42 20 5 14 56 100 100 50 100 51 37 100 91 100 100 99 100 100 100 56 48 51 69 72 100 100 81 71 100 100 100 100 60 24 80 5 12 5 5 5
5 5 4 3 2 5 42 11 84 100 100 100 100 75 100 100 100 86 94 100 100 100 97 63 64 94 97 100 100 97 100 100 100 100 96 100 5 8 5 5 5 5 5
4 5 5 11 3 0 39 21 36 100 100 100 94 49 74 100 100 100 100 100 100 100 100 100 100 100 100 100 100 100 100 100 100 100 100 65 77 46 19 7 5 41 5
2 0 0 14 24 33 17 17 35 52 100 100 78 100 76 100 100 100 100 100 100 100 100 100 100 100 100 100 100 100 100 100 100 100 100 99 93 46 79 5 5 31 5
0 1 1 9 56 32 24 23 18 45 100 100 100 100 100 100 100 100 100 100 100 100 100 100 100 100 100 100 100 100 100 100 100 100 100 82 100 99 92 8 28 46 17
0 0 34 19 74 5 5 16 41 4 100 100 100 100 100 100 100 100 100 100 100 100 100 100 100 100 100 100 100 100 100 100 89 100 100 100 99 24 27 6 5 15 5
0 3 4 79 36 5 33 66 67 80 100 100 100 100 100 100 100 100 100 100 100 100 100 100 100 100 100 100 100 100 100 100 100 88 100 100 100 88 10 5 17 94 39
6 20 10 64 8 6 72 16 84 100 100 100 100 100 100 100 100 100 100 100 100 100 100 100 100 100 100 100 100 100 100 100 100 100 100 100 100 98 48 5 5 5 44
12 41 44 33 13 41 80 91 80 100 100 100 100 100 100 100 100 100 100 100 100 100 100 100 100 100 100 100 100 100 100 100 98 94 100 99 91 100 78 43 9 31 14
95 100 100 97 56 54 82 56 100 100 100 100 100 100 100 100 100 100 100 100 100 100 100 100 100 100 100 100 100 100 100 100 100 100 100 100 83 46 57 24 47 86 57
100 100 100 89 100 82 90 92 100 100 100 100 100 100 100 100 100 100 100 100 100 100 100 100 100 100 100 100 100 100 100 100 100 100 97 100 100 86 98 97 96 26 57
100 100 100 100 100 100 100 100 100 100 100 100 100 100 100 100 100 100 100 100 100 100 100 100 100 100 100 100 100 100 100 100 100 100 100 100 100 100 100 100 100 100 100
100 100 100 100 100 100 100 100 100 100 100 100 100 100 100 100 100 100 100 100 100 100 100 100 100 100 100 100 100 100 100 100 100 99 100 89 100 100 96 100 100 100 100

GFSSE_prec_cloud_093.txt.gz
Cloud_Cover
7 13 0 0 2 3 2 2 4 4 0 0 6 44 91 41 22 0 0 0 0 0 27 90 43 99 90 100 97 19 0 10 0 78 82 29 67 47 0 0 0 95 21
3 3 0 0 0 0 0 0 0 3 0 0 82 100 100 100 63 0 1 10 0 6 39 86 100 100 10 96 59 0 0 1 0 0 0 0 0 1 0 1 5 96 94
3 0 0 1 3 1 0 0 0 0 1 0 11 100 100 100 83 0 3 5 4 16 46 50 15 0 0 12 0 0 0 0 0 0 0 0 0 2 0 5 5 5 5
0 0 0 0 0 2 5 5 0 0 0 0 0 3 81 16 62 5 5 9 10 10 50 2 0 0 0 0 0 0 0 0 0 0 0 0 0 0 0 3 5 5 5
28 14 1 3 5 5 0 5 8 4 0 0 3 1 4 5 18 87 7 41 5 0 0 0 0 0 4 5 2 0 0 0 0 0 0 0 0 0 0 5 5 5 5
11 10 0 0 1 5 1 0 5 9 4 0 0 5 3 11 20 100 5 57 46 11 5 0 0 0 0 0 0 0 0 0 0 0 0 0 0 0 0 0 0 5 5
21 11 1 0 0 0 0 0 0 3 5 0 0 0 0 14 8 94 27 92 57 82 56 5 0 0 0 0 0 0 0 0 0 0 0 0 0 2 0 4 5 4 0
61 31 0 0 0 0 3 17 2 5 4 5 0 0 4 0 4 6 98 62 100 91 100 42 5 0 0 0 0 0 0 0 0 0 0 5 4 6 5 6 5 5 5
45 94 94 29 4 14 4 36 90 15 30 19 5 2 0 5 0 5 65 99 52 99 100 93 6 2 4 2 0 0 2 5 5 4 5 5 5 9 5 4 5 5 5
97 40 5 88 100 41 3 0 2 25 9 18 45 5 5 30 5 0 71 66 100 78 100 91 11 5 5 5 4 5 3 5 0 5 61 51 100 6 4 5 15 5 5
100 73 32 15 11 48 28 7 12 6 5 5 17 10 5 5 4 24 55 5 87 20 46 100 89 51 83 100 61 5 5 5 5 11 25 100 100 58 5 5 5 6 11
100 97 58 22 21 13 59 81 100 17 7 13 34 6 5 5 5 5 100 35 53 100 100 100 100 85 75 64 100 100 80 66 64 42 20 96 100 80 40 5 5 24 16
100 100 100 58 86 13 57 100 100 66 58 99 94 98 8 12 5 6 50 86 95 99 100 100 76 98 99 78 100 100 100 100 89 45 6 52 100 100 32 5 8 14 8
40 71 30 22 15 4 5 73 100 100 100 94 99 100 100 45 24 55 71 100 69 99 100 100 100 100 68 66 93 99 100 100 91 29 74 100 100 100 21 15 5 81 41
1 3 4 25 28 12 9 33 70 100 72 100 100 100 82 100 76 97 100 90 100 85 100 100 100 99 100 100 100 100 81 88 65 87 100 100 100 100 100 55 5 5 22
0 3 5 4 25 1 20 30 12 65 89 14 99 100 100 70 100 100 99 99 100 100 86 100 99 100 78 100 100 100 100 100 98 100 100 65 100 96 100 100 26 57 5
5 1 0 3 0 0 9 18 20 12 7 42 5 58 76 72 89 95 100 100 100 100 100 100 100 100 100 98 100 100 100 100 100 100 100 100 100 100 100 6 69 68 5
5 4 1 0 0 0 1 24 41 36 15 30 4 0 31 42 94 97 100 99 100 100 100 100 100 100 97 98 100 100 100 100 100 100 100 100 100 100 100 100 86 62 5
5 4 2 0 9 19 25 30 33 14 29 30 61 16 82 100 79 100 87 100 100 100 100 100 100 100 100 100 100 100 100 100 100 100 100 100 99 100 100 81 82 51 10
5 5 1 2 0 10 15 38 50 49 90 68 25 49 58 79 100 100 96 100 100 100 100 100 100 100 100 100 100 100 100 100 100 100 100 100 100 100 91 42 100 56 29
19 15 8 6 5 14 21 54 48 51 5 65 75 97 100 100 100 100 100 100 100 100 100 100 100 100 100 100 100 100 100 100 100 100 100 100 100 100 100 100 94 5 20
89 36 12 16 18 12 20 7 4 5 6 7 100 75 100 100 100 100 99 100 100 100 100 100 100 100 100 100 100 100 100 100 100 100 100 100 100 100 100 100 100 14 65
45 44 67 36 22 6 42 36 34 30 53 96 100 100 100 100 100 100 100 100 100 100 100 100 100 100 100 100 99 100 100 100 100 100 100 100 100 100 100 100 100 75 60
43 53 62 93 87 95 77 91 100 75 41 67 98 100 100 100 100 100 100 100 100 100 100 100 100 100 100 100 100 100 100 100 100 100 100 100 100 100 100 100 100 91 77
99 100 100 100 100 96 98 82 100 95 97 100 68 100 100 100 100 100 100 100 100 100 100 100 100 100 100 100 100 100 100 100 100 88 76 98 100 92 100 100 100 100 100
100 100 100 100 100 100 100 100 100 99 100 100 100 100 100 100 100 100 100 100 100 100 100 100 100 100 100 100 100 100 100 100 100 100 100 99 95 98 78 94 100 85 90

GFSSE_prec_cloud_096.txt.gz
Cloud_Cover
8 0 0 0 0 2 34 1 11 0 0 20 100 100 100 81 77 12 0 0 0 7 32 14 53 20 93 100 53 11 5 9 4 32 9 51 99 4 1 4 86 10 41
1 2 0 3 5 3 0 0 0 0 0 5 25 100 100 100 24 0 0 0 0 14 20 100 93 88 100 96 46 18 0 0 0 0 0 0 0 0 0 0 24 37 8
4 5 0 4 4 26 1 0 4 0 0 1 90 100 100 100 85 4 18 0 2 22 14 100 100 5 100 0 0 0 0 0 0 0 0 0 0 0 0 3 4 3 5
1 15 0 0 55 24 39 1 0 1 1 0 3 99 87 99 83 55 50 4 12 17 34 5 5 0 30 0 0 0 0 0 0 0 0 0 0 0 0 0 0 4 5
8 0 0 0 0 30 19 1 2 1 5 1 0 9 5 11 92 5 5 7 5 30 5 5 0 0 0 0 0 0 0 0 0 0 0 0 0 3 0 4 1 3 1
44 1 0 3 3 0 0 12 10 0 2 55 5 0 4 5 10 7 5 5 5 28 29 5 5 0 6 0 0 0 0 0 0 0 0 0 0 2 0 0 5 3 2
74 11 0 18 0 0 0 0 0 7 8 3 5 26 3 7 0 99 5 37 45 26 96 27 5 5 5 5 0 0 0 0 0 0 0 0 0 4 5 5 4 2 5
95 30 0 100 23 0 0 0 0 0 5 5 4 19 100 10 0 0 4 5 40 62 36 56 50 7 6 5 2 0 0 0 0 0 0 0 0 2 5 5 5 5 5
94 23 15 63 100 98 30 39 96 38 62 5 5 5 5 5 10 23 5 6 38 22 32 51 5 100 94 5 5 0 2 0 0 0 0 0 5 11 100 5 5 5 5
100 87 34 13 87 99 100 46 84 1 3 8 54 6 5 0 5 8 2 5 45 100 100 22 85 99 100 52 5 5 5 5 0 0 5 4 4 59 100 100 5 1 5
100 100 100 69 12 5 58 74 34 23 3 7 18 5 5 7 5 28 77 4 5 93 100 100 83 34 64 93 27 5 5 22 5 5 5 5 18 6 90 100 95 5 5
100 100 100 100 52 71 27 60 72 87 57 43 98 50 11 6 30 44 22 6 5 6 46 100 100 59 19 43 88 81 100 100 99 98 96 10 30 5 10 100 100 20 5
76 100 100 100 80 89 95 78 71 100 100 100 95 100 85 17 7 12 64 90 98 21 20 6 39 52 15 58 99 100 100 100 100 100 100 100 90 5 69 100 100 98 58
17 33 100 100 90 93 96 76 72 100 100 100 100 89 72 98 53 47 82 100 100 78 22 15 33 59 100 50 56 100 78 90 100 100 100 100 31 9 99 100 100 92 68
11 8 60 46 28 63 76 14 66 82 86 98 100 100 100 100 80 20 64 66 100 100 87 85 87 100 66 63 78 65 83 100 100 100 100 98 98 90 76 100 100 100 100
0 4 5 18 24 13 11 14 9 11 82 94 100 98 100 94 100 100 87 64 93 100 100 100 94 90 100 95 98 47 69 64 100 100 100 100 39 99 100 100 100 100 100
0 0 0 5 3 33 16 1 10 12 0 69 96 91 100 68 56 100 100 100 100 100 100 100 100 98 100 95 99 95 100 100 68 72 100 100 97 77 100 100 100 100 90
0 0 5 5 0 11 12 7 19 17 18 8 19 84 80 7 10 36 100 98 82 100 100 100 100 100 100 84 82 99 100 100 88 95 88 100 100 100 100 100 65 100 100
0 0 1 5 5 0 3 18 24 21 39 29 14 6 10 5 5 24 47 96 98 54 100 100 100 100 100 98 96 100 100 100 100 100 100 100 100 100 100 100 100 100 100
3 2 2 3 0 8 22 31 58 78 64 37 54 50 38 8 0 34 43 20 100 60 26 68 100 100 100 100 100 100 100 100 100 100 100 100 100 100 100 100 100 100 100
5 5 0 1 5 25 58 100 100 100 100 85 25 55 100 41 5 87 54 52 100 82 41 100 98 100 100 100 100 100 100 100 100 100 100 100 100 100 98 100 100 100 100
100 77 36 14 10 21 39 36 21 5 12 8 3 5 59 70 12 100 98 69 100 100 82 97 100 100 100 100 100 100 100 100 100 100 100 100 100 100 100 100 100 100 94
88 94 100 94 60 70 69 47 66 92 90 63 50 39 39 30 92 100 100 100 100 100 100 100 100 100 100 100 100 100 100 100 100 100 100 100 100 100 100 100 100 96 66
100 96 99 100 50 86 35 94 100 100 99 94 31 26 12 28 91 100 100 100 100 100 100 100 100 100 100 100 100 100 100 100 100 100 100 100 100 100 100 100 64 99 100
100 100 100 100 78 99 98 91 66 99 100 72 100 92 66 23 99 100 100 100 100 100 100 100 100 100 100 100 100 100 100 100 100 100 100 100 100 100 100 100 100 100 100
100 99 100 100 100 100 100 100 100 100 98 77 100 100 100 100 100 100 100 100 100 100 100 100 100 100 100 100 100 100 100 100 100 100 100 100 100 100 100 100 100 100 96

GFSSE_prec_cloud_099.txt.gz
Cloud_Cover
23 42 0 0 0 1 4 0 3 0 1 64 100 100 78 100 27 1 0 0 0 68 28 14 7 4 5 8 40 10 34 54 53 5 0 0 3 0 0 10 20 83 88
41 19 5 0 0 4 1 5 5 5 0 18 100 68 95 99 100 18 0 0 0 17 8 42 37 11 18 94 69 22 8 0 0 0 0 0 0 0 0 0 7 32 88
2 38 4 0 0 0 1 0 5 5 4 0 28 65 68 86 56 5 3 0 9 10 0 100 12 100 82 48 31 0 0 0 0 0 0 0 0 0 0 0 0 12 19
11 29 12 0 0 2 0 3 1 5 6 15 13 96 99 99 100 56 1 5 8 0 0 94 2 30 0 0 0 0 0 0 0 0 0 0 0 1 0 0 0 0 0
45 24 1 0 0 0 0 0 0 0 0 6 48 34 7 84 100 100 7 3 5 5 0 1 0 5 5 2 0 0 0 0 0 0 0 0 0 2 3 5 0 0 1
78 62 0 0 0 0 0 0 0 0 0 0 0 52 62 4 40 76 91 5 5 5 5 5 5 5 5 5 4 5 0 0 0 0 0 0 0 3 0 3 5 2 5
100 46 0 0 0 0 0 0 0 0 0 0 2 0 8 58 5 5 62 5 5 5 13 5 5 5 5 5 5 2 5 0 0 0 0 0 2 5 0 0 34 5 5
100 75 84 36 1 0 48 37 0 0 0 0 0 3 4 5 29 46 10 39 5 5 8 5 8 24 6 5 5 5 5 3 0 3 4 0 0 8 3 5 96 5 4
100 100 13 78 100 5 27 100 82 8 0 4 2 5 4 5 45 28 54 78 70 5 5 5 84 69 23 7 5 5 5 5 4 5 4 5 5 3 3 25 100 89 26
100 100 100 71 11 36 5 76 100 99 90 100 100 3 27 5 5 3 4 100 35 24 5 5 40 68 74 67 10 5 5 5 5 5 5 5 5 5 5 5 37 100 100
43 100 100 100 61 78 27 94 88 100 100 100 100 65 60 52 9 5 3 4 64 6 9 5 14 70 18 90 14 97 29 5 5 5 5 5 15 59 100 64 5 11 100
12 39 100 100 80 57 32 90 68 86 82 94 99 100 100 64 48 5 5 45 49 24 92 5 2 4 5 8 92 33 99 40 5 5 5 5 16 98 100 67 6 91 100
84 20 45 100 100 75 35 73 100 100 100 76 100 100 57 100 86 100 69 7 23 34 35 39 5 5 5 5 5 46 71 100 71 6 5 5 5 100 100 100 5 21 100
51 88 5 62 100 100 33 6 80 100 84 70 78 100 100 99 27 80 96 71 28 63 100 63 45 20 5 67 66 38 39 88 100 97 36 5 47 31 100 100 95 20 100
2 4 3 17 95 100 73 13 4 100 99 96 100 100 100 100 100 100 79 100 42 53 81 100 33 77 37 13 9 82 83 56 80 80 95 100 80 69 54 10 98 95 100
0 0 1 34 53 88 36 28 10 91 81 100 100 92 86 79 98 98 100 100 15 57 62 71 85 100 56 91 100 86 14 76 19 43 87 100 100 100 78 20 86 100 100
0 0 0 0 36 61 42 43 33 82 74 98 76 63 50 15 68 37 95 33 100 75 35 62 100 100 100 47 27 67 92 7 75 5 40 62 98 100 100 100 100 100 100
0 0 0 0 0 4 33 51 32 9 69 5 5 5 8 14 0 10 36 96 74 43 99 61 100 73 100 100 94 100 87 51 66 66 11 97 100 100 98 100 100 100 100
0 0 0 0 0 0 6 8 5 5 4 1 8 0 0 1 0 16 14 20 98 100 100 87 100 82 100 87 100 100 60 84 44 12 95 96 100 100 100 100 100 100 100
0 0 0 0 0 5 26 32 47 72 76 74 21 0 0 3 34 44 21 22 29 29 100 100 100 73 100 91 100 100 100 100 100 100 100 98 100 100 100 100 100 100 100
0 0 0 0 6 43 100 100 97 49 12 63 91 39 0 0 3 66 55 40 20 86 69 100 100 100 64 76 100 92 100 100 100 100 100 100 100 100 100 100 100 100 100
1 55 78 81 47 51 49 57 38 17 20 14 14 31 24 24 32 95 99 39 37 82 100 100 100 100 100 72 100 100 100 100 100 100 100 100 100 100 100 100 100 100 100
80 100 100 100 100 100 97 91 92 98 100 100 98 99 51 46 35 97 70 34 76 100 100 100 100 100 87 98 100 100 100 100 100 100 100 100 100 100 100 100 100 100 99
100 100 100 94 100 100 100 84 70 95 100 100 51 5 5 18 28 49 94 56 69 100 100 100 100 100 89 98 100 100 100 100 100 100 100 100 100 100 100 100 100 100 100
100 100 100 72 62 68 100 100 99 100 100 100 76 66 100 100 82 68 100 98 89 60 100 100 100 100 100 100 100 100 100 100 100 100 100 100 100 100 100 100 100 100 100
100 100 68 70 92 100 100 100 100 100 100 100 100 90 100 97 100 99 100 100 95 100 99 100 100 100 100 100 100 100 100 100 100 100 100 100 100 100 100 100 100 100 100

GFSSE_prec_cloud_102.txt.gz
Cloud_Cover
94 95 32 0 3 2 0 0 0 0 0 2 91 35 17 99 20 4 1 0 0 0 7 24 4 10 17 18 17 3 14 20 31 7 0 1 15 21 5 4 82 74 7
83 84 32 0 0 0 0 1 0 0 0 8 54 8 1 88 82 5 5 5 0 29 14 20 14 7 10 74 37 99 40 18 0 0 0 0 0 0 0 0 60 52 38
88 66 23 0 0 0 0 1 5 0 3 1 19 1 3 3 100 22 32 50 22 2 6 0 0 11 21 98 18 33 15 0 0 0 0 0 0 1 0 0 0 19 19
83 72 88 2 0 0 0 0 0 0 0 4 2 0 0 0 62 20 5 8 80 5 3 12 0 90 0 92 10 16 1 0 0 0 0 0 0 0 0 4 1 0 0
75 69 87 0 0 0 2 0 0 0 0 0 3 5 4 24 78 79 7 5 58 78 26 5 0 1 0 6 1 0 0 0 0 0 0 0 0 5 10 5 8 5 3
65 91 19 0 0 0 0 0 0 0 0 0 0 0 3 5 5 42 5 5 5 100 82 38 5 5 0 1 0 0 0 0 0 0 0 0 2 5 3 6 15 7 17
77 85 55 6 4 2 5 10 5 3 1 0 0 0 0 0 3 5 5 5 5 52 100 89 94 93 39 10 11 0 0 1 0 2 0 3 4 4 5 2 5 64 82
94 92 78 4 81 94 39 8 2 8 72 75 27 3 0 0 0 1 5 5 5 6 100 100 91 90 100 50 18 5 5 3 4 0 2 1 5 8 5 8 13 92 100
22 61 95 74 15 94 100 100 47 4 98 51 16 3 5 11 3 0 0 3 64 6 18 92 98 100 100 100 97 28 5 5 5 5 0 0 0 7 5 5 5 11 70
41 20 96 92 91 48 85 100 100 2 65 100 100 100 100 97 5 1 5 0 5 21 50 100 99 100 100 100 86 100 52 14 6 5 5 4 1 8 5 5 5 5 5
10 17 62 96 75 98 62 97 100 94 97 100 100 100 100 100 98 11 6 0 0 1 12 5 5 96 26 7 15 32 25 88 74 70 39 5 5 28 6 5 5 5 5
60 100 22 76 90 94 90 54 22 44 68 96 77 100 100 100 50 4 16 54 4 1 0 2 0 5 7 5 14 29 5 34 98 99 100 94 5 94 6 1 0 6 76
5 12 49 66 81 100 98 88 43 31 100 100 100 98 57 91 65 5 5 5 5 5 37 24 21 63 34 62 100 100 72 6 14 47 86 98 100 40 17 5 5 78 100
5 5 17 6 67 90 100 99 52 31 46 100 100 100 78 99 100 60 88 28 34 27 26 94 100 78 56 90 84 97 100 100 53 60 62 66 83 100 99 8 6 32 97
0 0 0 2 21 80 100 100 78 41 26 8 98 99 100 93 100 100 100 84 30 11 64 6 100 80 51 64 82 17 18 80 100 92 43 16 94 88 100 100 100 72 27
0 0 2 5 0 100 100 100 99 80 73 54 5 1 95 100 97 84 78 100 100 81 65 56 100 66 15 100 79 75 10 19 36 93 100 100 98 87 98 92 100 100 78
0 0 4 5 5 12 100 100 100 100 73 40 6 5 30 99 84 83 75 64 100 98 74 88 90 70 40 56 100 100 73 94 99 80 99 100 100 99 86 94 98 100 100
0 0 0 0 0 0 62 98 100 100 89 70 54 30 5 60 72 46 64 35 12 17 46 44 95 72 84 43 69 98 100 70 76 45 16 41 50 100 100 75 76 100 100
0 0 0 0 0 0 0 0 44 60 54 12 0 0 23 79 81 44 52 10 6 97 13 57 98 99 98 95 96 91 100 100 100 90 100 88 5 27 100 100 96 100 100
0 0 0 0 0 0 4 28 1 3 8 0 0 0 1 3 36 5 5 4 20 91 66 66 100 100 100 100 99 85 100 100 100 98 100 100 100 100 100 100 100 100 100
0 0 0 0 0 3 0 62 22 0 0 0 4 3 0 4 2 1 21 18 80 96 56 63 53 21 99 100 100 100 42 100 100 8 100 100 100 100 100 100 100 100 100
82 62 0 0 1 86 96 79 49 34 39 43 57 48 42 38 39 37 30 21 20 58 98 94 60 70 77 100 100 100 100 36 82 88 100 94 100 100 100 100 100 100 100
100 95 81 89 100 100 100 100 100 100 93 64 84 63 28 84 95 70 72 82 80 61 44 58 56 58 100 100 100 92 100 100 6 5 80 71 100 100 100 100 100 100 100
100 100 100 100 100 100 100 100 100 100 83 63 29 5 26 93 100 100 66 54 34 34 83 40 40 90 100 100 100 100 100 100 67 90 55 100 100 100 100 100 100 100 100
100 100 100 100 100 100 100 100 99 89 60 64 92 66 100 100 98 100 100 83 50 46 100 76 100 100 100 100 100 100 100 100 100 100 100 100 100 100 100 100 100 100 100
100 99 100 100 100 100 100 100 100 100 100 100 100 100 100 100 100 100 100 100 50 100 100 82 49 100 100 100 100 100 100 100 100 100 100 100 100 100 100 100 100 100 100

GFSSE_prec_cloud_105.txt.gz
Cloud_Cover
69 87 86 5 55 5 5 1 0 0 0 1 92 96 16 46 10 4 0 0 5 4 0 10 0 55 14 8 1 0 2 11 37 1 0 0 5 25 13 6 83 16 22
59 100 19 0 1 5 5 5 5 0 0 5 5 13 4 53 70 0 2 5 5 74 12 11 48 9 26 15 47 88 48 5 0 0 0 0 0 0 0 0 52 40 21
85 100 100 18 0 0 4 5 0 0 0 0 0 2 3 0 67 5 0 5 18 16 82 18 3 20 3 90 100 100 23 0 0 0 0 0 0 0 0 0 2 5 2
43 98 77 5 0 0 0 0 0 4 0 0 0 0 0 1 0 0 15 4 10 11 100 100 31 4 0 93 14 20 8 0 0 0 0 0 0 0 0 2 5 5 5
88 100 100 81 0 2 5 0 0 0 0 0 0 0 0 1 0 3 4 5 5 5 94 66 100 56 5 89 23 19 0 0 0 0 0 0 0 0 2 0 1 5 3
45 100 100 0 5 4 5 21 6 5 5 0 0 0 0 0 1 5 5 5 4 6 26 5 54 100 97 12 5 5 2 0 0 1 3 0 6 0 0 0 5 1 5
34 36 100 2 0 5 10 100 100 100 60 89 7 5 16 7 2 0 3 5 5 5 42 5 5 72 100 100 44 5 5 5 5 5 5 7 4 2 9 16 17 6 8
89 32 73 56 0 1 5 16 100 100 100 100 76 15 36 100 56 2 0 0 7 9 5 5 5 75 100 100 100 100 62 5 5 5 5 22 5 5 14 13 9 2 17
78 98 70 43 49 0 0 4 75 100 100 100 29 100 100 23 20 13 8 4 1 5 3 35 71 29 95 100 100 100 100 100 58 8 5 11 5 29 15 5 5 14 18
8 27 69 29 100 79 56 0 2 35 100 100 100 99 100 100 100 100 50 5 5 2 8 5 5 5 20 39 100 100 100 100 100 100 93 9 39 34 30 27 36 98 99
5 8 6 71 58 98 100 80 5 7 57 99 100 94 78 72 100 100 100 93 5 0 0 16 8 2 5 67 30 51 100 86 70 85 98 100 100 99 56 6 7 76 100
5 5 5 13 99 87 88 100 65 58 5 36 80 97 100 52 10 100 100 91 47 3 2 0 6 5 2 7 82 36 23 94 87 37 63 46 84 100 100 100 98 47 16
5 5 5 1 7 100 100 77 100 100 59 5 27 27 95 81 6 34 33 44 24 22 7 1 13 10 33 0 5 5 5 5 74 97 99 93 90 93 88 96 100 100 99
4 0 0 0 0 42 100 100 100 100 35 4 86 100 100 100 96 100 96 99 79 80 6 88 22 46 10 10 0 57 39 14 66 99 100 100 100 99 68 16 9 83 100
94 9 0 1 2 2 87 51 100 69 74 7 2 4 29 97 100 100 94 100 35 20 14 68 99 97 77 79 41 3 12 26 12 6 5 5 6 31 87 29 65 47 88
4 24 5 5 5 5 6 97 74 100 100 100 51 18 0 19 38 96 97 99 99 65 33 94 100 100 90 100 100 75 20 13 49 9 5 4 4 27 78 100 100 100 100
0 0 0 1 6 5 5 63 100 100 100 100 100 35 26 2 4 5 82 77 74 62 5 59 94 100 82 86 100 94 28 56 93 41 67 5 5 16 38 93 97 100 100
0 0 0 0 0 0 4 40 100 100 100 99 89 100 88 56 30 5 5 30 5 81 96 10 5 5 5 5 5 100 56 41 77 99 100 100 54 61 29 48 52 97 100
0 0 0 0 0 0 0 0 72 100 100 99 47 54 59 21 32 5 5 34 77 33 88 26 5 11 8 6 8 16 19 71 56 61 100 100 100 66 100 99 100 70 38
4 3 0 0 0 0 0 0 32 100 100 73 31 24 8 4 0 0 0 0 11 29 23 73 7 4 8 29 32 99 95 72 21 99 100 30 100 100 76 89 100 100 100
35 24 16 0 0 0 0 0 0 100 90 54 35 23 11 5 5 3 0 0 1 3 12 92 30 53 16 37 51 77 100 100 96 33 78 98 76 78 61 100 100 100 100
100 98 68 23 3 0 0 0 0 93 100 100 100 92 72 20 16 27 18 21 0 0 44 42 5 37 72 39 53 36 94 100 100 98 71 16 19 100 100 28 99 98 99
100 100 98 100 98 77 35 14 25 59 8 97 100 100 80 38 68 51 22 16 13 0 0 0 0 5 61 91 68 62 97 100 100 81 2 6 8 10 100 73 100 100 100
100 100 100 100 100 100 100 97 100 97 100 59 100 100 93 95 27 34 94 100 100 9 45 3 5 5 14 95 95 54 38 91 100 100 98 9 57 14 8 18 88 100 98
100 100 100 100 100 100 100 100 100 100 100 100 100 73 99 75 66 70 100 99 100 95 26 2 14 22 28 56 85 100 100 99 100 100 100 100 41 8 96 100 100 100 100
100 100 100 100 100 100 100 100 100 100 100 100 100 100 100 96 61 80 99 100 100 100 100 84 32 49 99 91 96 100 100 100 100 100 100 100 100 98 99 100 100 100 100

GFSSE_prec_cloud_108.txt.gz
Cloud_Cover
100 100 98 44 2 0 0 0 3 5 5 10 58 100 19 18 6 5 5 5 3 1 1 17 6 11 7 1 3 66 14 16 3 0 0 1 12 7 9 73 8 89 100
98 72 60 0 0 0 0 5 5 5 5 5 21 34 5 67 48 1 5 5 5 2 5 6 32 15 14 3 90 70 42 0 0 0 0 0 0 0 0 5 13 29 27
71 88 96 3 0 0 0 0 0 18 10 6 5 43 32 50 5 5 4 5 11 9 30 6 85 81 11 5 100 100 9 0 0 0 0 0 0 0 0 0 0 19 22
79 99 95 0 0 0 0 0 0 0 12 20 5 5 84 100 96 18 5 2 8 5 32 42 6 80 100 66 100 87 5 0 2 0 0 0 0 0 0 0 0 4 1
54 81 100 91 46 0 0 0 4 2 2 1 5 5 5 44 31 100 30 4 0 5 5 6 50 31 11 100 68 18 5 5 2 2 4 0 4 2 0 1 0 1 0
24 100 100 66 9 0 0 5 5 5 44 99 100 11 5 5 1 6 35 5 5 5 5 5 5 48 15 71 100 100 45 6 5 5 5 5 5 5 8 10 0 0 0
99 65 100 56 62 4 0 4 5 5 68 100 100 100 98 70 8 0 0 2 4 5 20 71 54 12 6 5 38 93 100 80 18 5 5 5 5 5 26 60 11 3 2
20 52 99 98 7 1 0 0 4 2 6 100 100 100 100 95 80 99 93 86 29 4 3 10 59 93 60 50 63 77 98 100 100 93 51 56 11 5 14 24 68 74 46
0 0 18 90 100 46 0 0 0 2 5 8 100 100 57 82 37 100 85 63 13 5 5 5 3 28 36 74 50 88 100 100 100 100 100 100 100 94 54 5 7 42 23
0 0 0 3 87 78 100 48 0 0 5 5 77 100 100 100 92 95 12 55 13 35 5 5 5 5 0 0 3 47 53 98 100 100 100 100 100 100 100 100 46 5 10
5 0 2 1 0 46 100 99 36 4 3 4 5 52 99 49 42 100 64 80 66 100 98 10 5 5 5 2 0 1 5 19 63 100 100 100 100 100 100 100 100 100 100
32 8 5 0 0 0 8 99 100 20 1 5 5 5 8 5 6 5 31 39 5 5 40 26 5 5 5 5 5 4 25 0 6 80 84 95 100 100 73 85 100 100 100
90 100 93 56 8 2 0 21 93 100 100 83 67 51 42 5 22 6 6 6 5 5 4 5 5 5 5 4 5 5 0 0 5 5 9 8 5 55 89 100 100 99 96
100 100 100 100 55 9 5 1 45 70 98 100 0 0 0 5 8 52 86 33 41 5 5 5 2 5 5 5 5 5 0 0 0 0 5 6 5 5 28 44 95 100 37
96 93 99 100 100 100 97 66 23 21 99 87 3 6 16 17 84 32 96 95 91 81 58 18 5 17 19 6 5 5 5 4 0 0 4 7 18 30 76 7 7 19 5
2 1 3 5 6 15 42 70 92 95 96 13 69 2 31 61 3 0 2 84 88 91 100 95 14 9 17 100 63 16 84 13 5 4 4 5 5 5 5 4 4 1 12
3 0 0 0 0 0 0 0 0 88 40 96 87 100 79 0 0 0 0 0 3 17 97 100 99 73 5 100 99 11 7 99 64 5 5 5 88 26 98 65 8 40 5
0 0 0 0 0 0 0 0 0 0 100 100 100 100 100 70 19 38 0 1 12 5 5 5 91 95 36 66 13 5 11 34 100 28 100 81 26 37 100 95 95 18 9
0 0 0 0 0 0 0 0 0 0 23 100 100 100 61 100 98 25 1 43 5 5 5 5 5 4 5 6 74 5 29 94 5 60 94 100 100 25 28 37 90 92 22
0 0 0 0 0 0 0 0 0 0 0 33 100 100 8 13 42 65 5 6 5 4 4 4 4 3 5 5 68 64 5 22 86 5 22 41 45 42 18 18 56 97 98
100 38 63 22 1 2 0 0 0 0 0 41 100 50 0 0 0 2 6 6 5 4 1 0 0 0 0 0 20 34 29 9 5 43 0 97 100 95 100 100 87 97 100
100 87 98 100 19 30 67 13 0 0 0 0 3 4 19 10 36 77 28 12 6 3 0 0 0 0 0 0 6 96 100 71 61 100 23 80 95 88 66 100 34 94 95
100 98 52 94 100 100 20 17 3 0 1 3 4 4 98 40 45 86 46 65 28 17 4 0 0 2 7 0 0 41 94 100 98 7 32 5 5 23 86 99 71 13 34
100 94 53 100 100 100 85 72 48 99 36 90 97 70 100 87 59 100 81 98 99 79 95 100 94 7 8 38 21 0 17 97 98 85 94 69 20 20 98 100 99 92 99
100 97 100 100 100 100 100 100 100 100 100 100 100 100 100 100 88 100 100 100 100 100 96 100 100 100 100 73 46 55 44 89 100 100 100 77 100 100 57 19 16 47 100
100 100 100 100 100 100 100 100 100 100 100 96 100 98 100 100 100 100 100 100 81 26 69 100 100 100 100 91 83 97 100 99 100 100 100 100 100 100 100 100 83 19 85

GFSSE_prec_cloud_111.txt.gz
Cloud_Cover
73 100 100 37 9 5 5 4 2 5 5 11 26 26 6 15 5 5 2 5 5 33 58 9 4 2 0 0 1 2 85 4 5 4 0 2 21 17 2 0 3 12 18
100 100 68 5 1 0 2 1 0 5 7 6 43 10 13 48 5 5 5 5 5 5 6 74 9 20 5 4 22 27 1 4 3 0 0 0 0 16 18 0 0 17 22
99 96 100 14 0 0 0 0 0 0 14 99 99 100 100 100 97 36 58 40 5 8 6 5 28 16 5 60 99 33 2 3 5 5 1 3 3 5 0 0 0 24 32
64 94 72 38 59 0 0 0 0 0 0 12 39 95 100 100 100 83 100 100 100 75 9 17 46 69 61 15 55 99 62 5 5 5 5 0 5 5 5 2 0 0 0
96 64 100 87 98 4 0 0 0 0 0 0 0 5 12 14 93 80 36 100 100 100 97 22 32 9 37 15 68 33 98 82 22 28 5 5 5 5 5 9 14 5 0
63 100 100 100 93 74 0 0 12 2 13 53 50 94 100 100 73 23 5 5 73 100 100 100 84 43 5 5 26 76 99 100 100 100 38 7 5 5 5 17 5 5 5
0 69 100 100 81 24 0 0 0 5 76 100 100 100 100 100 100 100 66 41 5 1 10 94 100 16 77 57 73 19 56 23 76 100 100 97 17 5 5 5 5 5 5
0 7 100 100 97 53 33 0 0 0 5 40 59 34 74 99 100 36 13 87 100 89 27 47 5 3 23 32 5 43 51 30 85 83 100 100 100 98 58 49 14 5 5
0 0 5 53 80 66 4 2 0 0 0 5 5 5 15 82 100 100 100 100 100 66 20 70 13 5 5 5 0 7 14 6 32 95 100 100 100 100 100 100 100 100 76
0 0 4 0 35 100 46 59 0 0 0 0 0 5 5 5 47 93 5 64 100 99 54 65 100 100 29 4 5 0 0 2 14 6 97 71 100 100 100 100 100 100 100
5 5 5 5 5 0 53 100 90 6 0 0 0 2 0 5 5 64 51 5 5 8 40 88 55 100 29 28 5 5 5 10 0 0 2 6 78 99 89 16 21 84 100
5 5 5 5 5 18 5 5 14 97 36 0 0 0 0 0 5 5 5 5 5 4 5 5 49 10 73 14 14 6 23 13 5 0 0 1 5 6 48 95 100 99 33
5 5 5 8 38 30 21 34 24 12 72 84 1 0 0 2 5 4 5 5 32 5 5 5 1 3 8 12 6 26 26 24 9 4 0 0 0 0 0 0 0 4 10
100 100 100 97 60 97 67 46 39 100 100 100 100 77 6 13 22 0 3 76 76 89 16 8 22 6 7 4 5 5 5 5 3 5 0 0 2 4 5 5 5 5 7
66 56 86 98 100 99 68 83 100 100 87 100 100 94 12 5 1 0 2 86 100 100 86 29 21 74 56 17 15 5 5 32 7 5 3 0 2 3 5 5 5 7 28
5 5 5 5 2 2 2 1 1 5 8 43 100 66 80 49 10 5 9 0 47 100 98 44 36 34 100 80 93 59 10 5 40 6 7 5 5 5 5 5 5 5 7
68 77 84 64 24 40 22 5 3 0 0 0 30 100 6 6 11 4 74 63 7 8 58 1 6 9 29 76 51 93 100 67 84 100 38 25 5 5 11 35 5 7 5
0 4 4 0 2 0 2 0 0 0 0 0 0 87 53 68 5 3 0 0 0 0 0 4 0 1 14 4 70 98 97 22 82 84 82 100 100 95 73 5 13 6 7
1 3 3 1 0 0 0 0 0 0 0 0 0 4 100 58 100 100 5 0 0 0 0 5 5 5 5 5 15 33 79 7 3 33 6 44 80 84 30 96 44 88 27
0 0 43 9 0 0 8 1 0 0 0 0 0 0 100 100 80 100 100 8 4 0 3 68 20 5 5 5 5 5 3 4 7 4 6 4 4 7 64 94 30 45 92
2 94 100 100 43 9 100 89 5 0 0 0 0 0 0 37 100 100 59 29 5 5 4 17 5 5 5 3 38 4 7 6 12 4 11 8 39 3 83 100 97 98 85
74 100 99 100 21 30 98 100 97 4 0 0 0 18 33 88 90 100 49 94 100 86 14 9 5 3 0 1 2 19 45 38 0 0 7 10 8 5 4 4 32 91 78
100 100 100 94 57 83 100 100 68 0 2 12 14 85 100 100 100 95 99 100 100 100 100 100 100 97 91 30 44 82 100 14 4 6 36 31 23 5 19 2 11 85 100
99 100 67 100 70 78 100 100 100 100 98 100 100 100 100 100 100 79 96 100 100 100 98 54 81 94 100 100 48 98 50 37 90 77 6 2 0 5 5 5 5 5 59
100 100 47 100 100 100 78 100 100 74 100 100 100 98 100 94 100 100 98 82 100 100 76 91 67 45 69 100 100 95 98 100 66 100 100 100 31 2 100 64 5 72 96
100 94 96 100 100 100 94 94 100 100 100 100 100 100 96 100 100 100 100 100 98 100 91 73 45 29 31 81 100 100 100 77 72 100 75 59 53 41 100 100 98 61 91

GFSSE_prec_cloud_114.txt.gz
Cloud_Cover
89 94 100 28 4 2 5 5 5 2 34 25 8 6 6 5 5 37 13 5 5 6 60 62 57 98 21 5 4 2 2 15 8 2 0 3 22 24 41 0 93 28 33
92 94 83 43 0 4 4 4 5 1 2 1 54 5 5 8 15 48 34 5 5 8 33 59 85 55 62 13 5 5 5 4 0 0 0 0 0 12 3 57 98 22 87
56 100 100 3 0 0 0 0 0 0 0 0 0 5 95 99 96 100 58 66 45 60 28 9 71 79 7 22 91 46 78 97 8 5 5 5 0 0 0 3 0 7 62
32 64 100 36 1 0 0 0 0 0 0 0 0 0 4 90 100 52 80 100 92 68 100 100 98 71 5 5 29 87 60 58 70 30 7 5 5 4 0 0 5 5 2
56 44 100 1 100 26 0 0 0 0 0 0 0 0 0 0 2 2 5 8 5 30 36 85 100 100 67 5 4 12 85 8 91 96 61 26 10 5 4 5 5 5 5
5 100 100 89 100 100 26 0 1 2 1 0 0 5 2 62 90 98 99 90 5 6 42 8 62 100 100 89 5 5 5 17 5 53 100 100 100 41 5 5 5 5 2
0 78 100 100 100 63 39 1 0 0 5 11 72 96 100 100 100 100 100 100 54 5 2 0 2 5 57 99 76 9 5 5 60 21 17 74 100 100 100 35 5 0 4
0 9 100 100 100 96 100 14 0 0 0 3 93 100 100 100 99 92 100 100 15 31 59 16 5 4 3 5 16 26 25 5 12 5 5 8 27 97 100 100 100 97 99
0 0 0 26 27 95 87 0 0 0 0 0 0 60 100 64 98 82 100 100 100 100 100 100 30 6 11 5 5 5 5 0 5 10 45 14 5 5 61 100 100 100 100
0 0 0 0 1 98 100 100 34 0 0 0 0 0 5 42 8 5 43 38 98 99 100 99 99 7 5 5 30 32 5 5 2 0 0 54 95 75 5 92 100 100 100
1 2 5 2 0 0 1 33 96 100 22 2 1 0 0 0 2 5 18 5 5 52 76 34 62 99 100 36 5 26 5 11 5 5 2 1 0 0 4 30 78 100 100
5 5 5 4 3 3 3 4 6 18 66 93 21 0 2 0 0 0 3 5 3 4 5 5 5 24 10 33 26 6 24 34 22 8 5 5 2 0 0 0 0 2 11
6 19 19 20 9 4 5 2 0 6 51 91 100 85 5 5 5 4 2 3 3 5 6 42 5 8 9 30 28 30 26 26 34 21 5 2 0 0 0 2 0 0 0
8 5 5 18 10 38 53 70 56 32 11 34 100 100 100 67 7 6 46 6 9 14 13 42 34 27 22 20 15 19 17 23 20 5 5 4 5 5 1 0 5 0 0
93 18 24 22 22 11 7 10 65 82 63 98 100 100 100 100 86 25 19 14 34 96 94 32 52 34 30 68 32 26 18 14 5 5 5 5 5 5 4 3 4 5 2
8 16 18 13 5 0 0 0 0 3 5 5 9 7 100 100 42 6 15 19 14 9 32 27 22 47 52 49 62 47 64 50 37 12 9 5 8 16 7 5 5 5 5
3 1 5 5 5 5 5 4 3 4 4 3 2 5 8 96 69 5 5 13 8 1 4 9 98 75 78 50 73 89 92 64 65 100 99 58 49 67 82 5 5 5 5
5 0 0 0 0 0 0 1 0 0 0 0 0 0 0 1 100 4 38 8 40 59 39 0 0 4 26 33 28 34 31 56 95 77 66 94 100 99 58 80 55 40 6
0 0 0 0 8 0 0 13 0 0 0 0 0 1 0 0 10 100 7 56 14 39 49 9 0 0 0 1 10 9 14 22 5 51 6 68 61 62 95 100 100 90 84
0 1 90 100 100 6 20 42 9 0 0 0 0 0 0 0 0 86 100 90 65 73 38 24 26 80 1 0 5 5 0 2 14 19 14 57 82 10 5 5 27 38 41
0 2 100 100 35 100 100 100 100 100 30 0 0 92 99 86 83 81 60 78 62 100 95 100 20 72 5 5 12 5 7 0 0 5 6 35 5 5 5 5 5 5 5
0 27 50 25 0 62 100 100 100 100 64 78 100 80 10 42 80 88 100 98 98 100 100 100 100 98 72 78 47 46 30 31 25 9 4 8 7 5 5 5 5 5 5
0 0 3 0 0 35 100 86 71 100 86 100 98 100 91 15 100 100 87 100 100 100 100 100 100 100 99 100 100 100 46 1 3 0 11 16 5 5 0 5 93 27 43
0 3 51 4 75 96 40 51 99 100 100 100 100 100 100 98 100 100 100 100 100 100 100 100 100 100 100 100 100 99 100 86 90 48 6 12 61 2 0 0 0 16 56
21 20 2 3 86 100 100 27 100 100 100 100 100 100 100 98 100 100 98 95 99 100 100 100 100 100 100 100 100 100 100 40 99 100 97 83 12 82 36 0 0 0 5
100 81 52 42 97 100 100 100 77 80 98 100 100 99 100 100 96 100 50 48 70 88 100 100 100 99 96 75 100 88 100 100 99 100 100 100 97 87 8 0 0 4 5

GFSSE_prec_cloud_117.txt.gz
Cloud_Cover
92 92 67 32 5 6 5 3 0 1 5 6 5 5 7 5 5 5 5 5 5 5 5 9 8 53 18 77 7 5 21 24 11 4 7 6 16 14 16 6 43 11 42
93 100 100 49 15 0 0 0 3 5 5 5 28 4 0 5 14 30 5 5 4 5 5 13 13 5 9 13 14 5 22 5 5 5 5 0 0 6 3 0 1 13 54
14 100 100 21 0 0 0 0 0 0 5 5 5 4 5 3 0 5 41 69 32 60 40 36 89 100 80 64 59 8 3 42 6 5 5 5 5 5 0 0 3 1 65
2 80 42 50 0 0 0 0 0 0 0 0 0 0 0 0 0 0 2 13 24 54 100 100 99 40 89 100 100 58 6 0 27 5 5 5 5 5 5 5 0 2 10
0 2 40 1 93 60 0 0 0 0 0 0 0 0 0 0 0 0 0 0 1 4 7 87 82 93 95 93 100 100 98 65 25 5 5 6 5 8 5 5 5 2 0
10 100 100 3 0 100 99 0 0 0 0 0 0 5 2 0 0 10 13 93 72 47 76 24 12 80 100 100 100 100 100 100 30 22 2 5 10 81 100 99 16 4 4
10 82 100 100 100 100 100 44 0 0 0 0 5 5 100 17 100 83 91 100 50 29 5 4 5 5 5 4 19 98 100 100 100 89 31 5 1 5 11 99 100 100 96
0 0 0 68 98 97 100 86 1 0 0 0 0 2 54 100 100 100 100 100 100 100 46 5 23 5 5 5 5 5 5 5 4 8 20 20 17 4 4 8 51 73 100
0 0 0 0 6 100 98 62 0 0 0 0 0 0 0 7 40 34 100 100 100 100 100 100 98 75 80 14 2 5 5 5 5 5 2 2 5 26 16 23 78 80 100
0 0 0 0 0 0 35 100 95 32 0 4 0 0 0 0 0 4 63 90 100 100 97 67 50 79 42 55 8 5 5 5 5 5 5 3 0 0 9 18 5 23 87
4 5 5 0 0 0 0 0 80 100 100 41 18 4 0 0 4 2 0 3 39 31 10 17 63 95 10 5 44 53 27 19 5 6 5 5 5 2 0 7 2 0 4
9 5 3 2 4 0 3 0 0 2 84 100 100 100 81 3 1 4 5 2 0 3 3 3 4 3 6 25 34 10 28 32 43 22 8 5 5 5 5 1 17 0 0
5 5 5 15 22 5 3 5 5 5 5 28 100 100 100 97 8 4 6 0 3 21 4 5 9 16 26 38 36 34 32 29 37 32 3 5 5 4 2 3 1 11 0
6 19 23 16 24 22 32 15 7 5 2 8 68 87 100 100 100 48 28 16 13 9 11 13 19 14 31 32 23 29 26 35 42 31 18 5 5 5 5 5 4 7 6
86 83 40 57 72 48 44 77 82 35 36 8 5 10 19 94 100 100 100 100 62 28 33 29 41 37 38 45 48 39 27 22 28 17 19 6 5 5 5 5 5 28 27
5 30 39 68 92 88 53 46 28 6 4 4 4 3 1 0 22 98 100 100 36 15 24 32 80 58 95 56 50 80 64 66 81 75 37 44 9 5 64 61 5 5 20
5 1 1 5 5 6 28 23 10 0 0 0 0 0 0 0 0 3 83 58 52 11 0 11 37 69 91 71 84 82 71 81 77 81 100 99 86 61 36 98 42 5 5
5 0 0 0 0 2 2 1 0 2 0 0 0 0 0 0 0 0 0 84 31 53 33 19 10 40 68 81 96 76 62 60 40 78 88 100 100 100 100 97 99 86 61
3 5 5 4 9 4 37 40 34 3 11 0 0 0 0 1 14 4 10 12 100 65 96 35 8 66 28 36 37 10 19 31 25 15 30 8 60 90 100 100 100 100 100
11 5 2 14 2 28 100 100 100 54 45 66 98 100 100 100 99 90 91 89 73 96 100 98 72 46 16 94 49 10 2 4 13 18 4 3 1 2 27 63 100 98 100
0 0 0 0 0 22 88 78 100 100 100 100 100 100 98 64 41 66 100 100 100 100 83 100 93 86 69 68 70 71 5 5 0 1 1 7 0 4 4 5 0 2 5
0 0 0 0 0 0 1 84 83 100 100 100 100 100 72 85 53 64 96 100 100 100 100 100 100 100 100 100 99 54 5 6 5 5 3 0 0 4 2 1 6 14 5
0 0 0 0 0 0 0 31 8 46 95 93 100 100 100 71 92 100 100 100 85 100 100 100 100 100 100 100 100 100 74 41 22 5 5 19 15 6 1 2 5 5 5
0 0 0 0 0 2 5 0 11 80 86 99 100 100 100 96 100 78 100 100 89 96 100 100 87 100 100 100 100 100 100 100 100 60 16 35 6 80 0 44 2 0 0
0 0 0 0 0 23 54 25 2 3 34 94 100 100 94 95 100 100 100 100 100 100 100 100 100 82 97 100 100 100 100 100 96 100 81 89 94 49 25 34 48 72 4
6 0 0 0 5 5 49 76 74 76 99 93 100 93 100 100 100 100 100 90 100 100 100 100 100 100 100 100 85 100 100 100 100 100 100 100 53 66 100 100 76 64 5

GFSSE_prec_cloud_120.txt.gz
Cloud_Cover
100 97 15 38 0 0 3 5 5 5 4 5 26 15 58 5 5 4 5 2 0 0 4 4 0 12 5 5 41 8 13 48 25 15 8 8 4 18 12 2 0 0 52
89 100 49 25 17 3 1 0 0 0 4 5 67 19 5 5 5 0 0 4 4 6 24 3 2 7 2 5 8 5 18 22 5 0 0 5 5 6 68 94 91 64 47
19 99 100 4 17 0 0 0 0 0 0 0 0 1 5 14 1 0 0 0 0 0 19 42 76 99 46 96 100 100 100 92 10 5 0 4 1 17 19 1 0 1 31
0 78 5 12 2 15 0 0 0 0 0 0 0 0 0 1 5 0 0 0 0 1 8 66 79 29 88 98 8 7 87 100 100 92 13 5 5 2 4 5 5 1 1
0 0 1 0 12 100 62 0 0 0 0 0 0 0 1 5 6 1 0 0 0 0 0 4 5 15 16 5 5 5 5 36 100 94 95 36 5 3 5 5 5 5 5
31 88 96 2 11 6 17 99 1 0 0 0 0 0 2 4 5 15 5 6 34 3 31 20 48 5 53 47 98 100 99 100 100 100 99 100 62 45 2 5 16 12 14
0 7 46 100 100 97 100 100 43 0 0 0 0 0 0 5 73 6 51 100 100 100 23 5 5 4 5 5 5 5 10 41 50 99 100 100 100 45 23 3 1 5 5
0 0 0 1 80 82 100 97 4 6 0 0 0 0 0 0 2 62 93 100 100 100 100 42 8 14 61 7 5 5 5 3 5 5 29 71 67 72 20 18 5 5 9
0 0 0 0 0 1 85 100 90 55 9 0 0 0 0 0 0 0 0 20 99 83 70 100 61 17 11 60 100 5 5 5 3 1 0 1 2 0 3 4 15 5 13
0 0 0 0 0 0 0 0 46 100 82 20 0 0 5 0 0 0 0 0 0 2 17 5 36 37 15 10 8 8 49 5 5 5 5 5 5 5 1 56 7 0 1
1 0 0 0 0 1 0 0 0 0 47 94 100 56 7 2 0 0 0 0 0 4 1 1 5 5 5 5 18 64 45 8 14 14 5 5 5 5 5 11 17 6 7
37 11 3 0 0 0 4 4 4 0 0 0 38 100 100 100 88 6 4 3 0 0 0 0 0 1 5 19 19 4 19 17 25 24 21 5 5 5 5 5 6 2 3
5 5 5 5 5 4 0 4 5 5 5 5 5 13 100 100 100 100 56 16 5 1 0 3 9 20 32 35 35 29 28 31 35 35 6 5 5 7 5 5 5 5 5
3 55 54 24 8 9 7 3 1 5 5 4 3 3 5 5 55 100 100 100 29 22 19 22 23 20 46 37 28 43 32 28 39 28 16 5 5 5 5 5 5 5 18
0 0 4 22 15 5 9 5 50 20 5 5 22 11 5 5 5 4 24 86 100 100 100 54 46 41 61 64 76 76 48 38 34 37 39 10 5 4 6 5 5 5 5
5 0 0 0 1 4 5 52 39 38 23 42 47 42 70 46 53 14 5 0 60 100 100 100 68 78 100 100 100 100 82 44 28 41 68 39 7 67 39 45 22 8 5
5 0 0 0 0 0 0 0 1 0 14 10 0 0 4 3 4 1 4 3 0 4 92 41 46 70 100 100 100 100 100 100 100 93 38 61 74 73 98 95 72 94 95
5 5 5 4 0 1 0 0 0 0 14 67 100 92 32 6 23 38 45 44 7 16 22 100 100 71 98 100 100 100 100 100 100 100 100 22 86 100 100 100 100 100 100
5 5 5 4 1 0 0 0 0 2 95 100 100 100 100 100 100 99 91 47 21 47 32 42 88 98 75 34 65 42 32 44 85 57 44 23 5 5 6 98 89 100 100
1 0 0 0 0 0 0 0 56 98 100 100 100 97 100 100 100 100 100 42 98 100 100 99 93 85 100 48 92 59 16 8 63 26 9 3 15 8 4 74 52 70 99
0 0 0 0 0 0 0 70 59 98 100 100 100 100 98 100 100 100 100 100 100 100 100 100 77 99 100 100 100 100 99 42 88 96 51 18 19 8 10 0 1 3 14
0 0 0 0 0 0 0 82 75 48 72 94 99 93 72 86 73 81 99 100 99 100 100 100 71 23 87 100 100 100 100 100 99 90 94 89 90 20 11 5 0 0 0
0 0 0 0 0 0 0 2 1 1 1 57 86 90 99 85 83 97 99 100 97 100 100 100 100 91 93 93 100 100 100 100 100 100 99 83 54 96 86 66 88 4 2
0 0 0 0 0 0 0 0 2 56 6 1 1 16 95 87 34 54 61 58 90 100 99 84 79 100 97 98 93 100 100 100 100 100 100 100 100 84 47 53 85 86 16
0 0 0 0 0 0 1 1 2 0 0 0 5 2 5 5 96 100 100 100 100 99 100 100 80 94 49 98 99 100 94 75 100 100 100 100 100 100 100 73 46 54 64
0 0 0 0 0 0 0 0 4 1 0 5 5 5 5 5 5 5 5 22 26 43 64 92 70 5 93 86 100 88 59 99 100 100 100 100 99 100 100 96 66 79 100